[[{"header":{"parameterUnit":"m.s-1","parameterCategory":1,"la1":30.6,"la2":29.2853,"lo1":-89.7004,"lo2":-87.6739,"dy":0.0162,"dx":0.0183,"nx":112,"ny":82,"refTime":"2023-07-26T06:00:00:Z","depth":0,"parameterNumber":2,"parameterNumberName":"U-component_of_WINDS"},"data":[0.0,0.0,0.0,0.0,0.0,0.0,0.0,0.0,0.0,0.0,0.0,0.0,0.0,0.0,0.0,0.0,0.0,0.0,0.0,0.0,0.0,0.0,0.0,0.0,0.0,0.0,0.0,0.0,0.0,0.0,0.0,0.0,0.0,0.0,0.0,0.0,0.0,0.0,0.0,0.0,0.0,0.0,0.0,0.0,0.0,0.0,0.0,0.0,0.0,0.0,0.0,0.0,0.0,0.0,0.0,0.0,0.0,0.0,0.0,0.0,0.0,0.0,0.0,0.0,0.0,0.0,0.0,0.0,0.0,0.0,0.0,0.0,0.0,0.0,0.0,0.0,0.0,0.0,0.0,0.0,0.0,0.0,0.0,0.0,0.0,0.0,0.0,0.0,0.0,0.0,0.8,0.7043,0.7279,0.788,0.8822,0.8779,0.8723,0.8769,0.0,0.0,0.0,0.0,0.0,0.0,0.0,0.0,0.0,0.0,0.0,0.0,0.0,0.0,0.0,0.0,0.0,0.0,0.0,0.0,0.0,0.0,0.0,0.0,0.0,0.0,0.0,0.0,0.0,0.0,0.0,0.0,0.0,0.0,0.0,0.0,0.0,0.0,0.0,0.0,0.0,0.0,0.0,0.0,0.0,0.0,0.0,0.0,0.0,0.0,0.0,0.0,0.0,0.0,0.0,0.0,0.0,0.0,0.0,0.0,0.0,0.0,0.0,0.0,0.0,0.0,0.0,0.0,0.0,0.0,0.0,0.0,0.0,0.0,0.0,0.0,0.0,0.0,0.0,0.0,0.0,0.0,0.0,0.0,0.0,0.0,0.0,0.0,0.0,0.0,0.0,0.0,0.0,0.0,0.0,0.0,0.0,0.0,0.0,0.0,0.0,0.0,0.0,0.0,0.7688,0.7581,0.6982,0.7226,0.8767,0.8222,0.8033,0.8588,0.0,0.0,0.0,0.0,0.0,0.0,0.0,0.0,0.0,0.0,0.0,0.0,0.0,0.0,0.0,0.0,0.0,0.0,0.0,0.0,0.0,0.0,0.0,0.0,0.0,0.0,0.0,0.0,0.0,0.0,0.0,0.0,0.0,0.0,0.0,0.0,0.0,0.0,0.0,0.0,0.0,0.0,0.0,0.0,0.0,0.0,0.0,0.0,0.0,0.0,0.0,0.0,0.0,0.0,0.0,0.0,0.0,0.0,0.0,0.0,0.0,0.0,0.0,0.0,0.0,0.0,0.0,0.0,0.0,0.0,0.0,0.0,0.0,0.0,0.0,0.0,0.0,0.0,0.0,0.0,0.0,0.0,0.0,0.0,0.0,0.0,0.0,0.0,0.0,0.0,0.0,0.0,0.0,0.0,0.0,0.0,0.0,0.0,0.0,0.0,0.0,0.0,0.0,0.8607,0.7804,0.707,0.6639,0.7076,0.8757,0.8098,0.8106,0.9287,0.9419,0.0,0.0,0.0,0.0,0.0,0.0,0.0,0.0,0.0,0.0,0.0,0.0,0.0,0.0,0.0,0.0,0.0,0.0,0.0,0.0,0.0,0.0,0.0,0.0,0.0,0.0,0.0,0.0,0.0,0.0,0.0,0.0,0.0,0.0,0.0,0.0,0.0,0.0,0.0,0.0,0.0,0.0,0.0,0.0,0.0,0.0,0.0,0.0,0.0,0.0,0.0,0.0,0.0,0.0,0.0,0.0,0.0,0.0,0.0,0.0,0.0,0.0,0.0,0.0,0.0,0.0,0.0,0.0,0.0,0.0,0.0,0.0,0.0,0.0,0.0,0.0,0.0,0.0,0.0,0.0,0.0,0.0,0.0,0.0,0.0,0.0,0.0,0.0,0.0,0.0,0.0,0.0,0.0,0.0,0.0,0.0,0.0,0.0,0.0,0.0,0.0,0.0,0.778,0.7367,0.6489,0.6396,0.7005,0.849,0.8119,0.8433,0.9911,1.0301,0.0,0.0,0.0,0.0,0.0,0.0,0.0,0.0,0.0,0.0,0.0,0.0,0.0,0.0,0.0,0.0,0.0,0.0,0.0,0.0,0.0,0.0,0.0,0.0,0.0,0.0,0.0,0.0,0.0,0.0,0.0,0.0,0.0,0.0,0.0,0.0,0.0,0.0,0.0,0.0,0.0,0.0,0.0,0.0,0.0,0.0,0.0,0.0,0.0,0.0,0.0,0.0,0.0,0.0,0.0,0.0,0.0,0.0,0.0,0.0,0.0,0.0,0.0,0.0,0.0,0.0,0.0,0.0,0.0,0.0,0.0,0.0,0.0,0.0,0.0,0.0,0.0,0.0,0.0,0.0,0.0,0.0,0.0,0.0,0.0,0.0,0.0,0.0,0.0,0.0,0.0,0.0,0.0,0.0,0.0,0.0,0.0,0.0,0.0,0.0,0.0,0.0,0.6775,0.5614,0.6321,0.6398,0.6772,0.7708,0.8184,0.8879,0.993,1.1007,0.0,0.0,0.0,0.0,0.0,0.0,0.0,0.0,0.0,0.0,0.0,0.0,0.0,0.0,0.0,0.0,0.0,0.0,0.0,0.0,0.0,0.0,0.0,0.0,0.0,0.0,0.0,0.0,0.0,0.0,0.0,0.0,0.0,0.0,0.0,0.0,0.0,0.0,0.0,0.0,0.0,0.0,0.0,0.0,0.0,0.0,0.0,0.0,0.0,0.0,0.0,0.0,0.0,0.0,0.0,0.0,0.0,0.0,0.0,0.0,0.0,0.0,0.0,0.0,0.0,0.0,0.0,0.0,0.0,0.0,0.0,0.0,0.0,0.0,0.0,0.0,0.0,0.0,0.0,0.0,0.0,0.0,0.0,0.0,0.0,0.0,0.0,0.0,0.0,0.0,0.0,0.0,0.0,0.0,0.0,0.0,0.0,0.0,0.0,0.0,0.0,0.0,0.8874,0.8002,0.7287,0.7209,0.7568,0.8441,0.8652,0.9341,1.0724,0.0,0.0,0.0,0.0,0.0,0.0,0.0,0.0,0.0,0.0,0.0,0.0,0.0,0.0,0.0,0.0,0.0,0.0,0.0,0.0,0.0,0.0,0.0,0.0,0.0,0.0,0.0,0.0,0.0,0.0,0.0,0.0,0.0,0.0,0.0,0.0,0.0,0.0,0.0,0.0,0.0,0.0,0.0,0.0,0.0,0.0,0.0,0.0,0.0,0.0,0.0,0.0,0.0,0.0,0.0,0.0,0.0,0.0,0.0,0.0,0.0,0.0,0.0,0.0,0.0,0.0,0.0,0.0,0.0,0.0,0.0,0.0,0.0,0.0,0.0,0.0,0.0,0.0,0.0,0.0,0.0,0.0,0.0,0.0,0.0,0.0,0.0,0.0,0.0,0.0,0.0,0.0,0.0,0.0,0.0,0.0,0.0,0.0,0.0,0.0,0.0,0.0,1.1033,1.0408,0.9599,0.811,0.8034,0.8335,0.8945,0.9208,1.0025,1.164,0.0,0.0,0.0,0.0,0.0,0.0,0.0,0.0,0.0,0.0,0.0,0.0,0.0,0.0,0.0,0.0,0.0,0.0,0.0,0.0,0.0,0.0,0.0,0.0,0.0,0.0,0.0,0.0,0.0,0.0,0.0,0.0,0.0,0.0,0.0,0.0,0.0,0.0,0.0,0.0,0.0,0.0,0.0,0.0,0.0,0.0,0.0,0.0,0.0,0.0,0.0,0.0,0.0,0.0,0.0,0.0,0.0,0.0,0.0,0.0,0.0,0.0,0.0,0.0,0.0,0.0,0.0,0.0,0.0,0.0,0.0,0.0,0.0,0.0,0.0,0.0,0.0,0.0,0.0,0.0,0.0,0.0,0.0,0.0,0.0,0.0,0.0,0.0,0.0,0.0,0.0,0.0,0.0,0.0,0.0,0.0,0.0,0.0,0.0,0.0,0.0,0.0,1.2213,1.0795,0.961,0.8628,0.8758,0.894,0.9014,0.9805,1.0989,0.0,0.0,0.0,0.0,0.0,0.0,0.0,0.0,0.0,0.0,0.0,0.0,0.0,0.0,0.0,0.0,0.0,0.0,0.0,0.0,0.0,0.0,0.0,0.0,0.0,0.0,0.0,0.0,0.0,0.0,0.0,0.0,0.0,0.0,0.0,0.0,0.0,0.0,0.0,0.0,0.0,0.0,0.0,0.0,0.0,0.0,0.0,0.0,0.0,0.0,0.0,0.0,0.0,0.0,0.0,0.0,0.0,0.0,0.0,0.0,0.0,0.0,0.0,0.0,0.0,0.0,0.0,0.0,0.0,0.0,0.0,0.0,0.0,0.0,0.0,0.0,0.0,0.0,0.0,0.0,0.0,0.0,0.0,0.0,0.0,0.0,0.0,0.0,0.0,0.0,0.0,0.0,0.0,0.0,0.0,0.0,0.0,0.0,0.0,0.0,0.0,0.0,0.0,1.3347,0.7201,0.47,0.9221,0.9768,0.9841,0.9912,1.0107,1.0956,1.2662,0.0,0.0,0.0,0.0,0.0,0.0,0.0,0.0,0.0,0.0,0.0,0.0,0.0,0.0,0.0,0.0,0.0,0.0,0.0,0.0,0.0,0.0,0.0,0.0,0.0,0.0,0.0,0.0,0.0,0.0,0.0,0.0,0.0,0.0,0.0,0.0,0.0,0.0,0.0,0.0,0.0,0.0,0.0,0.0,0.0,0.0,0.0,0.0,0.0,0.0,0.0,0.0,0.0,0.0,0.0,0.0,0.0,0.0,0.0,0.0,0.0,0.0,0.0,0.0,0.0,0.0,0.0,0.0,0.0,0.0,0.0,0.0,0.0,0.0,0.0,0.0,0.0,0.0,0.0,0.0,0.0,0.0,0.0,0.0,0.0,0.0,0.0,0.0,0.0,0.0,0.0,0.0,0.0,0.0,0.0,0.0,0.0,0.0,0.0,0.0,0.0,0.0,1.1982,0.6031,0.4144,0.9652,1.022,1.0229,1.0293,1.0264,1.0869,1.2353,0.0,0.0,0.0,0.0,0.0,0.0,0.0,0.0,0.0,0.0,0.0,0.0,0.0,0.0,0.0,0.0,0.0,0.0,0.0,0.0,0.0,0.0,0.0,0.0,0.0,0.0,0.0,0.0,0.0,0.0,0.0,0.0,0.0,0.0,0.0,0.0,0.0,0.0,0.0,0.0,0.0,0.0,0.0,0.0,0.0,0.0,0.0,0.0,0.0,0.0,0.0,0.0,0.0,0.0,0.0,0.0,0.0,0.0,0.0,0.0,0.0,0.0,0.0,0.0,0.0,0.0,0.0,0.0,0.0,0.0,0.0,0.0,0.0,0.0,0.0,0.0,0.0,0.0,0.0,0.0,0.0,0.0,0.0,0.0,0.0,0.0,0.0,0.0,0.0,0.0,0.0,0.0,0.0,0.0,0.0,0.0,0.0,0.0,0.0,0.0,0.0,0.0,0.9189,0.6839,0.6795,0.9959,1.0248,1.0226,1.0293,1.0303,1.0762,1.1836,0.0,0.0,0.0,0.0,0.0,0.0,0.0,0.0,0.0,0.0,0.0,0.0,0.0,0.0,0.0,0.0,0.0,0.0,0.0,0.0,0.0,0.0,0.0,0.0,0.0,0.0,0.0,0.0,0.0,0.0,0.0,0.0,0.0,0.0,0.0,0.0,0.0,0.0,0.0,0.0,0.0,0.0,0.0,0.0,0.0,0.0,0.0,0.0,0.0,0.0,0.0,0.0,0.0,0.0,0.0,0.0,0.0,0.0,0.0,0.0,0.9493,1.0596,0.0,0.0,0.0,0.0,0.0,0.0,0.0,0.0,0.0,0.0,0.0,0.0,0.0,0.0,0.0,0.0,0.0,0.0,0.0,0.0,0.0,0.0,0.0,0.0,0.0,0.0,0.0,0.0,0.0,0.0,0.0,0.0,0.0,0.0,0.0,0.0,0.0,0.0,0.0,0.0,0.9189,0.8945,0.9479,1.0217,1.029,1.0282,1.0303,1.0303,1.0781,1.1914,1.2891,0.0,0.0,0.0,0.0,0.0,0.0,0.0,0.0,0.0,0.0,0.0,0.0,0.0,0.0,0.0,0.0,0.0,0.0,0.0,0.0,0.0,0.0,0.0,0.0,0.0,0.0,0.0,0.0,0.0,0.0,0.0,0.0,0.0,0.0,0.0,0.0,0.0,0.0,0.0,0.0,0.0,0.0,0.0,0.0,0.0,0.0,0.0,0.0,0.0,0.0,0.0,0.0,0.0,0.0,0.0,0.0,0.0,0.0,0.0,1.0471,1.1003,0.0,0.0,0.0,0.0,0.0,0.0,0.0,0.0,0.0,0.0,0.0,0.0,0.0,0.0,0.0,0.0,0.0,0.0,0.0,0.0,0.0,0.0,0.0,0.0,0.0,0.0,0.0,0.0,0.0,0.0,0.0,0.0,0.0,0.0,0.0,0.0,0.0,0.0,0.0,0.0,1.1074,1.0449,1.03,1.0295,1.0273,1.043,1.0889,1.1035,1.1143,1.1182,1.3018,0.0,0.0,0.0,0.0,0.0,0.0,0.0,0.0,0.0,0.0,0.0,0.0,0.0,0.0,0.0,0.0,0.0,0.0,0.0,0.0,0.0,0.0,0.0,0.0,0.0,0.0,0.0,0.0,0.0,0.0,0.0,0.0,0.0,0.0,0.0,0.0,0.0,0.0,0.0,0.0,0.0,0.0,0.0,0.0,0.0,0.0,0.0,0.0,0.0,0.0,0.0,0.0,0.0,1.0713,1.0742,1.0752,1.0752,1.1227,1.2003,1.1058,1.1111,1.191,1.2538,0.0,0.0,0.0,0.0,0.0,0.0,0.0,0.0,0.0,0.0,0.0,0.0,0.0,0.0,0.0,0.0,0.0,0.0,0.0,0.0,0.0,0.0,1.2754,1.2168,1.2588,1.3525,1.5068,0.0,0.0,0.0,0.0,0.0,0.0,0.0,0.0,0.0,0.0,0.0,1.3073,1.1366,1.0303,1.0283,1.0382,1.0756,1.1533,1.1943,1.1786,1.0928,1.2587,1.0322,0.0,0.0,0.0,0.0,0.0,0.0,0.0,0.0,0.0,0.0,0.0,0.0,0.0,0.0,0.0,0.0,0.0,0.0,0.0,0.0,0.0,0.0,0.0,0.0,0.0,0.0,0.0,0.0,0.0,0.0,0.0,0.0,0.6791,1.128,0.0,0.0,0.0,0.0,0.0,0.0,0.0,0.0,0.0,0.0,0.0,0.0,0.0,1.2084,1.3401,1.2714,1.2403,1.2457,1.2468,1.25,1.2559,1.2559,1.2598,1.2666,1.2525,0.0,1.3303,1.2941,0.0,0.0,0.0,0.0,0.0,0.0,0.0,0.0,0.0,0.0,0.0,0.0,0.0,0.0,0.0,0.0,0.0,0.0,0.0,0.0,0.0,0.0,1.3047,1.3633,1.3857,1.4209,1.5186,1.4813,1.4266,1.4261,1.4868,1.539,0.0,0.0,0.0,0.0,0.0,0.0,1.2911,1.1339,1.0283,1.0225,1.0927,1.1473,1.1592,1.2334,1.2892,1.3147,0.8943,0.8509,1.309,0.6031,0.0,0.0,0.0,0.0,0.0,0.0,0.0,0.0,0.0,0.0,0.0,0.0,0.0,0.0,0.0,0.0,0.0,0.0,0.0,0.0,0.0,0.0,0.0,0.0,0.0,0.0,0.0,0.0,0.0,0.9628,1.0582,1.2971,1.2808,1.2993,0.0,0.0,0.0,0.0,0.0,0.0,0.0,0.0,0.0,1.4593,1.3926,1.3651,1.3896,1.359,1.3205,1.2744,1.2739,1.2784,1.2842,1.2842,1.3098,1.3527,1.3533,1.3639,1.3807,1.3565,1.3421,1.3373,0.0,0.0,0.0,0.0,1.2433,1.2042,1.2258,1.2345,1.2385,1.2704,0.0,0.0,0.0,0.0,0.0,0.0,0.0,1.2217,1.1728,1.2578,1.3555,1.3447,1.3395,1.3471,1.3862,1.4025,1.4236,1.4739,1.471,1.4777,1.5309,1.4989,0.0,0.0,0.0,1.3306,1.221,1.1557,1.1133,1.0947,1.1738,1.2471,1.2959,1.335,1.3866,1.4564,1.2226,0.9588,0.682,0.7891,0.7963,0.0,0.0,0.0,0.0,0.0,0.0,0.0,0.0,0.0,0.0,0.0,0.0,0.0,0.0,0.0,0.0,0.0,0.0,0.0,0.0,0.0,0.0,0.0,0.0,0.0,0.0,0.0,0.0,1.1196,1.3226,1.3962,1.2601,1.2382,0.0,0.0,0.0,0.0,0.0,0.0,1.4199,1.444,1.4862,1.5513,1.5532,1.5314,1.4882,1.472,1.431,1.3665,1.3457,1.3392,1.344,1.344,1.3795,1.4412,1.4412,1.4259,1.4021,1.4014,1.3653,1.3166,1.3798,1.3759,1.3306,1.3085,1.2613,1.2219,1.3306,1.3836,1.3959,1.3586,1.4487,1.5498,1.4248,0.0,0.0,0.0,0.0,1.2803,1.2353,1.3174,1.4013,1.363,1.3504,1.3461,1.3442,1.3946,1.4541,1.498,1.4679,1.4581,1.5286,1.4863,0.0,1.4432,1.4073,1.3396,1.2283,1.2117,1.2029,1.1846,1.2605,1.3398,1.4043,1.4297,1.4705,1.5359,1.5346,1.1877,0.4232,1.0335,1.0738,0.4018,0.0,0.0,0.0,0.0,0.0,0.0,0.0,0.0,0.0,0.0,0.0,0.0,0.0,0.0,0.0,0.0,0.0,0.0,0.0,0.0,0.0,0.0,0.0,0.0,0.0,0.0,0.0,0.0,0.0,1.2242,1.09,0.0,0.0,0.0,0.0,1.4943,1.5103,1.5084,1.5132,1.5917,1.6388,1.6426,1.6426,1.6782,1.7494,1.6744,1.6352,1.6303,1.553,1.5168,1.517,1.5167,1.5204,1.5236,1.5242,1.4805,1.4091,1.4033,1.3975,1.3936,1.3916,1.4391,1.4974,1.4141,1.3849,1.3773,1.3089,1.3406,1.4223,1.5008,1.5887,1.6621,1.6533,1.5352,0.0,0.0,1.3457,1.3066,1.3789,1.4043,1.43,1.5091,1.5274,1.5253,1.5189,1.5216,1.5027,1.4312,1.4805,1.5342,1.539,0.0,1.5332,1.5332,1.462,1.403,1.3885,1.3157,1.2676,1.2728,1.351,1.4053,1.4102,1.4863,1.5351,1.54,1.534,1.507,1.4551,1.1839,1.1642,1.4382,1.6503,0.0,0.0,0.0,0.0,0.0,0.0,0.0,0.0,0.0,0.0,0.0,0.0,0.0,0.0,0.0,0.0,0.0,0.0,0.0,0.0,0.0,0.0,0.0,0.0,0.0,0.0,0.0,0.0,1.4424,1.3579,0.0,1.5968,1.4659,1.4344,1.592,1.6042,1.6042,1.6042,1.6821,1.7529,1.8087,1.8107,1.8251,1.853,1.7702,1.701,1.6487,1.5638,1.5263,1.5301,1.5298,1.5304,1.5304,1.5295,1.5135,1.4867,1.4849,1.451,1.4005,1.3973,1.4148,1.4394,1.4081,1.3986,1.4116,1.4964,1.5077,1.4934,1.5278,1.5615,1.5859,1.5859,1.5039,1.4102,1.4102,1.3887,1.374,1.4033,1.4898,1.5661,1.5447,1.5757,1.5958,1.5426,1.5301,1.5224,1.4933,1.4673,1.4683,1.5241,1.4869,1.4498,1.4498,1.4235,1.3815,1.3243,1.3339,1.3503,1.3571,1.4351,1.5125,1.5723,1.5537,1.5859,1.6943,1.5975,1.5329,1.524,1.4036,1.4987,1.8427,1.3691,1.001,0.0,0.0,0.0,0.0,0.0,0.0,0.0,0.0,0.0,0.0,0.0,0.0,0.0,0.0,0.0,0.0,0.0,0.0,0.0,0.0,0.0,0.0,0.0,0.0,0.0,1.3977,1.4299,1.5913,1.5201,1.5334,1.7188,1.6183,1.5798,1.6769,1.7147,1.734,1.7347,1.8128,1.884,1.9425,1.9444,1.93,1.9001,1.8145,1.7301,1.6484,1.5907,1.5657,1.5695,1.5695,1.5695,1.5686,1.5416,1.5298,1.5301,1.53,1.496,1.444,1.4446,1.4439,1.4444,1.4437,1.4448,1.4676,1.6127,1.6257,1.583,1.6172,1.6083,1.584,1.584,1.5234,1.4541,1.4541,1.4541,1.454,1.4541,1.556,1.6456,1.5901,1.6135,1.6346,1.582,1.5474,1.5272,1.5272,1.4821,1.4621,1.5201,1.4815,1.4442,1.4442,1.4444,1.4224,1.365,1.4021,1.4468,1.4811,1.5385,1.6109,1.7031,1.6602,1.6748,1.7861,1.6865,1.6205,1.6111,1.6091,1.6322,1.6853,1.194,1.0221,1.1923,0.0,0.0,0.0,0.0,0.0,0.0,0.0,0.0,0.0,0.0,0.0,0.0,0.0,0.0,0.0,0.0,0.0,0.0,0.0,0.0,0.0,0.0,0.0,1.4101,1.4438,1.511,1.6454,1.5535,1.5425,1.7055,1.6658,1.6663,1.7508,1.8476,1.9008,1.8994,1.9794,2.0248,2.0248,2.0227,1.9823,1.9004,1.81,1.7266,1.6516,1.6468,1.6478,1.6526,1.6484,1.6474,1.6455,1.5647,1.5301,1.5301,1.5301,1.5299,1.5297,1.5302,1.5302,1.5297,1.5297,1.5356,1.556,1.6396,1.6728,1.6914,1.7734,1.7441,1.6768,1.6748,1.6152,1.5478,1.5478,1.5478,1.5483,1.5483,1.6083,1.6657,1.6566,1.6561,1.6567,1.6542,1.5849,1.5237,1.5237,1.5272,1.5301,1.5301,1.5301,1.5301,1.5301,1.5301,0.0,1.5301,1.5263,1.5564,1.6413,1.658,1.6991,1.786,1.7969,1.8017,1.8066,1.7978,1.7952,1.7977,1.7917,1.5511,1.0438,1.2179,1.5527,2.0411,0.0,0.0,0.0,0.0,0.0,0.0,0.0,0.0,0.0,0.0,0.0,0.0,0.0,0.0,0.0,0.0,0.0,0.0,0.0,0.0,0.0,1.5397,1.5803,1.6843,1.69,1.746,1.9189,1.9091,1.9118,1.9727,1.9107,1.8793,1.9135,1.9415,1.9333,1.8745,1.8944,1.9068,1.9068,1.8498,1.8355,1.8716,1.7272,1.6721,1.7064,1.5897,1.6005,1.7176,1.5969,1.5808,1.6445,1.5599,1.5234,1.5234,1.5282,1.5295,1.5299,1.5348,1.5375,1.5365,1.5365,1.575,1.6296,1.6539,1.7462,1.8449,1.8064,1.8193,1.8398,1.7822,1.748,1.7285,1.7285,1.7285,1.7295,1.7294,1.7848,1.8266,1.7665,1.7917,1.8138,1.7503,1.6715,1.6138,1.6138,1.5647,1.5234,1.5234,1.5234,1.5234,1.5234,1.5234,1.5234,1.5234,1.5763,1.6234,1.6474,1.7083,1.7823,1.8702,1.8208,1.8393,1.9665,1.9036,1.9003,1.9818,1.9846,1.855,1.5809,1.7503,1.9086,0.0,0.0,0.0,0.0,0.0,0.0,0.0,0.0,0.0,0.0,0.0,0.0,0.0,0.0,0.0,0.0,0.0,0.0,0.0,0.0,0.0,0.0,1.6853,1.7692,1.9471,1.9031,1.8976,2.0302,2.0281,2.0209,2.033,1.9687,1.9173,1.8937,1.8973,1.8851,1.849,1.8143,1.8316,1.9075,1.8322,1.8114,1.8554,1.7253,1.6847,1.7279,1.6008,1.611,1.7368,1.6057,1.5775,1.6294,1.5439,1.5076,1.5076,1.5146,1.5175,1.519,0.0,0.0,0.0,0.0,1.6408,1.7098,1.7094,1.7998,1.9075,1.857,1.8754,1.9067,1.8597,1.8207,1.7924,1.7924,1.7924,1.7919,1.7922,1.8513,1.8975,1.8486,1.8684,1.8857,1.8347,1.7597,1.6897,1.6571,1.609,0.0,1.5257,1.5199,1.5199,1.5199,1.5199,1.5199,1.5199,1.5965,1.6628,1.6965,1.7804,1.8695,1.9535,1.9188,0.0,0.0,0.0,1.9904,2.0527,2.0562,0.0,0.0,0.0,2.1933,2.2641,2.2658,0.0,0.0,2.2359,2.2401,0.0,0.0,0.0,0.0,0.0,0.0,0.0,0.0,0.0,0.0,0.0,0.0,0.0,0.0,0.0,0.0,1.8438,1.9142,2.1674,2.0806,2.0088,2.0553,2.0136,1.9794,1.9714,1.9075,1.8425,1.7837,1.7824,1.7969,1.8192,1.7519,0.0,0.0,0.0,1.8373,1.8404,1.7642,1.7303,1.7382,1.6571,1.6667,1.7524,1.6536,1.614,1.6196,1.5384,1.4979,1.4922,1.5155,1.5261,1.5276,1.5389,1.5502,1.5685,1.6447,1.7182,1.7799,1.7905,0.0,0.0,1.9196,1.9239,1.924,1.924,1.8711,1.8091,1.8091,1.8091,1.8087,1.8085,1.8657,1.9223,1.9162,1.9148,1.9146,1.9146,1.8463,1.7645,1.6917,1.6696,1.6388,1.5618,1.533,1.5199,1.5199,1.5199,1.5237,1.5324,1.6099,1.6946,1.7753,1.8684,0.0,2.0244,2.0408,2.0475,2.0475,2.0637,2.0709,2.0664,2.0742,2.1491,2.2979,2.3168,2.398,2.5473,2.5619,2.5704,2.5639,2.3324,2.3075,0.0,0.0,0.0,0.0,0.0,0.0,0.0,0.0,0.0,0.0,0.0,0.0,0.0,0.0,0.0,1.9618,1.9906,2.0403,2.2018,2.1974,2.1782,2.1784,2.1123,2.0439,1.9848,1.8555,1.7941,1.8395,1.7896,1.7572,1.7563,1.7429,1.7499,1.7854,1.724,1.722,1.7857,1.7275,1.7309,1.7941,1.7134,0.0,1.9076,1.692,1.6351,1.7017,1.6215,1.5498,1.4998,1.6319,1.6855,1.6819,1.6424,1.6696,1.734,1.7509,1.7634,1.7818,1.852,1.8886,1.9138,1.9842,2.0067,2.0077,2.0133,2.0029,0.0,1.9904,1.9904,1.9906,1.9898,1.9977,2.0063,2.0044,2.0052,2.0052,2.0052,1.936,1.8703,1.8549,1.7953,1.7407,1.7244,1.6099,1.5199,1.5199,1.5199,1.5455,1.6157,1.6955,1.7802,1.866,1.9542,2.0129,2.0292,2.0321,2.034,2.034,2.1114,2.1593,2.1631,2.2246,2.2754,2.3075,2.3776,2.4308,2.4633,2.5348,2.5701,2.5688,2.5179,2.5135,0.0,0.0,0.0,0.0,0.0,0.0,0.0,0.0,0.0,0.0,0.0,1.7013,0.0,0.0,1.9095,2.0517,2.1063,2.1529,2.22,2.231,2.2152,2.1691,2.0928,2.0157,1.9417,1.8164,1.748,1.7636,1.7156,1.698,1.7245,1.6877,1.7054,1.7975,1.7319,1.7402,1.8344,1.7654,1.776,1.8684,1.7477,1.7578,1.8791,1.716,1.6651,1.7081,1.6667,1.6276,1.5969,1.6836,1.7474,1.7861,1.7606,1.7837,1.8307,1.8378,1.866,1.9061,1.9494,1.9648,1.9715,2.0158,2.0302,2.0312,2.034,2.035,2.035,2.035,2.035,2.035,2.035,2.0331,2.0302,2.0302,2.0302,2.0302,2.0302,1.9956,1.9513,1.9078,1.8645,1.8212,1.7779,1.7013,1.6311,1.5907,1.5849,1.6013,1.6436,1.758,1.8516,1.8948,1.9775,2.0302,2.0302,2.036,2.0601,2.1068,2.1566,2.224,2.3115,2.3535,2.3965,2.4394,2.4834,2.5049,2.5049,2.5488,2.5703,2.5703,2.5703,2.5703,0.0,0.0,0.0,0.0,0.0,0.0,0.0,0.0,1.6297,1.6847,1.7375,1.806,1.9056,1.9705,2.038,2.127,2.1913,2.226,2.2116,2.209,2.1725,2.0768,2.0263,1.9622,1.8687,1.7687,1.7084,1.7039,1.6503,1.6564,1.74,1.67,1.6933,1.8395,1.7863,1.7994,1.8905,1.8291,1.8404,1.9271,1.7995,1.7706,1.8307,1.7495,1.7128,1.7119,1.6972,1.7083,1.7362,1.7311,1.7826,1.8667,1.87,1.8811,1.8973,1.9102,1.962,2.0241,2.0241,2.0277,2.0302,2.0302,2.0302,2.0302,2.0302,2.0417,2.0504,2.034,2.0417,2.0533,2.0533,2.0427,2.034,2.0504,2.0417,2.0302,2.0302,2.0427,2.0331,1.9627,1.9617,1.9521,1.8809,1.8417,1.7869,1.6878,1.6724,1.6792,1.6955,1.8157,1.9054,1.9227,1.9881,2.03,2.0294,2.0566,2.106,2.181,2.2187,2.2988,2.4326,2.456,2.498,2.5693,2.5703,2.5703,2.5703,2.5703,2.5703,2.5703,2.5703,2.5703,0.9269,1.0805,1.2555,1.4609,1.4916,1.5535,0.0,0.0,1.763,1.8387,1.8607,1.88,1.9295,1.9951,2.0835,2.1992,2.226,2.2073,2.1405,2.1304,2.0657,1.8907,1.9479,1.9336,1.764,1.6769,1.6851,1.8104,1.6958,1.6932,1.8619,1.8,1.7678,1.7883,1.8026,1.8283,1.8651,1.8771,1.8993,1.9305,1.9115,1.9078,1.9133,1.8335,1.7977,1.7931,1.7211,1.7706,1.8977,1.8276,1.847,1.9227,1.9406,1.9483,1.9522,1.9656,1.9846,2.0031,2.0031,2.0152,2.0302,2.0302,2.0302,2.0302,2.0302,2.0802,2.1225,2.0504,2.0812,2.137,2.137,2.0841,2.0485,2.1206,2.0821,2.0302,2.0302,2.086,2.1341,2.1244,2.185,2.2341,2.2245,2.0994,1.9456,1.7811,1.7577,1.7856,1.8616,1.8876,1.93,2.0071,2.0244,2.0299,2.0305,2.1075,2.1608,2.1719,2.3231,2.418,2.4307,2.5107,2.5596,2.5703,2.5703,2.5703,2.5703,2.5703,2.5703,2.5703,2.5703,2.5703,1.0666,1.235,1.3598,1.4357,1.5313,1.6339,1.7412,1.7722,1.8042,1.8964,1.9414,1.9799,2.0241,2.0566,2.0965,0.0,2.121,2.0853,2.055,2.0159,1.9309,1.772,1.7912,1.788,1.7092,1.6911,1.7178,1.8003,1.7874,1.8007,1.851,1.8488,1.8445,1.8445,1.8126,1.8512,1.9647,1.8918,1.8957,1.9755,1.9335,1.9198,1.9295,1.895,1.8794,1.8803,1.8935,1.9375,1.9978,1.9647,1.9693,1.9959,1.9573,1.9433,1.9462,1.9704,1.9845,1.9881,1.9881,2.0254,2.0735,2.0833,2.1197,2.1598,2.1719,2.1985,2.2187,2.185,2.1995,2.2254,2.2254,2.1914,2.1665,2.2,2.1747,2.1415,2.1415,2.1671,2.1942,2.2057,2.2383,2.2661,2.2784,2.2216,2.1504,2.0773,1.9408,1.859,1.8953,1.9444,1.9898,2.0264,2.0746,2.0847,2.0337,2.1626,2.2462,2.2455,2.3639,2.4561,2.5039,2.5469,2.5703,2.5703,2.5703,2.5703,2.5703,2.5703,2.5703,2.5703,2.5703,2.5703,1.0988,1.2657,1.3629,1.3909,1.5412,1.668,1.6167,1.7274,1.8533,1.8964,1.9506,1.9955,2.012,2.0139,2.0191,2.0258,1.9875,1.9537,1.942,1.8747,1.7844,1.6681,1.631,1.6174,1.6154,1.6521,1.7096,1.7887,1.8366,1.8611,1.8608,1.8977,1.902,1.8606,1.8285,1.866,1.9768,1.8732,1.8702,1.9676,1.9219,1.9086,1.923,1.9497,1.9629,1.9675,2.0501,2.0714,2.0512,2.0767,2.073,2.0466,2.0115,1.9993,2.0025,2.0252,2.0095,1.9804,2.0242,2.0675,2.1054,2.1428,2.1935,2.2443,2.2592,2.2795,2.2938,2.2699,2.2804,2.2986,2.2986,2.271,2.2486,2.2723,2.2483,2.2195,2.2195,2.2397,2.2597,2.2747,2.2973,2.3181,2.3381,2.3218,2.3093,2.3149,2.1379,2.0052,2.005,2.06,2.0994,2.0994,2.1544,2.1678,2.1043,2.2435,2.3321,2.3298,2.4162,2.4924,2.5546,2.5653,2.5703,2.5703,2.5703,2.5703,2.5703,2.5703,2.5703,2.5703,2.5703,2.5703,0.8865,1.0153,1.1381,1.3248,1.4924,1.616,1.6179,1.7984,1.9362,1.8335,1.8566,1.8744,1.81,1.8004,1.811,1.8415,1.8457,1.8347,1.801,1.7109,1.6258,1.5719,1.4829,1.435,1.4558,1.505,1.6196,1.8221,1.8094,1.8351,1.9315,1.9746,1.93,1.7887,1.8504,1.8668,1.8265,1.8213,1.8339,1.8648,1.8887,1.901,1.9028,2.0027,2.0457,2.0503,2.1372,2.1281,2.0567,2.1409,2.1262,2.0576,2.14,2.1729,2.1738,2.1729,2.0828,1.9829,2.1392,2.1517,2.1124,2.1917,2.219,2.2209,2.2218,2.281,2.3304,2.2457,2.2829,2.3474,2.3474,2.2857,2.2416,2.3262,2.2825,2.2195,2.2195,2.2862,2.346,2.3474,2.4148,2.4766,2.491,2.4295,2.3844,2.4034,2.3283,2.2677,2.2677,2.2706,2.2716,2.2716,2.2745,2.2745,2.2726,2.3607,2.4136,2.4071,2.5014,2.5545,2.5503,2.5633,2.5703,2.5703,2.5703,2.5703,2.5703,2.5703,2.5703,2.5703,2.5703,2.5703,0.8238,1.0159,1.1932,1.3033,1.426,1.5248,1.5668,1.6336,1.6835,1.6549,1.601,1.5479,1.5169,1.4751,1.4731,1.5597,1.5641,1.5727,1.6254,1.5628,1.4919,1.4289,1.3923,0.0,1.3819,1.4798,1.583,1.6786,1.7417,1.802,1.8576,1.9293,1.9425,1.8866,1.8899,1.9314,2.0176,1.9171,1.9035,1.9787,1.9807,1.9804,1.9831,2.0876,2.1354,2.1409,2.2244,2.2437,2.2172,2.2483,2.2428,2.2126,2.1886,2.1803,2.1867,2.24,2.1947,2.1131,2.1675,2.2075,2.2391,2.2809,2.3288,2.3749,2.3874,2.4124,2.4299,2.4011,2.4134,2.4365,2.4365,2.4056,2.3793,2.4089,2.3845,2.3524,2.3524,2.3764,2.4001,2.4132,2.4404,2.4682,2.4952,2.4782,2.4666,2.487,2.3697,2.2793,2.2793,2.2793,2.2793,2.2793,2.3321,2.3437,2.2851,2.411,2.4697,2.4139,2.4957,2.5463,2.5434,2.5559,2.5635,2.5635,2.5684,2.5703,2.5703,2.5703,2.5703,2.5703,2.5703,2.5703,0.8349,1.0038,1.1614,1.2746,1.3866,1.466,1.4542,1.4764,1.4808,1.4158,1.3315,1.2501,1.1971,1.1571,1.1564,1.2338,1.2535,1.3011,1.4256,1.3816,1.3533,1.3878,1.3623,1.3632,0.0,0.0,1.5702,1.6053,1.7307,1.7978,1.7891,1.9139,1.9479,1.8687,1.8817,1.9376,2.0382,1.9392,1.9401,2.0399,2.0442,2.0496,2.0634,2.1725,2.2226,2.2263,2.3079,2.3272,2.3033,2.3318,2.3263,2.2988,2.2749,2.2648,2.2712,2.3244,2.3098,2.2648,2.2648,2.2813,2.307,2.3488,2.3966,2.4428,2.4561,2.4584,2.4584,2.4584,2.4584,2.4584,2.4584,2.4495,2.4383,2.4383,2.4284,2.4199,2.4199,2.4199,2.4247,2.4357,2.4383,2.451,2.4868,2.503,2.5152,2.5283,2.438,2.3687,2.3687,2.3687,2.3687,2.3687,2.4187,2.4293,2.3735,2.4687,2.5082,2.4553,2.5082,2.5398,2.5395,2.5513,2.5581,2.5596,2.5644,2.5684,2.5703,2.5703,2.5703,2.5703,2.5703,2.5703,0.8941,0.9671,1.0376,1.2315,1.3589,1.4086,1.288,1.3289,1.3318,1.1383,1.0572,0.9818,0.0,0.0,0.8667,0.8866,0.9381,1.041,1.2226,1.1909,1.2314,0.0,0.0,0.0,0.0,0.0,0.0,1.6088,1.7582,1.8108,1.7319,1.9243,1.9474,1.7412,1.8407,1.8979,1.8979,1.9012,1.9503,2.0444,2.0789,2.1096,2.138,2.2538,2.307,2.3107,2.3869,2.3768,2.3125,2.3887,2.3749,2.3144,2.3905,2.4199,2.4199,2.4199,2.4199,2.4199,2.4199,2.3703,2.3199,2.3951,2.4199,2.4199,2.4199,2.4199,2.4199,2.4199,2.4199,2.4199,2.4199,2.4199,2.4199,2.4199,2.4199,2.4199,2.4199,2.4199,2.4199,2.4199,2.4218,2.4339,2.4721,2.508,2.5293,2.5293,2.5293,2.5293,2.5293,2.5293,2.5293,2.5293,2.5293,2.5293,2.5293,2.5293,2.5293,2.5293,2.5361,2.539,2.539,2.5466,2.5521,2.5594,2.5596,2.5635,2.5693,2.5703,2.5703,2.5703,2.5703,2.5703,0.8497,0.9258,1.0046,1.1077,1.1536,1.1534,1.058,1.1266,1.1642,0.9813,0.8244,0.6909,0.0,0.0,0.0,0.7331,0.8498,0.0,1.2201,1.2679,0.0,1.4682,0.0,1.477,1.5631,1.6049,0.0,1.6124,1.6488,1.6765,1.6841,1.8174,1.8655,1.7993,1.9349,2.0083,2.0083,2.0437,2.0738,2.1003,2.1546,2.183,2.1943,2.3282,2.3887,2.3905,2.4107,2.408,2.3914,2.4116,2.408,2.3914,2.4116,2.4199,2.4199,2.4199,2.4199,2.4199,2.4199,2.407,2.3933,2.4125,2.4199,2.4199,2.4199,2.4199,2.4199,2.4199,2.4199,2.4199,2.4199,2.4199,2.4199,2.4199,2.4199,2.4199,2.4199,2.4199,2.4199,2.4199,2.4436,2.4685,2.479,2.508,2.5293,2.5293,2.5293,2.5293,2.5293,2.5293,2.5293,2.5293,2.5293,2.5293,2.5293,2.5293,2.5293,2.5293,2.5312,2.5322,2.5322,2.539,2.5427,2.5454,2.5549,2.5605,2.5635,2.5684,2.5703,2.5703,2.5703,2.5703,0.9117,0.9563,0.9965,1.0614,1.0531,0.9893,0.8624,0.836,0.7958,0.6531,0.5046,0.3993,0.3938,0.396,0.4315,0.0,0.0,0.0,1.0714,1.1668,1.2839,0.0,1.5045,0.0,1.6316,1.6908,1.6985,1.6475,1.6706,1.671,1.6331,1.7318,1.7874,1.782,1.8799,1.954,2.0027,2.1114,2.1507,2.1212,2.2129,2.2574,2.2624,2.3717,2.4199,2.4199,2.4199,2.4199,2.4199,2.4199,2.4199,2.4199,2.4199,2.4199,2.4199,2.4199,2.4199,2.4199,2.4199,2.4199,2.4199,2.4199,2.4199,2.4199,2.4199,2.4199,2.4199,2.4199,2.4199,2.4199,2.4199,2.4199,2.4199,2.4199,2.4199,2.4199,2.4199,2.4199,2.4228,2.4312,2.4584,2.4823,2.4887,2.5117,2.5293,2.5293,2.5293,2.5293,2.5293,2.5293,2.5293,2.5293,2.5293,2.5293,2.5293,2.5293,2.5293,2.5293,2.5293,2.5293,2.5293,2.5361,2.5409,2.5438,2.5544,2.5609,2.5644,2.5684,2.5703,2.5703,2.5703,2.5703,0.9806,0.9855,0.9814,1.0368,0.9987,0.8911,0.701,0.5702,0.4437,0.2876,0.1884,0.1572,0.2464,0.283,0.3121,0.3602,0.0,0.6749,0.8819,1.0069,1.1764,1.4488,1.5287,1.6078,1.7294,1.782,1.7821,1.7188,1.7603,1.7286,1.5954,1.6949,1.7609,1.7718,1.8111,1.8742,1.9638,2.1418,2.198,2.1364,2.2609,2.3189,2.3212,2.3887,2.4199,2.4199,2.4199,2.4199,2.4199,2.4199,2.4199,2.4199,2.4199,2.4199,2.4199,2.4199,2.4199,2.4199,2.4199,2.4199,2.4199,2.4199,2.4199,2.4199,2.4199,2.4199,2.4199,2.4199,2.4199,2.4199,2.4199,2.4199,2.4199,2.4199,2.4199,2.4199,2.4199,2.4199,2.4256,2.4461,2.4654,2.4842,2.4974,2.5172,2.5293,2.5293,2.5293,2.5293,2.5293,2.5293,2.5293,2.5303,2.5303,2.5303,2.5303,2.5303,2.5303,2.5293,2.5293,2.5293,2.5303,2.5361,2.5418,2.5486,2.5543,2.5609,2.5672,2.5683,2.5693,2.5703,2.5703,2.5703,0.8254,0.8619,0.9008,0.911,0.9043,0.8224,0.5585,0.6553,0.0,0.0,0.1082,0.1513,0.2179,0.2881,0.3423,0.3517,0.4961,0.6781,0.8803,1.0273,1.2069,0.0,1.5325,1.6236,1.7807,1.8059,0.0,1.8362,1.7993,1.7282,1.6268,1.8021,1.9326,1.9947,2.0585,2.0932,2.0894,2.1834,2.2251,2.2116,2.2838,2.3189,2.3212,2.3887,2.4199,2.4199,2.4199,2.4199,2.4199,2.4199,2.4199,2.4199,2.4199,2.4199,2.4199,2.4199,2.4199,2.4199,2.4199,2.4199,2.4199,2.4199,2.4199,2.4199,2.4199,2.4199,2.4199,2.4199,2.4199,2.4199,2.4199,2.4199,2.4199,2.4199,2.4199,2.4199,2.4199,2.4199,2.4256,2.4461,2.4654,2.4842,2.4974,2.5172,2.5293,2.5293,2.5293,2.5293,2.5293,2.5293,2.5312,2.538,2.538,2.538,2.538,2.538,2.5361,2.5293,2.5293,2.5312,2.538,2.5332,2.535,2.5423,2.543,2.5473,2.5529,2.5588,2.5654,2.5703,2.5703,2.5703,0.7765,0.805,0.8156,0.7723,0.7796,0.7247,0.4642,0.0,0.0,0.0,0.0408,0.0994,0.2238,0.3028,0.0,0.3725,0.4963,0.6549,0.8458,0.9776,1.1389,1.371,1.4932,1.5972,1.7094,1.7767,1.8026,1.779,1.778,1.743,1.656,1.7791,1.878,1.9399,2.0616,2.1147,2.0827,2.1963,2.2312,2.1961,2.2973,2.3468,2.3468,2.3967,2.4199,2.4199,2.4199,2.4199,2.4199,2.4199,2.4199,2.4199,2.4199,2.4199,2.4199,2.4199,2.4199,2.4199,2.4199,2.4199,2.4199,2.4199,2.4199,2.4199,2.4199,2.4199,2.4199,2.4199,2.4199,2.4199,2.4199,2.4199,2.4199,2.4199,2.4199,2.4199,2.4199,2.4284,2.4428,2.4617,2.479,2.4956,2.513,2.5234,2.5293,2.5293,2.5293,2.5293,2.5293,2.5293,2.5303,2.5332,2.538,2.539,2.5341,2.538,2.537,2.5293,2.5293,2.5322,2.5399,2.54,2.542,2.5458,2.5497,2.5522,2.5551,2.5581,2.5635,2.5703,2.5703,2.5703,0.6986,0.745,0.7506,0.6804,0.6784,0.6373,0.4054,0.216,0.0,0.0135,0.03,0.1032,0.2547,0.3185,0.3563,0.0,0.4727,0.5998,0.7657,0.8912,1.0477,0.0,1.4387,0.0,1.667,1.7552,0.0,1.7524,1.7786,1.7811,1.744,1.783,1.8385,1.8995,2.0474,2.1065,2.0655,2.1994,2.24,2.1853,2.3106,2.3692,2.3714,2.4045,2.4199,2.4199,2.4199,2.4199,2.4199,2.4199,2.4199,2.4199,2.4199,2.4199,2.4199,2.4199,2.4199,2.4199,2.4199,2.4199,2.4199,2.4199,2.4199,2.4199,2.4199,2.4199,2.4199,2.4199,2.4199,2.4199,2.4199,2.4199,2.4199,2.4199,2.4199,2.4199,2.4199,2.4312,2.4512,2.476,2.4887,2.503,2.5264,2.5293,2.5293,2.5293,2.5293,2.5293,2.5293,2.5293,2.5293,2.5293,2.537,2.5399,2.5341,2.5399,2.5409,2.5341,2.5322,2.5341,2.5418,2.5435,2.5459,2.5476,2.5534,2.5563,2.5563,2.5566,2.5608,2.5684,2.5684,2.5693,0.4754,0.6348,0.7506,0.6804,0.6629,0.6091,0.3966,0.0,0.2017,0.0338,0.1305,0.2582,0.3065,0.3333,0.3462,0.0,0.0,0.4927,0.6133,0.7687,0.9753,1.2485,0.0,0.0,1.776,1.8052,1.8486,1.9352,1.8662,1.861,1.9636,1.9488,1.9822,2.0908,2.1751,2.1846,2.115,2.2168,2.266,2.2617,2.3356,2.3692,2.3714,2.4045,2.4199,2.4199,2.4199,2.4199,2.4199,2.4199,2.4199,2.4199,2.4199,2.4199,2.4199,2.4199,2.4199,2.4199,2.4199,2.4199,2.4199,2.4199,2.4199,2.4199,2.4199,2.4199,2.4199,2.4199,2.4199,2.4199,2.4199,2.4199,2.4199,2.4199,2.4199,2.4199,2.4199,2.4209,2.4348,2.4731,2.4809,2.491,2.5243,2.5293,2.5293,2.5293,2.5293,2.5293,2.5293,2.5293,2.5293,2.5293,2.5409,2.5495,2.5486,2.5543,2.5553,2.5495,2.5418,2.5418,2.5495,2.538,2.5351,2.5409,2.5418,2.5418,2.5418,2.5485,2.5543,2.5605,2.5605,2.5644,0.423,0.5473,0.6166,0.5364,0.5902,0.5922,0.3395,0.0,0.3759,0.1976,0.2744,0.3623,0.3302,0.3753,0.4216,0.0,0.0,0.0,0.6533,0.7591,0.9138,1.153,1.3342,1.5209,0.0,0.0,1.9234,1.9847,1.8314,1.8028,1.9621,1.9085,1.9475,2.1104,2.1336,2.1681,2.2108,2.2505,2.2695,2.2721,2.3174,2.3392,2.3414,2.3744,2.3633,2.3215,2.3912,2.3933,2.352,2.3997,2.4199,2.4199,2.4199,2.4199,2.4199,2.4199,2.4199,2.4199,2.4199,2.4199,2.4199,2.4199,2.4199,2.4199,2.4199,2.4199,2.4199,2.4199,2.4199,2.4199,2.4199,2.4199,2.4199,2.4199,2.4199,2.4199,2.4199,2.4312,2.4461,2.4746,2.4869,2.4993,2.5253,2.5293,2.5293,2.5293,2.5293,2.5293,2.5293,2.5293,2.5293,2.5293,2.5418,2.5486,2.5438,2.5534,2.5571,2.5499,2.5473,2.549,2.5563,2.5515,2.5476,2.5466,2.5466,2.5437,2.5405,2.5427,2.547,2.5553,2.6119,2.6123,0.3988,0.4725,0.4952,0.4237,0.5054,0.5383,0.0,0.0,0.4354,0.3165,0.3742,0.4288,0.3784,0.4389,0.5029,0.0,0.0,0.5883,0.6661,0.7566,0.8751,1.0446,0.0,1.4561,1.6626,1.844,1.9477,1.9458,1.8098,1.7896,1.9434,1.8867,1.937,2.1191,2.1378,2.1884,2.2839,2.2947,2.2996,2.2996,2.3346,2.3374,2.315,2.338,2.3017,2.2224,2.3123,2.3253,2.2931,2.3593,2.3988,2.4181,2.3942,2.3988,2.4171,2.3933,2.3997,2.4199,2.4199,2.4199,2.4199,2.4199,2.4199,2.4199,2.4199,2.4199,2.4199,2.4199,2.4199,2.4199,2.4199,2.4199,2.4199,2.4199,2.4199,2.4199,2.4199,2.4366,2.4552,2.476,2.4917,2.5067,2.5264,2.5293,2.5293,2.5293,2.5293,2.5293,2.5293,2.5293,2.5293,2.5293,2.5418,2.5476,2.5432,2.5535,2.5592,2.5561,2.5538,2.5556,2.5599,2.5579,2.5546,2.5498,2.5524,2.5494,2.5401,2.5427,2.5438,2.5495,2.6145,2.614,0.3838,0.4106,0.4153,0.3887,0.4278,0.4301,0.0,0.281,0.3275,0.3445,0.4081,0.4607,0.4596,0.5234,0.571,0.5438,0.0,0.0,0.6029,0.7453,0.8695,0.0,1.1405,1.3623,1.5705,1.7898,1.8915,1.8269,1.8262,1.8646,1.9458,1.9369,1.9996,2.1559,2.2296,2.2864,2.3189,2.3513,2.3692,2.3692,2.4025,2.3758,2.2997,2.3006,2.2429,2.1432,2.1688,2.2127,2.2636,2.2904,2.3483,2.4116,2.3327,2.3501,2.4098,2.3318,2.352,2.4199,2.4199,2.4199,2.4199,2.4199,2.4199,2.4199,2.4199,2.4199,2.4199,2.4199,2.4199,2.4199,2.4199,2.4199,2.4199,2.4199,2.4199,2.4199,2.4199,2.4366,2.4552,2.476,2.4917,2.5067,2.5264,2.5293,2.5293,2.5293,2.5293,2.5293,2.5293,2.5293,2.5293,2.5293,2.5418,2.5499,2.5498,2.5562,2.5635,2.5693,2.5644,2.5596,2.5596,2.5535,2.5498,2.5498,2.5572,2.5524,2.5399,2.5466,2.5476,2.5399,2.5409,2.5455,0.3291,0.3566,0.382,0.3914,0.3752,0.3387,0.2577,0.2934,0.3382,0.3258,0.4034,0.4797,0.4991,0.5469,0.5933,0.6131,0.6279,0.0,0.0,0.0,0.0,1.0612,1.4135,1.7079,1.8735,1.9358,1.99,2.0471,1.9411,1.9125,2.005,1.9418,2.005,2.2279,2.2046,2.2031,2.2373,2.2805,2.2588,2.174,2.237,2.2278,2.15,2.1736,2.135,2.0571,2.1415,2.1897,2.2054,2.2144,2.2648,2.3355,2.3107,2.2822,2.2657,2.3511,2.363,2.3465,2.4006,2.4199,2.4199,2.4199,2.4199,2.4199,2.4199,2.4199,2.4199,2.4199,2.4199,2.4199,2.4199,2.4199,2.4199,2.4199,2.4199,2.4247,2.4384,2.4453,2.4591,2.4881,2.4974,2.5067,2.5264,2.5293,2.5293,2.5293,2.5293,2.5293,2.5293,2.5293,2.5312,2.5361,2.5409,2.5447,2.5498,2.5603,2.5684,2.5703,2.5684,2.5674,2.5674,2.565,2.5616,2.5567,2.5589,2.5526,2.5401,2.6025,2.6621,2.7152,2.5948,2.5755,0.0,0.3146,0.3267,0.3301,0.3013,0.0,0.2438,0.2984,0.3498,0.3501,0.4632,0.564,0.5644,0.639,0.7036,0.7148,0.7168,0.0,0.0,0.0,0.0,1.1694,1.4829,1.7277,1.8477,1.917,1.9833,2.053,1.963,1.9444,2.0364,1.9636,2.005,2.1932,2.1531,2.152,2.2033,2.2255,2.1901,2.1022,2.1634,2.1496,2.0707,2.098,2.0589,1.9732,2.0604,2.1232,0.0,2.1393,2.1978,2.2951,2.2291,2.1951,2.1885,2.2556,2.2896,2.3079,2.3575,2.3951,2.4144,2.385,2.3749,2.3804,2.4107,2.4199,2.4199,2.4199,2.4199,2.4218,2.4284,2.4312,2.4312,2.4312,2.4312,2.4348,2.4478,2.4552,2.4697,2.494,2.5067,2.5152,2.5283,2.5293,2.5293,2.5293,2.5293,2.5293,2.5293,2.5293,2.5312,2.5361,2.5388,2.5423,2.5462,2.5583,2.5673,2.5703,2.5703,2.5703,2.5703,2.5681,2.5638,2.5599,2.5576,2.5512,2.5395,2.5919,2.6458,2.6959,2.5871,2.5678,0.0,0.2835,0.2558,0.2234,0.2073,0.0,0.2337,0.2974,0.0,0.4102,0.5624,0.6769,0.6506,0.7716,0.8639,0.8333,0.8311,0.0,0.0,0.8931,0.0,0.0,1.3953,1.5072,1.5757,1.77,1.8944,1.8944,1.9151,1.9592,2.0301,1.9873,1.995,2.0739,2.0767,2.1143,2.1954,2.1842,2.1588,2.1242,2.1551,2.1244,2.0427,2.0606,2.0083,1.9078,1.9483,2.0314,2.1306,2.0738,2.1447,2.2767,2.119,2.1088,2.1729,2.1024,2.1704,2.3015,2.3079,2.3547,2.3988,2.3244,2.2988,2.3162,2.396,2.4199,2.4199,2.4199,2.4199,2.4247,2.4453,2.4495,2.4502,2.4528,2.4519,2.4519,2.4526,2.4676,2.4855,2.4986,2.5163,2.5293,2.5293,2.5293,2.5293,2.5293,2.5293,2.5293,2.5293,2.5293,2.5293,2.5303,2.536,2.5395,2.5405,2.5535,2.5628,2.5693,2.5703,2.5703,2.5703,2.5635,2.5601,2.5601,2.5528,2.5518,2.5572,2.5457,2.5418,2.5476,2.5418,2.536,0.3194,0.0,0.1934,0.1586,0.1915,0.2329,0.0,0.0,0.3647,0.0,0.0,0.0,0.6902,0.7603,0.8074,0.821,0.0,0.864,0.869,1.0222,0.0,1.2521,1.4502,1.5865,1.6095,1.804,1.929,1.929,1.9085,1.9247,1.9837,1.9023,1.9084,2.0229,1.974,1.9811,2.0564,2.113,2.088,1.9804,2.0468,2.0381,1.9574,1.9635,1.9579,1.9493,2.0053,2.0532,2.0927,2.0616,2.1134,2.2033,2.1648,2.1611,2.1931,2.2951,2.3199,2.3098,2.3703,2.3639,2.3254,2.307,2.2988,2.3162,2.396,2.4199,2.4199,2.4199,2.4199,2.4247,2.4453,2.4495,2.4536,2.4685,2.4731,2.4766,2.4858,2.4924,2.5008,2.5183,2.5264,2.5293,2.5293,2.5293,2.5293,2.5293,2.5293,2.5293,2.5293,2.5293,2.5312,2.537,2.5389,2.5417,2.5465,2.5547,2.5613,2.5615,2.5674,2.5703,2.5703,2.568,2.5649,2.5601,2.5475,2.6063,2.7388,2.6649,2.664,2.7265,2.6611,2.5947,0.3062,0.262,0.223,0.188,0.2113,0.2471,0.0,0.0,0.0,0.0,0.0,0.0,0.0,0.0,0.0,0.0,0.9221,0.0,0.0,0.0,1.1429,1.2725,1.4288,1.5521,1.6173,1.788,1.9014,1.921,1.9295,1.957,2.0047,1.9357,1.9255,1.993,1.9573,1.9543,1.9903,2.0219,1.997,1.9175,1.9701,1.9721,1.9323,1.9782,1.9799,1.9517,2.0301,2.0689,2.0759,2.0175,2.051,2.1293,2.0834,2.0877,2.1262,2.1767,2.2162,2.251,2.2942,2.2804,2.251,2.2887,2.2474,2.2071,2.3281,2.3391,2.3244,2.3988,2.4199,2.4247,2.4453,2.4568,2.4679,2.4766,2.4842,2.4907,2.4977,2.5001,2.5055,2.5264,2.5293,2.5293,2.5293,2.5293,2.5293,2.5293,2.5293,2.5293,2.5293,2.5293,2.5303,2.5341,2.5341,2.537,2.5409,2.5467,2.5535,2.5595,2.5635,2.5674,2.5703,2.5664,2.5613,2.5505,2.5409,2.6014,2.737,2.6447,2.6447,2.7274,2.6409,2.5755,0.2891,0.2864,0.291,0.2539,0.2517,0.2705,0.0,0.0,0.0,0.0,0.0,0.0,0.0,0.8641,0.0,0.0,0.0,0.0,1.036,1.0416,1.1021,1.272,1.382,1.4906,1.6044,1.7489,1.8528,1.8871,1.9425,1.9908,2.0315,1.9841,1.9578,1.9601,1.9601,1.9569,1.9521,1.9394,1.9252,1.9093,1.9236,1.9305,1.9332,2.0218,2.0153,1.9396,2.0381,2.0727,2.0555,1.9834,2.003,2.0713,1.9882,2.0047,2.0643,1.996,2.0597,2.1784,2.1656,2.1593,2.1703,2.2409,2.1658,2.0787,2.2354,2.2336,2.2087,2.3446,2.3914,2.409,2.4425,2.4632,2.4775,2.4823,2.4917,2.501,2.5034,2.5055,2.5099,2.5264,2.5293,2.5293,2.5293,2.5293,2.5293,2.5293,2.5293,2.5293,2.5293,2.5293,2.5293,2.5293,2.5293,2.5293,2.5293,2.5341,2.5437,2.5562,2.5594,2.5635,2.5703,2.5636,2.5528,2.5418,2.5332,2.5726,2.6601,2.5861,2.588,2.6582,2.5842,2.5428,0.3132,0.3214,0.3287,0.2773,0.2995,0.3365,0.0,0.0,0.0,0.0,0.0,0.0,0.0,0.9035,0.9515,0.0,0.0,1.1389,1.1324,1.2381,1.2784,1.1727,1.3755,1.5278,1.5426,1.7148,1.8291,1.8482,1.8798,1.9139,1.955,1.8851,1.8513,1.8691,1.87,1.8692,1.8675,1.9266,1.955,1.9508,1.9374,1.9305,1.9314,1.9643,1.969,1.9601,2.0434,2.0411,1.9824,2.0345,2.0666,2.0797,2.0753,2.1157,2.1748,2.1634,2.1687,2.1684,2.096,2.0695,2.0714,2.0833,2.0704,2.0686,2.1675,2.1904,2.1858,2.2106,2.2657,2.3391,2.4267,2.4519,2.4614,2.4898,2.4986,2.5055,2.5214,2.5244,2.5264,2.5293,2.5293,2.5293,2.5293,2.5293,2.5293,2.5293,2.5293,2.5293,2.5293,2.5293,2.5293,2.5293,2.5293,2.5293,2.5293,2.5303,2.5351,2.5432,2.5538,2.5635,2.5703,2.5577,2.5509,2.5486,2.5361,2.5726,2.6601,2.6476,2.6476,2.6601,2.6467,2.6015,0.3075,0.3199,0.3266,0.3156,0.3423,0.3827,0.4232,0.0,0.0,0.0,0.0,0.0,0.0,0.0,0.9033,0.9495,0.0,1.1194,1.1138,1.1528,1.193,1.2098,1.3814,1.5344,1.6233,1.7599,1.8532,1.8811,1.8538,1.8544,1.8948,1.8273,1.7923,1.8013,1.8088,1.8105,1.8077,1.8374,1.8921,1.971,1.9615,1.9567,1.9585,2.0122,2.012,1.9757,2.056,2.0448,1.9726,2.0024,2.02,2.026,2.0247,2.0731,2.1447,2.1389,2.1232,2.1042,2.0631,2.0225,1.9849,1.9849,1.9565,1.9363,2.0198,2.0453,2.0645,2.1555,2.2061,2.2564,2.3462,2.3769,2.4001,2.4589,2.4872,2.5022,2.512,2.5224,2.5293,2.5293,2.5293,2.5293,2.5293,2.5293,2.5293,2.5293,2.5293,2.5293,2.5293,2.5293,2.5293,2.5293,2.5293,2.5293,2.5293,2.5293,2.5332,2.5457,2.5551,2.5635,2.5703,2.5606,2.5537,2.5505,2.5399,2.5774,2.6601,2.613,2.614,2.6592,2.612,2.5678,0.2942,0.3087,0.3245,0.3439,0.0,0.4195,0.495,0.0,0.0,0.0,0.0,0.0,0.0,0.8174,0.0,1.0145,1.0673,1.0914,1.1004,1.1139,1.1668,1.2855,1.3998,1.526,1.6683,1.759,1.8253,1.859,1.8166,1.8046,1.8387,1.7748,1.7364,1.7368,1.7468,1.7488,1.7441,1.7579,1.8286,1.9561,1.953,1.9622,1.9818,2.0465,2.0408,1.9837,2.0486,2.0399,1.98,1.9713,1.9747,1.9788,1.9723,2.0111,2.0681,2.0371,2.0299,2.0286,1.9847,1.9433,1.9052,1.8809,1.8454,1.8216,1.8831,1.9143,1.958,2.0857,2.1215,2.1446,2.2464,2.2973,2.3356,2.3806,2.4275,2.4616,2.4645,2.4812,2.5004,2.5186,2.5264,2.5293,2.5293,2.5293,2.5293,2.5293,2.5293,2.5293,2.5293,2.5293,2.5293,2.5293,2.5293,2.5293,2.5293,2.5293,2.5341,2.5476,2.5536,2.5613,2.5674,2.5635,2.5566,2.55,2.5428,2.5707,2.6294,2.563,2.5639,2.6284,2.5601,2.5293,0.2793,0.3051,0.3485,0.3506,0.0,0.0,0.5274,0.0,0.0,0.0,0.0,0.0,0.0,0.8397,0.8248,1.0101,1.0825,1.1289,1.1585,1.317,1.4098,1.3594,1.443,1.5234,1.5662,1.6279,1.6712,1.6868,1.7351,1.7697,1.7851,1.7103,1.6672,1.6666,1.6676,1.6677,1.6678,1.741,1.8147,1.8869,1.8753,1.9079,1.9811,1.999,1.997,1.9811,1.999,1.997,1.9811,1.9923,1.9902,1.9811,1.9933,1.9939,1.979,1.8973,1.9169,1.9609,1.7932,1.7839,1.8304,1.738,1.7532,1.8115,1.817,1.8711,1.9332,1.9461,1.9488,1.9856,2.1481,2.2455,2.2876,2.2309,2.2818,2.345,2.3573,2.3764,2.4129,2.4879,2.5163,2.5293,2.5293,2.5293,2.5293,2.5293,2.5293,2.5293,2.5293,2.5293,2.5293,2.5293,2.5293,2.5293,2.5293,2.5293,2.5322,2.5399,2.5473,2.5535,2.5596,2.5596,2.5566,2.5498,2.5439,2.5409,2.5389,2.5322,2.5322,2.5389,2.5322,2.5293,0.2795,0.325,0.3681,0.3435,0.0,0.0,0.0,0.0,0.0,0.0,0.0,0.0,0.0,0.0,0.8985,0.978,1.0742,1.1461,1.1674,1.2806,1.3606,1.3604,1.4605,1.5434,1.5815,1.6578,1.708,1.7137,1.6888,1.6506,1.602,1.5836,1.5479,1.4941,1.5527,1.583,1.5785,1.6128,1.6689,1.7441,1.7891,1.8255,1.8562,1.8573,1.8841,1.9315,1.9358,1.9295,1.9219,1.9764,1.9678,1.9191,1.9331,1.8961,1.8326,1.7994,1.8029,1.8142,1.7466,1.7109,1.6893,1.6427,1.6479,1.6808,1.7229,1.7922,1.8656,1.9152,1.9305,1.9555,2.0703,2.1226,2.1518,2.1802,2.2197,2.265,2.3249,2.3507,2.3891,2.4815,2.5067,2.5152,2.5283,2.5293,2.5293,2.5293,2.5293,2.5293,2.5293,2.5293,2.5293,2.5293,2.5293,2.5293,2.5293,2.5293,2.5303,2.5332,2.5395,2.5473,2.5535,2.5538,2.5512,2.5443,2.5408,2.537,2.5293,2.5293,2.5293,2.5293,2.5293,2.5293,0.2668,0.3309,0.3838,0.0,0.0,0.0,0.0,0.0,0.0,0.0,0.0,0.0,0.0,0.0,0.0,0.9718,1.0733,1.149,1.1589,1.2673,1.3537,1.382,1.4338,1.4888,1.5449,1.5673,1.5882,1.609,1.5522,1.4855,1.415,1.4341,1.4303,1.3946,1.4616,1.5104,1.5327,1.5383,1.5536,1.5815,1.6656,1.7308,1.7807,1.7753,1.8061,1.8621,1.8626,1.857,1.8523,1.9084,1.8942,1.8401,1.8495,1.8107,1.7478,1.7254,1.7288,1.734,1.6772,1.6394,1.6101,1.5713,1.5755,1.6097,1.6805,1.7566,1.8333,1.9158,1.9359,1.9433,2.0065,2.0358,2.0585,2.0923,2.1265,2.1764,2.2646,2.2974,2.3479,2.4702,2.502,2.5141,2.5283,2.5293,2.5293,2.5293,2.5293,2.5293,2.5293,2.5293,2.5293,2.5293,2.5293,2.5293,2.5293,2.5293,2.5293,2.5293,2.5332,2.5396,2.5473,2.5489,2.5476,2.5399,2.5399,2.537,2.5293,2.5293,2.5293,2.5293,2.5293,2.5293,0.2362,0.3133,0.3907,0.0,0.0,0.0,0.0,0.0,0.0,0.0,0.0,1.1102,1.2111,1.0338,0.0,1.0059,1.089,1.1418,1.1415,1.3148,1.44,1.44,1.3642,1.3441,1.4307,1.3126,1.2581,1.3238,1.3039,1.2742,1.2398,1.2715,1.3232,1.3965,1.4053,1.4512,1.5371,1.5381,1.4935,1.4104,1.4956,1.6205,1.7767,1.777,1.7779,1.7789,1.779,1.7788,1.7796,1.7785,1.7665,1.7488,1.7488,1.7488,1.7401,1.6732,1.6984,1.742,1.5623,1.5567,1.6135,1.5202,1.5442,1.6234,1.7045,1.7755,1.8471,1.935,1.9462,1.935,1.9541,2.0043,2.029,1.9497,1.9904,2.073,2.161,2.2062,2.2801,2.4474,2.507,2.5303,2.5293,2.5293,2.5293,2.5293,2.5293,2.5293,2.5293,2.5293,2.5293,2.5293,2.5293,2.5293,2.5293,2.5293,2.5293,2.5293,2.5293,2.5322,2.5399,2.5466,2.5476,2.5399,2.5399,2.537,2.5293,2.5293,2.5293,2.5293,2.5293,2.5293,0.2345,0.3197,0.0,0.0,0.0,0.0,0.0,0.0,0.0,0.0,1.0232,1.0777,1.165,1.1261,0.0,1.1647,1.2299,1.277,1.2855,1.3766,1.4401,1.4401,1.439,1.4168,1.367,1.3457,1.3114,1.2575,1.2446,1.2093,1.1377,1.2517,1.3004,1.261,1.3299,1.3799,1.4065,1.3644,1.3301,1.3046,1.3311,1.4054,1.5216,1.5783,1.6382,1.6959,1.6961,1.6958,1.6958,1.6962,1.6888,1.6797,1.6797,1.6421,1.5862,1.5664,1.5743,1.5862,1.5328,1.5312,1.5456,1.5095,1.5133,1.5573,1.6895,1.7439,1.7905,1.9343,1.9701,1.9667,1.9726,1.987,1.9954,1.971,1.9832,2.0403,2.1845,2.2233,2.2823,2.4597,2.502,2.5131,2.5283,2.5293,2.5293,2.5293,2.5293,2.5293,2.5293,2.5293,2.5293,2.5293,2.5293,2.5293,2.5293,2.5293,2.5293,2.5293,2.5293,2.5303,2.5322,2.5341,2.5341,2.5322,2.5322,2.5312,2.5293,2.5293,2.5293,2.5293,2.5293,2.5293,0.1902,0.2815,0.0,0.0,0.0,0.4548,0.4137,0.0,0.0,0.0,0.0,1.0046,1.0962,1.0662,1.0474,1.1067,1.1504,1.1777,1.186,1.2555,1.3052,1.3052,1.2916,1.2723,1.2421,1.1967,1.1532,1.1121,1.087,1.05,0.9972,1.0989,1.1553,1.1493,1.212,1.2628,1.2985,1.268,1.235,1.2014,1.2413,1.2738,1.3017,1.3876,1.4745,1.5586,1.5958,1.6117,1.6123,1.6123,1.6079,1.6019,1.6015,1.5699,1.5243,1.5243,1.5224,1.5199,1.5199,1.5199,1.5193,1.5111,1.5082,1.5317,1.6602,1.7168,1.7653,1.9016,1.959,1.9802,1.9869,1.988,1.9869,1.9802,1.98,2.0158,2.1494,2.2114,2.2844,2.4253,2.4857,2.5163,2.5283,2.5293,2.5293,2.5293,2.5293,2.5293,2.5293,2.5293,2.5293,2.5293,2.5293,2.5293,2.5293,2.5293,2.5293,2.5293,2.5293,2.5293,2.5293,2.5293,2.5293,2.5293,2.5293,2.5293,2.5293,2.5293,2.5293,2.5293,2.5293,2.5293,0.1179,0.0,0.0,0.0,0.3148,0.0,0.2958,0.4841,0.7226,0.9126,0.0,0.8848,0.9855,0.9016,0.8418,0.9186,0.9442,0.9546,0.9546,1.0396,1.0995,1.0995,1.0303,1.0096,1.0785,0.9479,0.8761,0.9188,0.8701,0.8394,0.8363,0.8736,0.9433,1.0474,1.0678,1.1152,1.1908,1.2055,1.1711,1.0907,1.185,1.1903,1.1188,1.2218,1.3172,1.4053,1.499,1.54,1.54,1.54,1.5364,1.5309,1.5313,1.5316,1.5299,1.5297,1.5263,1.5209,1.5209,1.5209,1.5199,1.5199,1.5199,1.5359,1.6244,1.6982,1.7696,1.8572,1.9305,1.9878,2.0002,2.0022,1.9993,1.9869,1.9902,2.0167,2.0892,2.1872,2.2857,2.3677,2.4568,2.5207,2.5284,2.5293,2.5293,2.5293,2.5293,2.5293,2.5293,2.5293,2.5293,2.5293,2.5293,2.5293,2.5293,2.5293,2.5293,2.5293,2.5293,2.5293,2.5293,2.5293,2.5293,2.5293,2.5293,2.5293,2.5293,2.5293,2.5293,2.5293,2.5293,2.5293,0.0,0.0836,0.0,0.0,0.0017,0.0191,0.2141,0.1509,0.1382,0.4443,0.5844,0.6672,0.7164,0.8067,0.8876,0.9311,1.0102,1.0656,1.0656,1.0841,1.0997,1.0997,1.0836,1.0462,0.9812,0.9412,0.8819,0.7901,0.7717,0.7548,0.733,0.8147,0.872,0.8957,0.9561,0.9842,0.9765,0.9892,0.9771,0.9373,0.9798,1.0021,1.0102,1.1828,1.3129,1.4053,1.499,1.54,1.54,1.54,1.539,1.5378,1.5382,1.5348,1.5299,1.5298,1.5291,1.5282,1.5282,1.5243,1.5199,1.5199,1.5199,1.5359,1.6244,1.7038,1.7841,1.8705,1.9553,2.0198,2.0233,2.0241,2.0233,2.0198,2.0669,2.1185,2.1358,2.2115,2.3007,2.3871,2.4216,2.4553,2.5187,2.5293,2.5293,2.5293,2.5293,2.5293,2.5293,2.5293,2.5293,2.5293,2.5293,2.5293,2.5293,2.5293,2.5293,2.5293,2.5293,2.5293,2.5293,2.5293,2.5293,2.5293,2.5293,2.5293,2.5293,2.5293,2.5293,2.5293,2.5293,2.5293,0.0,0.0,0.0,-0.1921,0.0,-0.1624,-0.1536,-0.1511,-0.1164,0.0014,0.2095,0.3756,0.3923,0.5191,0.6277,0.6451,0.6951,0.7307,0.732,0.7306,0.7307,0.732,0.7319,0.7098,0.6538,0.6484,0.6199,0.5488,0.5432,0.5461,0.5506,0.6507,0.7093,0.715,0.8064,0.8562,0.8576,0.8522,0.8566,0.8707,0.8716,0.9133,0.9951,1.174,1.3064,1.3997,1.4939,1.5367,1.54,1.54,1.54,1.54,1.54,1.5378,1.5353,1.535,1.5327,1.5294,1.5299,1.5263,1.5199,1.5199,1.5199,1.5276,1.5743,1.6455,1.7301,1.8145,1.9011,1.9773,2.0196,2.0302,2.0302,2.0302,2.0619,2.0937,2.0937,2.1591,2.2437,2.3311,2.3812,2.436,2.5159,2.5293,2.5293,2.5293,2.5293,2.5293,2.5293,2.5293,2.5293,2.5293,2.5293,2.5293,2.5293,2.5293,2.5293,2.5293,2.5322,2.5322,2.5293,2.5322,2.5322,2.5293,2.5322,2.5341,2.5341,2.538,2.5399,2.5399,2.5399,2.5399,0.0,0.0,0.0,-0.4352,-0.3596,0.0,-0.5951,-0.4544,-0.3031,-0.4101,-0.1758,0.053,0.0608,0.169,0.2622,0.2786,0.2959,0.3048,0.2977,0.3024,0.2989,0.2766,0.2812,0.2853,0.2853,0.2853,0.2905,0.3017,0.3017,0.3211,0.3659,0.4555,0.5176,0.5433,0.647,0.7218,0.7641,0.7546,0.7753,0.8249,0.8144,0.8865,1.0324,1.1698,1.2887,1.3919,1.488,1.5329,1.5383,1.5378,1.539,1.54,1.54,1.54,1.54,1.54,1.5358,1.5316,1.5317,1.5272,1.5224,1.5224,1.5224,1.5224,1.5224,1.582,1.6635,1.7308,1.8222,1.9174,1.9888,2.0196,2.0302,2.0302,2.0312,2.035,2.0485,2.1148,2.1975,2.286,2.3725,2.4514,2.5187,2.5303,2.5303,2.5293,2.5312,2.5322,2.5293,2.5303,2.5303,2.5293,2.5303,2.5312,2.5312,2.5322,2.5322,2.5322,2.539,2.539,2.534,2.539,2.539,2.5332,2.537,2.539,2.5399,2.5466,2.5486,2.5503,2.5503,2.5503,0.0,0.0,0.0,0.0,-0.7248,-0.7556,0.0,0.0,-0.731,0.0,-0.5006,-0.2559,-0.2157,-0.1128,-0.0102,0.0672,0.1564,0.2057,0.1709,0.1953,0.1764,0.0668,0.0843,0.1043,0.1043,0.1043,0.129,0.1869,0.1917,0.2173,0.2746,0.3066,0.3593,0.4384,0.5116,0.5717,0.6177,0.6784,0.7123,0.7205,0.7814,0.9114,1.098,1.1438,1.2398,1.3793,1.4843,1.5312,1.5308,1.531,1.5347,1.54,1.54,1.54,1.54,1.54,1.539,1.5393,1.5391,1.5339,1.5291,1.5291,1.5291,1.5291,1.5291,1.5852,1.6518,1.6625,1.7789,1.903,1.9136,1.9725,2.0302,2.0302,2.034,2.0562,2.1206,2.2023,2.2879,2.3764,2.4582,2.5168,2.5274,2.5341,2.537,2.5303,2.5399,2.5428,2.5303,2.5341,2.5361,2.5303,2.5341,2.539,2.539,2.5438,2.5476,2.5476,2.5486,2.5481,2.5467,2.5479,2.5486,2.5476,2.537,2.5332,2.5399,2.5409,2.544,2.5502,2.5502,2.5502,-0.5011,0.0,-0.7495,0.0,-0.6206,-0.8971,-0.9091,0.0,-0.8347,-0.8032,-0.6733,-0.5328,-0.4259,-0.284,-0.1806,-0.1641,-0.1229,-0.1068,-0.1514,-0.1417,-0.1508,-0.2084,-0.1981,-0.1875,-0.1875,-0.1677,-0.1416,-0.1123,-0.0866,-0.0596,-0.0335,0.0844,0.1601,0.1835,0.3198,0.4352,0.5268,0.5376,0.5803,0.6559,0.7119,0.8342,1.0183,1.1005,1.2482,1.4392,1.4904,1.5201,1.5297,1.5304,1.5319,1.5339,1.5342,1.5375,1.54,1.54,1.54,1.54,1.5403,1.5355,1.5301,1.5301,1.5301,1.5301,1.5301,1.5545,1.5935,1.6416,1.7067,1.7822,1.8797,1.9314,1.9696,2.0235,2.035,2.0573,2.1426,2.191,2.2573,2.3898,2.4812,2.5332,2.5303,2.5312,2.5341,2.5341,2.5409,2.5437,2.5406,2.5444,2.5438,2.5418,2.5438,2.5465,2.5461,2.5485,2.5505,2.5505,2.5541,2.5537,2.5493,2.5534,2.5542,2.5498,2.5436,2.5457,2.5505,2.5511,2.5554,2.5607,2.5607,2.5607,0.0,0.0,-0.712,-0.3434,-0.4854,-0.7484,0.0,0.0,-0.862,-0.8169,-0.7798,-0.7201,-0.6047,-0.4608,-0.3615,-0.3702,-0.3704,-0.3877,-0.4332,-0.4301,-0.4362,-0.4691,-0.4633,-0.4566,-0.4566,-0.4285,-0.397,-0.3623,-0.328,-0.2951,-0.2615,-0.1182,-0.0349,-0.0333,0.1283,0.2721,0.39,0.4104,0.4839,0.613,0.6477,0.755,0.9238,1.0289,1.1958,1.4073,1.472,1.497,1.4947,1.518,1.5282,1.5303,1.5301,1.5328,1.5366,1.5366,1.5389,1.54,1.54,1.5365,1.5331,1.5331,1.5331,1.5331,1.5331,1.5333,1.5458,1.6087,1.6387,1.6815,1.8109,1.8729,1.9198,1.99,2.0207,2.0656,2.1793,2.2187,2.2771,2.4234,2.5013,2.5409,2.5361,2.5361,2.539,2.5418,2.5451,2.5479,2.5503,2.5515,2.5526,2.5499,2.5524,2.5531,2.5528,2.5541,2.5554,2.5554,2.5595,2.5602,2.5551,2.5595,2.5599,2.5547,2.5529,2.5551,2.5601,2.5596,2.5634,2.5703,2.5703,2.582,0.0,-0.6113,0.0,-0.8418,0.0,0.0,0.0,0.0,-0.8936,-0.9094,-0.8359,-0.767,-0.7591,-0.6872,-0.604,-0.5231,-0.5092,-0.5252,-0.5729,-0.5417,-0.5605,-0.6875,-0.6626,-0.6372,-0.6372,-0.6355,-0.5808,-0.4537,-0.4423,-0.3866,-0.2675,-0.2503,-0.2064,-0.1248,-0.0331,0.0579,0.1465,0.3283,0.4776,0.5924,0.613,0.7072,0.8656,0.9112,1.0183,1.1801,1.4025,1.457,1.3956,1.4845,1.5243,1.5301,1.5303,1.5299,1.5312,1.531,1.5355,1.54,1.54,1.54,1.539,1.539,1.539,1.539,1.539,1.539,1.5388,1.5368,1.5958,1.6603,1.6626,1.7859,1.911,1.9158,1.984,2.0941,2.2582,2.3533,2.4336,2.5255,2.5478,2.5495,2.5495,2.5543,2.5563,2.5505,2.56,2.5644,2.5526,2.5564,2.5574,2.5513,2.5561,2.5592,2.5592,2.5654,2.5693,2.5693,2.5693,2.5692,2.5693,2.5693,2.5689,2.5688,2.5629,2.5602,2.5601,2.5601,2.5628,2.5703,2.5703,2.6143,0.0,0.0,0.0,-0.4204,-0.4869,-0.5663,-0.3762,-0.4757,-0.663,-0.8605,-0.8716,-0.8362,-0.8023,-0.7265,-0.6723,-0.6785,-0.6693,-0.6822,-0.742,-0.7363,-0.7391,-0.7735,-0.7633,-0.7496,-0.7418,-0.6845,-0.6472,-0.6428,-0.5474,-0.4877,-0.4852,-0.3956,-0.3295,-0.2977,-0.1588,-0.0149,0.1297,0.3106,0.427,0.4819,0.5443,0.6407,0.7655,0.8284,0.9009,0.9875,1.1877,1.315,1.3835,1.4205,1.4709,1.5243,1.5243,1.4916,1.4471,1.4473,1.4148,1.3735,1.3728,1.3728,1.3825,1.4334,1.4153,1.3936,1.5059,1.501,1.4678,1.521,1.5588,1.5937,1.644,1.744,1.8599,1.9679,2.0264,2.0869,2.1993,2.3339,2.4411,2.4684,2.5186,2.5554,2.5515,2.5525,2.5541,2.5563,2.5608,2.5634,2.5627,2.5652,2.5653,2.5634,2.5651,2.5661,2.5661,2.5686,2.5703,2.5703,2.5703,2.5703,2.5703,2.5703,2.5702,2.5701,2.5681,2.5661,2.5661,2.5625,2.5628,2.5703,2.5703,2.6172,-0.904,0.0,0.0,0.0,0.0,-0.6667,-0.1242,-0.3224,-0.615,-0.5952,-0.7503,-0.8761,-0.8342,-0.7714,-0.7385,-0.7723,-0.7649,-0.772,-0.8166,-0.8237,-0.819,-0.8055,-0.8037,-0.8003,-0.7914,-0.7334,-0.7016,-0.7154,-0.632,-0.5863,-0.5995,-0.5071,-0.4306,-0.3792,-0.2368,-0.0755,0.0972,0.2628,0.3719,0.4217,0.5078,0.5966,0.6824,0.7451,0.7947,0.8402,0.9891,1.1572,1.3293,1.37,1.4384,1.517,1.4882,1.4445,1.3931,1.3657,1.3224,1.2771,1.2772,1.278,1.289,1.3422,1.3243,1.3066,1.4503,1.4534,1.4253,1.5146,1.54,1.5525,1.6065,1.7039,1.8333,2.0027,2.0497,2.0718,2.1278,2.2539,2.3633,2.3877,2.4404,2.4871,2.5092,2.5132,2.5247,2.5573,2.5628,2.5654,2.5692,2.5703,2.5703,2.5703,2.5703,2.5703,2.5703,2.5703,2.5703,2.5703,2.5703,2.5703,2.5703,2.5703,2.5703,2.5703,2.5703,2.5703,2.5703,2.5663,2.5657,2.5703,2.5703,2.6318,0.0,0.0,0.0,0.0,0.0,0.0,-0.1045,0.0,-0.7716,-0.1549,-0.4885,-0.8821,-0.8529,-0.8327,-0.8147,-0.7935,-0.7914,-0.7914,-0.7914,-0.7914,-0.7914,-0.7914,-0.7914,-0.7899,-0.7899,-0.7885,-0.7508,-0.6606,-0.6943,-0.6799,-0.5893,-0.5827,-0.509,-0.3553,-0.2678,-0.1398,0.0343,0.1815,0.306,0.4134,0.5016,0.5686,0.6148,0.6583,0.6992,0.7431,0.8222,0.9928,1.2205,1.3267,1.4281,1.5058,1.4194,1.3838,1.3728,1.295,1.2651,1.2622,1.2617,1.2659,1.2723,1.2752,1.2736,1.2882,1.3707,1.3959,1.416,1.5104,1.5381,1.54,1.543,1.6658,1.8325,2.005,2.0473,2.0518,2.0576,2.126,2.2119,2.2988,2.3184,2.3447,2.4228,2.4355,2.4658,2.5527,2.5664,2.5674,2.5703,2.5703,2.5703,2.5703,2.5703,2.5703,2.5703,2.5703,2.5703,2.5703,2.5703,2.5703,2.5703,2.5703,2.5703,2.5703,2.5703,2.5703,2.5703,2.5703,2.5703,2.5703,2.5732,2.6641,-0.648,0.0,0.0,0.0,0.0,0.0,-0.722,-0.6727,-0.6274,-0.6772,-0.8108,-0.8467,-0.6075,-0.7114,-0.8288,-0.8133,-0.8079,-0.8092,-0.8237,-0.8264,-0.8203,-0.8057,-0.8043,-0.8003,-0.7914,-0.7591,-0.7464,-0.7636,-0.7066,-0.6793,-0.7017,-0.6257,-0.509,-0.3553,-0.3262,-0.23,-0.0547,0.0494,0.1387,0.2116,0.3617,0.4488,0.4791,0.5725,0.6443,0.6992,0.7511,0.8796,1.0592,1.1336,1.2552,1.3887,1.3124,1.2525,1.206,1.1839,1.1362,1.081,1.0761,1.0793,1.0938,1.1532,1.1354,1.1188,1.2623,1.3089,1.3306,1.4153,1.484,1.5477,1.6161,1.7118,1.8177,1.9296,2.008,2.0561,2.053,2.0765,2.1221,2.209,2.2734,2.3203,2.3418,2.3496,2.3809,2.4639,2.4756,2.499,2.5615,2.5703,2.5703,2.5703,2.5703,2.5703,2.5703,2.5703,2.5703,2.5703,2.5703,2.5703,2.5703,2.5703,2.5703,2.5703,2.5703,2.5703,2.5703,2.5703,2.5703,2.5723,2.6348,2.6904,0.0,0.0,0.0,0.0,0.0,0.0,-0.9752,-0.8546,-0.7536,-0.9236,-0.7361,-0.5234,-0.4618,-0.6635,-0.8144,-0.7372,-0.7891,-0.8394,-0.8399,-0.8395,-0.8361,-0.8232,-0.8219,-0.816,-0.7997,-0.7738,-0.7614,-0.7723,-0.7376,-0.7262,-0.7496,-0.6737,-0.5638,-0.4163,-0.3888,-0.3069,-0.1623,-0.0385,0.0469,0.0949,0.2942,0.3999,0.4241,0.5264,0.604,0.6573,0.6976,0.7946,0.9265,0.961,1.1013,1.2844,1.2044,1.1489,1.1114,1.0742,1.0316,0.9928,0.9891,0.9937,1.0092,1.0562,1.043,1.0331,1.1695,1.2399,1.2901,1.376,1.4632,1.5505,1.6417,1.701,1.758,1.845,1.9351,2.0011,1.9971,2.0272,2.0723,2.125,2.1738,2.2168,2.2539,2.2627,2.3047,2.4219,2.4404,2.4707,2.5586,2.5703,2.5703,2.5703,2.5703,2.5703,2.5703,2.5703,2.5703,2.5703,2.5703,2.5703,2.5703,2.5703,2.5703,2.5703,2.5703,2.5703,2.5703,2.5703,2.5703,2.5723,2.6592,2.7002,0.0,0.0,0.0,0.0,-0.8002,0.0,-0.9646,-0.9967,-0.9904,-0.942,-0.473,-0.1497,-0.4067,-0.6432,-0.7617,-0.6469,-0.7737,-0.8754,-0.8455,-0.8438,-0.8438,-0.8407,-0.842,-0.8353,-0.815,-0.811,-0.7888,-0.7366,-0.7824,-0.795,-0.7548,-0.7247,-0.6461,-0.5123,-0.4573,-0.3771,-0.2642,-0.1144,-0.0148,0.0387,0.247,0.3661,0.4055,0.502,0.5673,0.61,0.6573,0.7267,0.806,0.8111,0.9601,1.1755,1.0945,1.064,1.0564,0.979,0.9579,0.9678,0.9687,0.9775,0.9881,0.989,0.9896,1.0061,1.0891,1.1818,1.2788,1.3815,1.4682,1.547,1.6255,1.6522,1.6811,1.769,1.857,1.9217,1.9308,1.9943,2.0507,2.0576,2.0586,2.085,2.1621,2.1758,2.2334,2.4014,2.4258,2.4609,2.5576,2.5703,2.5703,2.5703,2.5703,2.5703,2.5703,2.5703,2.5703,2.5703,2.5703,2.5703,2.5703,2.5703,2.5703,2.5703,2.5703,2.5703,2.5703,2.5703,2.5703,2.5723,2.6494,2.6855,0.0,0.0,0.0,0.0,-0.6794,0.0,-0.8379,-0.8832,-0.8672,-0.7254,-0.5997,-0.5067,-0.4795,-0.516,-0.6213,-0.8371,-0.8992,-0.9052,-0.8627,-0.8658,-0.8634,-0.8425,-0.8497,-0.8501,-0.8353,-0.8198,-0.8123,-0.8166,-0.8275,-0.8142,-0.7685,-0.7606,-0.6944,-0.5599,-0.5557,-0.4669,-0.2854,-0.2817,-0.1849,0.0089,0.0532,0.1521,0.2963,0.4486,0.5224,0.5361,0.626,0.66,0.6563,0.6933,0.8338,1.0198,0.9702,0.9616,0.9727,0.9564,0.9516,0.955,0.9603,0.9678,0.9746,0.9799,0.9854,0.9936,1.0114,1.1232,1.2773,1.4358,1.5006,1.5272,1.5499,1.6025,1.6753,1.7679,1.8567,1.938,2.0027,2.0299,2.0436,2.0507,2.0557,2.0654,2.082,2.085,2.1435,2.3174,2.3389,2.3916,2.5498,2.5703,2.5703,2.5703,2.5703,2.5703,2.5703,2.5703,2.5703,2.5703,2.5703,2.5703,2.5703,2.5703,2.5703,2.5703,2.5703,2.5703,2.5703,2.5703,2.5703,2.5703,2.5869,2.5947,0.0,0.0,0.0,-0.5642,-0.6195,0.0,0.0,-0.7854,-0.8116,-0.7477,-0.738,-0.7269,-0.6875,-0.693,-0.749,-0.8879,-0.9219,-0.9077,-0.844,-0.864,-0.8846,-0.8846,-0.8787,-0.8726,-0.866,-0.8651,-0.8643,-0.8595,-0.8595,-0.8481,-0.8211,-0.819,-0.7633,-0.6382,-0.6351,-0.5569,-0.3972,-0.3639,-0.2629,-0.0896,-0.012,0.0612,0.1361,0.3074,0.3853,0.3882,0.4384,0.5076,0.5866,0.61,0.6871,0.7952,0.8424,0.8727,0.8924,0.9131,0.9242,0.9305,0.9332,0.9454,0.9608,0.9635,0.9721,0.9879,1.0314,1.1638,1.328,1.4623,1.5052,1.5127,1.5222,1.5547,1.6083,1.6991,1.7834,1.8688,1.9559,2.0073,2.0374,2.0437,2.0476,2.0515,2.0586,2.0596,2.1035,2.2353,2.2861,2.3574,2.4883,2.543,2.5703,2.5703,2.5703,2.5703,2.5703,2.5703,2.5703,2.5703,2.5703,2.5703,2.5703,2.5701,2.5683,2.5654,2.5619,2.5601,2.5601,2.5601,2.5634,2.5703,2.5665,2.5671,-0.4571,-0.4631,-0.4776,-0.5433,-0.5756,-0.5995,0.0,0.0,0.0,-0.8144,-0.8306,-0.8443,-0.8668,-0.8983,-0.9079,-0.8672,-0.8987,-0.8859,-0.763,-0.7839,-0.8287,-0.8779,-0.8413,-0.8251,-0.8621,-0.9002,-0.9117,-0.8824,-0.8854,-0.8835,-0.8744,-0.8732,-0.8244,-0.7174,-0.7093,-0.6405,-0.5039,-0.3551,-0.2587,-0.211,-0.0404,0.0269,0.0045,0.1461,0.21,0.21,0.21,0.3426,0.5603,0.5531,0.5632,0.5954,0.7293,0.7945,0.8177,0.8582,0.8815,0.8958,0.9068,0.9256,0.9465,0.9491,0.9693,1.0118,1.1141,1.2439,1.3777,1.4686,1.4975,1.5019,1.5133,1.5183,1.5465,1.6484,1.7224,1.8001,1.9088,1.984,2.0321,2.0369,2.0382,2.0418,2.0555,2.0576,2.0879,2.1768,2.2451,2.3242,2.4268,2.501,2.5508,2.5684,2.5703,2.5703,2.5703,2.5703,2.5703,2.5703,2.5703,2.5702,2.5699,2.5689,2.5649,2.5582,2.5529,2.55,2.55,2.55,2.5554,2.5659,2.5606,2.5606,-0.4471,-0.435,-0.4426,-0.4741,-0.5016,-0.5396,-0.6071,0.0,-0.7051,-0.7502,0.0,-0.8316,-0.8346,0.0,0.0,-0.8015,-0.8647,-0.8268,-0.5559,-0.5224,-0.5739,-0.7017,-0.6043,-0.5924,-0.7588,-0.8735,-0.9219,-0.8835,-0.9017,-0.9073,-0.8889,-0.8877,-0.8494,-0.7649,-0.7892,-0.7092,-0.5112,-0.197,-0.1376,-0.328,-0.1018,0.0038,0.0006,0.0204,0.0293,0.0293,0.0293,0.2316,0.5579,0.5279,0.5175,0.5331,0.6623,0.727,0.7555,0.7953,0.8221,0.8465,0.8936,0.9198,0.934,0.9465,1.0075,1.1049,1.2573,1.3262,1.3681,1.4504,1.4855,1.4995,1.5028,1.5111,1.5599,1.7186,1.7628,1.8148,1.9812,2.0244,2.0302,2.0312,2.0308,2.0352,2.0494,2.0508,2.083,2.1758,2.1982,2.2607,2.4199,2.4492,2.4844,2.5615,2.5703,2.5703,2.5703,2.5703,2.5703,2.5703,2.5703,2.5705,2.5692,2.5649,2.5582,2.5515,2.5505,2.5495,2.5495,2.5495,2.5507,2.5521,2.5513,2.5515,-0.4829,-0.4963,-0.5128,-0.4969,-0.5227,-0.5522,-0.5546,-0.5933,-0.6369,-0.668,0.0,0.0,0.0,0.0,0.0,0.0,-0.7912,-0.7525,-0.6559,-0.6188,-0.593,-0.571,-0.6015,-0.6926,-0.8654,-0.6748,-0.6491,-0.9127,-0.8779,-0.7828,-0.6426,-0.7867,-0.8575,-0.8237,-0.7948,-0.7444,-0.6737,-0.4373,-0.3293,-0.3493,-0.2507,-0.1321,0.0,0.0,0.0,0.0,0.0,0.1294,0.3383,0.3248,0.3674,0.4478,0.5333,0.6162,0.6942,0.7453,0.7698,0.7858,0.8437,0.8723,0.8988,0.9895,1.0831,1.181,1.2949,1.3671,1.4167,1.4584,1.4757,1.4847,1.4975,1.5042,1.5408,1.6699,1.6994,1.7465,1.9177,1.9542,1.9696,2.0206,2.0302,2.0325,2.0371,2.0447,2.0635,2.1025,2.1553,2.2344,2.3555,2.4111,2.4727,2.5605,2.5703,2.5703,2.5703,2.57,2.5681,2.5636,2.5611,2.5578,2.5579,2.5522,2.5476,2.5438,2.5399,2.538,2.538,2.538,2.5379,2.5383,2.5422,2.5461,-0.521,-0.5501,-0.5792,-0.5234,-0.5346,-0.5538,-0.5264,-0.5566,-0.5954,-0.6159,-0.6572,0.0,0.0,0.0,0.0,0.0,0.0,-0.7136,-0.7114,-0.7064,-0.6621,-0.5508,-0.6639,-0.7564,-0.7687,-0.5753,-0.5599,-0.8242,-0.7571,-0.5945,-0.34,-0.5163,-0.693,-0.8444,-0.7814,-0.7511,-0.765,-0.6007,-0.4531,-0.3264,-0.341,-0.2274,0.0,0.0,0.0,0.0,0.0,0.0499,0.134,0.1849,0.2742,0.3843,0.4376,0.5219,0.6229,0.6909,0.7183,0.7341,0.8057,0.8592,0.9215,1.0747,1.1751,1.2502,1.3307,1.3988,1.4522,1.4623,1.4667,1.4728,1.488,1.4946,1.5219,1.621,1.6451,1.6852,1.833,1.8828,1.9194,1.9821,2.0139,2.0302,2.0302,2.0395,2.0484,2.0498,2.1103,2.1943,2.3057,2.3691,2.4473,2.5576,2.5702,2.5693,2.5673,2.5662,2.564,2.5582,2.5526,2.5486,2.5466,2.5433,2.539,2.537,2.5312,2.5293,2.5293,2.5293,2.5293,2.5293,2.5341,2.5399,-0.5533,-0.5669,-0.6086,-0.5289,-0.5122,-0.5185,-0.5435,-0.5708,-0.5954,-0.6159,-0.6572,-0.6901,0.0,0.0,0.0,0.0,0.0,0.0,0.0,-0.6744,-0.7251,-0.6877,-0.7567,-0.6645,-0.2984,-0.6836,-0.8371,-0.5462,-0.5031,-0.3507,-0.0319,-0.0231,-0.2717,-0.8046,-0.7613,-0.7211,-0.7027,-0.5235,-0.3764,-0.2634,-0.3224,-0.2274,0.0,0.0,0.0,0.0,0.0,0.0025,0.0204,0.1936,0.3001,0.3564,0.4107,0.4684,0.5349,0.6205,0.6651,0.6967,0.7955,0.9101,1.0414,1.2095,1.279,1.3118,1.393,1.4323,1.4497,1.4508,1.4602,1.4698,1.4708,1.4804,1.5137,1.6078,1.6311,1.6571,1.7528,1.8405,1.9011,1.904,1.9715,2.0302,2.0302,2.0358,2.0429,2.0485,2.0576,2.126,2.2978,2.3174,2.3799,2.5518,2.57,2.5669,2.5611,2.5601,2.5572,2.5515,2.5505,2.5467,2.5409,2.5399,2.537,2.5293,2.5293,2.5293,2.5293,2.5293,2.5293,2.5293,2.5293,2.5293,-0.6253,-0.6635,-0.6371,-0.5632,-0.6001,-0.6419,-0.5887,-0.5931,-0.6082,-0.6016,-0.6242,-0.6497,-0.6664,0.0,0.0,0.0,0.0,0.0,0.0,-0.7469,-0.7871,-0.7892,-0.8443,-0.8409,-0.7339,-0.7669,-0.8069,-0.8389,-0.6291,-0.3532,-0.018,0.0,-0.1646,-0.5244,-0.6704,-0.7103,-0.6414,-0.5804,-0.4963,-0.3926,-0.3634,-0.2684,-0.1175,-0.0774,-0.0377,0.0,0.0,0.0307,0.0845,0.1451,0.2137,0.281,0.3164,0.3977,0.5006,0.5622,0.5993,0.638,0.7563,0.8692,0.9855,1.1348,1.2068,1.2514,1.3444,1.3782,1.3839,1.3839,1.3998,1.4228,1.4441,1.4538,1.4717,1.5296,1.5443,1.5704,1.6692,1.7558,1.8309,1.8886,1.9696,2.0302,2.0302,2.0321,2.036,2.0419,2.0492,2.1182,2.2969,2.3178,2.3799,2.5464,2.5634,2.5609,2.5538,2.5491,2.5466,2.5438,2.539,2.5361,2.5322,2.5322,2.5312,2.5293,2.5293,2.5293,2.5293,2.5293,2.5293,2.5293,2.5293,2.5293,-0.4263,-0.5729,-0.6641,-0.657,-0.6968,-0.713,-0.6239,-0.6223,-0.6298,-0.6054,-0.6055,-0.6247,-0.6725,0.0,0.0,0.0,0.0,0.0,0.0,-0.757,-0.7824,-0.7951,-0.8575,-0.8941,-0.8823,-0.8171,-0.7875,-0.8193,-0.6286,-0.3606,-0.0183,0.0,-0.1052,-0.3367,-0.5854,-0.6779,-0.6012,-0.5741,-0.5274,-0.4624,-0.3989,-0.3149,-0.2168,-0.1515,-0.1013,-0.0617,-0.0181,0.0212,0.0598,0.0939,0.1554,0.2289,0.2615,0.3447,0.4555,0.5254,0.5905,0.6626,0.7699,0.8684,0.9655,1.0953,1.1731,1.2298,1.3049,1.3387,1.3563,1.3851,1.3902,1.4,1.4481,1.4468,1.441,1.471,1.4835,1.5158,1.6155,1.699,1.7828,1.8749,1.9612,2.0215,2.0294,2.0302,2.0417,2.077,2.088,2.1557,2.3327,2.3562,2.4062,2.5418,2.5562,2.5542,2.5463,2.5404,2.5361,2.5361,2.5312,2.5293,2.5293,2.5293,2.5293,2.5293,2.5293,2.5293,2.5293,2.5293,2.5293,2.5293,2.5293,2.5264]},{"header":{"parameterUnit":"m.s-1","parameterCategory":1,"la1":30.6,"la2":29.2853,"lo1":-89.7004,"lo2":-87.6739,"dy":0.0162,"dx":0.0183,"nx":112,"ny":82,"refTime":"2023-07-26T06:00:00:Z","depth":0,"parameterNumber":3,"parameterNumberName":"V-component_of_WINDS"},"data":[0.0,0.0,0.0,0.0,0.0,0.0,0.0,0.0,0.0,0.0,0.0,0.0,0.0,0.0,0.0,0.0,0.0,0.0,0.0,0.0,0.0,0.0,0.0,0.0,0.0,0.0,0.0,0.0,0.0,0.0,0.0,0.0,0.0,0.0,0.0,0.0,0.0,0.0,0.0,0.0,0.0,0.0,0.0,0.0,0.0,0.0,0.0,0.0,0.0,0.0,0.0,0.0,0.0,0.0,0.0,0.0,0.0,0.0,0.0,0.0,0.0,0.0,0.0,0.0,0.0,0.0,0.0,0.0,0.0,0.0,0.0,0.0,0.0,0.0,0.0,0.0,0.0,0.0,0.0,0.0,0.0,0.0,0.0,0.0,0.0,0.0,0.0,0.0,0.0,0.0,-0.1628,-0.1529,0.0302,0.1372,0.0986,0.1312,0.1696,0.2045,0.0,0.0,0.0,0.0,0.0,0.0,0.0,0.0,0.0,0.0,0.0,0.0,0.0,0.0,0.0,0.0,0.0,0.0,0.0,0.0,0.0,0.0,0.0,0.0,0.0,0.0,0.0,0.0,0.0,0.0,0.0,0.0,0.0,0.0,0.0,0.0,0.0,0.0,0.0,0.0,0.0,0.0,0.0,0.0,0.0,0.0,0.0,0.0,0.0,0.0,0.0,0.0,0.0,0.0,0.0,0.0,0.0,0.0,0.0,0.0,0.0,0.0,0.0,0.0,0.0,0.0,0.0,0.0,0.0,0.0,0.0,0.0,0.0,0.0,0.0,0.0,0.0,0.0,0.0,0.0,0.0,0.0,0.0,0.0,0.0,0.0,0.0,0.0,0.0,0.0,0.0,0.0,0.0,0.0,0.0,0.0,0.0,0.0,0.0,0.0,0.0,0.0,0.0,0.0,-0.0842,-0.0331,0.0061,0.0537,0.1193,0.1561,0.1929,0.2321,0.0,0.0,0.0,0.0,0.0,0.0,0.0,0.0,0.0,0.0,0.0,0.0,0.0,0.0,0.0,0.0,0.0,0.0,0.0,0.0,0.0,0.0,0.0,0.0,0.0,0.0,0.0,0.0,0.0,0.0,0.0,0.0,0.0,0.0,0.0,0.0,0.0,0.0,0.0,0.0,0.0,0.0,0.0,0.0,0.0,0.0,0.0,0.0,0.0,0.0,0.0,0.0,0.0,0.0,0.0,0.0,0.0,0.0,0.0,0.0,0.0,0.0,0.0,0.0,0.0,0.0,0.0,0.0,0.0,0.0,0.0,0.0,0.0,0.0,0.0,0.0,0.0,0.0,0.0,0.0,0.0,0.0,0.0,0.0,0.0,0.0,0.0,0.0,0.0,0.0,0.0,0.0,0.0,0.0,0.0,0.0,0.0,0.0,0.0,0.0,0.0,0.0,0.0,-0.1402,-0.0666,-0.0062,0.013,0.0448,0.1036,0.1428,0.1834,0.2272,0.2045,0.0,0.0,0.0,0.0,0.0,0.0,0.0,0.0,0.0,0.0,0.0,0.0,0.0,0.0,0.0,0.0,0.0,0.0,0.0,0.0,0.0,0.0,0.0,0.0,0.0,0.0,0.0,0.0,0.0,0.0,0.0,0.0,0.0,0.0,0.0,0.0,0.0,0.0,0.0,0.0,0.0,0.0,0.0,0.0,0.0,0.0,0.0,0.0,0.0,0.0,0.0,0.0,0.0,0.0,0.0,0.0,0.0,0.0,0.0,0.0,0.0,0.0,0.0,0.0,0.0,0.0,0.0,0.0,0.0,0.0,0.0,0.0,0.0,0.0,0.0,0.0,0.0,0.0,0.0,0.0,0.0,0.0,0.0,0.0,0.0,0.0,0.0,0.0,0.0,0.0,0.0,0.0,0.0,0.0,0.0,0.0,0.0,0.0,0.0,0.0,0.0,0.0,-0.0904,-0.0726,-0.0255,0.0098,0.0475,0.0874,0.1304,0.1754,0.2174,0.2072,0.0,0.0,0.0,0.0,0.0,0.0,0.0,0.0,0.0,0.0,0.0,0.0,0.0,0.0,0.0,0.0,0.0,0.0,0.0,0.0,0.0,0.0,0.0,0.0,0.0,0.0,0.0,0.0,0.0,0.0,0.0,0.0,0.0,0.0,0.0,0.0,0.0,0.0,0.0,0.0,0.0,0.0,0.0,0.0,0.0,0.0,0.0,0.0,0.0,0.0,0.0,0.0,0.0,0.0,0.0,0.0,0.0,0.0,0.0,0.0,0.0,0.0,0.0,0.0,0.0,0.0,0.0,0.0,0.0,0.0,0.0,0.0,0.0,0.0,0.0,0.0,0.0,0.0,0.0,0.0,0.0,0.0,0.0,0.0,0.0,0.0,0.0,0.0,0.0,0.0,0.0,0.0,0.0,0.0,0.0,0.0,0.0,0.0,0.0,0.0,0.0,0.0,-0.0907,-0.0889,-0.0846,-0.0321,0.0266,0.0844,0.1443,0.1908,0.2179,0.2465,0.0,0.0,0.0,0.0,0.0,0.0,0.0,0.0,0.0,0.0,0.0,0.0,0.0,0.0,0.0,0.0,0.0,0.0,0.0,0.0,0.0,0.0,0.0,0.0,0.0,0.0,0.0,0.0,0.0,0.0,0.0,0.0,0.0,0.0,0.0,0.0,0.0,0.0,0.0,0.0,0.0,0.0,0.0,0.0,0.0,0.0,0.0,0.0,0.0,0.0,0.0,0.0,0.0,0.0,0.0,0.0,0.0,0.0,0.0,0.0,0.0,0.0,0.0,0.0,0.0,0.0,0.0,0.0,0.0,0.0,0.0,0.0,0.0,0.0,0.0,0.0,0.0,0.0,0.0,0.0,0.0,0.0,0.0,0.0,0.0,0.0,0.0,0.0,0.0,0.0,0.0,0.0,0.0,0.0,0.0,0.0,0.0,0.0,0.0,0.0,0.0,0.0,-0.1129,-0.1089,-0.0911,-0.0504,-0.0083,0.0313,0.1235,0.1795,0.1771,0.0,0.0,0.0,0.0,0.0,0.0,0.0,0.0,0.0,0.0,0.0,0.0,0.0,0.0,0.0,0.0,0.0,0.0,0.0,0.0,0.0,0.0,0.0,0.0,0.0,0.0,0.0,0.0,0.0,0.0,0.0,0.0,0.0,0.0,0.0,0.0,0.0,0.0,0.0,0.0,0.0,0.0,0.0,0.0,0.0,0.0,0.0,0.0,0.0,0.0,0.0,0.0,0.0,0.0,0.0,0.0,0.0,0.0,0.0,0.0,0.0,0.0,0.0,0.0,0.0,0.0,0.0,0.0,0.0,0.0,0.0,0.0,0.0,0.0,0.0,0.0,0.0,0.0,0.0,0.0,0.0,0.0,0.0,0.0,0.0,0.0,0.0,0.0,0.0,0.0,0.0,0.0,0.0,0.0,0.0,0.0,0.0,0.0,0.0,0.0,0.0,0.0,-0.133,-0.137,-0.1306,-0.0942,-0.0597,-0.0291,-0.002,0.0745,0.1364,0.1662,0.0,0.0,0.0,0.0,0.0,0.0,0.0,0.0,0.0,0.0,0.0,0.0,0.0,0.0,0.0,0.0,0.0,0.0,0.0,0.0,0.0,0.0,0.0,0.0,0.0,0.0,0.0,0.0,0.0,0.0,0.0,0.0,0.0,0.0,0.0,0.0,0.0,0.0,0.0,0.0,0.0,0.0,0.0,0.0,0.0,0.0,0.0,0.0,0.0,0.0,0.0,0.0,0.0,0.0,0.0,0.0,0.0,0.0,0.0,0.0,0.0,0.0,0.0,0.0,0.0,0.0,0.0,0.0,0.0,0.0,0.0,0.0,0.0,0.0,0.0,0.0,0.0,0.0,0.0,0.0,0.0,0.0,0.0,0.0,0.0,0.0,0.0,0.0,0.0,0.0,0.0,0.0,0.0,0.0,0.0,0.0,0.0,0.0,0.0,0.0,0.0,0.0,-0.1418,-0.1565,-0.1565,-0.0964,-0.0612,-0.0312,-0.002,0.0,0.06,0.0,0.0,0.0,0.0,0.0,0.0,0.0,0.0,0.0,0.0,0.0,0.0,0.0,0.0,0.0,0.0,0.0,0.0,0.0,0.0,0.0,0.0,0.0,0.0,0.0,0.0,0.0,0.0,0.0,0.0,0.0,0.0,0.0,0.0,0.0,0.0,0.0,0.0,0.0,0.0,0.0,0.0,0.0,0.0,0.0,0.0,0.0,0.0,0.0,0.0,0.0,0.0,0.0,0.0,0.0,0.0,0.0,0.0,0.0,0.0,0.0,0.0,0.0,0.0,0.0,0.0,0.0,0.0,0.0,0.0,0.0,0.0,0.0,0.0,0.0,0.0,0.0,0.0,0.0,0.0,0.0,0.0,0.0,0.0,0.0,0.0,0.0,0.0,0.0,0.0,0.0,0.0,0.0,0.0,0.0,0.0,0.0,0.0,0.0,0.0,0.0,0.0,0.0,-0.0583,-0.0472,-0.0787,-0.146,-0.1438,-0.1013,-0.0086,0.0,0.0167,0.0581,0.0,0.0,0.0,0.0,0.0,0.0,0.0,0.0,0.0,0.0,0.0,0.0,0.0,0.0,0.0,0.0,0.0,0.0,0.0,0.0,0.0,0.0,0.0,0.0,0.0,0.0,0.0,0.0,0.0,0.0,0.0,0.0,0.0,0.0,0.0,0.0,0.0,0.0,0.0,0.0,0.0,0.0,0.0,0.0,0.0,0.0,0.0,0.0,0.0,0.0,0.0,0.0,0.0,0.0,0.0,0.0,0.0,0.0,0.0,0.0,0.0,0.0,0.0,0.0,0.0,0.0,0.0,0.0,0.0,0.0,0.0,0.0,0.0,0.0,0.0,0.0,0.0,0.0,0.0,0.0,0.0,0.0,0.0,0.0,0.0,0.0,0.0,0.0,0.0,0.0,0.0,0.0,0.0,0.0,0.0,0.0,0.0,0.0,0.0,0.0,0.0,0.0,-0.0131,-0.0211,-0.0546,-0.1036,-0.13,-0.1053,-0.009,0.0,0.0,0.0,0.0,0.0,0.0,0.0,0.0,0.0,0.0,0.0,0.0,0.0,0.0,0.0,0.0,0.0,0.0,0.0,0.0,0.0,0.0,0.0,0.0,0.0,0.0,0.0,0.0,0.0,0.0,0.0,0.0,0.0,0.0,0.0,0.0,0.0,0.0,0.0,0.0,0.0,0.0,0.0,0.0,0.0,0.0,0.0,0.0,0.0,0.0,0.0,0.0,0.0,0.0,0.0,0.0,0.0,0.0,0.0,0.0,0.0,0.0,0.0,0.0,0.0,0.0,0.0,0.0,0.0,0.0,0.0,0.0,0.0,0.0,0.0,0.0,0.0,0.0,0.0,0.0,0.0,0.0,0.0,0.0,0.0,0.0,0.0,0.0,0.0,0.0,0.0,0.0,0.0,0.0,0.0,0.0,0.0,0.0,0.0,0.0,0.0,0.0,0.0,0.0,0.0,0.0,-0.0478,-0.0654,-0.0217,-0.056,-0.0603,-0.0045,0.0,0.0,0.0,0.0,0.0,0.0,0.0,0.0,0.0,0.0,0.0,0.0,0.0,0.0,0.0,0.0,0.0,0.0,0.0,0.0,0.0,0.0,0.0,0.0,0.0,0.0,0.0,0.0,0.0,0.0,0.0,0.0,0.0,0.0,0.0,0.0,0.0,0.0,0.0,0.0,0.0,0.0,0.0,0.0,0.0,0.0,0.0,0.0,0.0,0.0,0.0,0.0,0.0,0.0,0.0,0.0,0.0,0.0,0.0,0.0,0.0,0.0,0.0,0.0414,0.0,0.0,0.0,0.0,0.0,0.0,0.0,0.0,0.0,0.0,0.0,0.0,0.0,0.0,0.0,0.0,0.0,0.0,0.0,0.0,0.0,0.0,0.0,0.0,0.0,0.0,0.0,0.0,0.0,0.0,0.0,0.0,0.0,0.0,0.0,0.0,0.0,0.0,0.0,0.0,0.0,0.0,-0.0117,-0.0497,-0.1322,-0.0674,-0.0135,-0.0,0.0,0.0,0.0,0.0,0.0,0.0,0.0,0.0,0.0,0.0,0.0,0.0,0.0,0.0,0.0,0.0,0.0,0.0,0.0,0.0,0.0,0.0,0.0,0.0,0.0,0.0,0.0,0.0,0.0,0.0,0.0,0.0,0.0,0.0,0.0,0.0,0.0,0.0,0.0,0.0,0.0,0.0,0.0,0.0,0.0,0.0,0.0,0.0,0.0,0.0,0.0,0.0,0.0,0.0,0.0,0.0,0.0,0.0,0.0,0.0,0.0,0.0,0.0,0.1262,0.0529,0.0,0.0,0.0,0.0,0.0,0.0,0.0,0.0,0.0,0.0,0.0,0.0,0.0,0.0,0.0,0.0,0.0,0.0,0.0,0.0,0.0,0.0,0.0,0.0,0.0,0.0,0.0,0.0,0.0,0.0,0.0,0.0,0.0,0.0,0.0,0.0,0.0,0.0,0.0,0.0,0.0,0.0,-0.0247,-0.0878,-0.0899,-0.0638,-0.0048,0.0,0.0,0.0,0.0,0.0,0.0,0.0,0.0,0.0,0.0,0.0,0.0,0.0,0.0,0.0,0.0,0.0,0.0,0.0,0.0,0.0,0.0,0.0,0.0,0.0,0.0,0.0,0.0,0.0,0.0,0.0,0.0,0.0,0.0,0.0,0.0,0.0,0.0,0.0,0.0,0.0,0.0,0.0,0.0,0.0,0.0,0.0,0.0,0.0,0.0,0.0,0.0,0.0,0.0,0.0,0.0,0.0,-0.0047,0.0,0.0,0.0,0.0982,0.2661,0.2174,0.134,0.0312,0.0191,0.0,0.0,0.0,0.0,0.0,0.0,0.0,0.0,0.0,0.0,0.0,0.0,0.0,0.0,0.0,0.0,0.0,0.0,0.0,0.0,0.0,0.0,0.0,0.0,0.0,0.0,0.0,0.0,0.0,0.0,0.0,0.0,0.0,0.0,0.0,0.0,0.0,0.0,-0.0285,-0.0124,0.0,0.0,-0.0886,-0.1083,-0.0075,0.0,0.0129,0.0453,0.0165,0.0068,0.0,0.0,0.0,0.0,0.0,0.0,0.0,0.0,0.0,0.0,0.0,0.0,0.0,0.0,0.0,0.0,0.0,0.0,0.0,0.0,0.0,0.0,0.0,0.0,0.0,0.0,0.0,0.0,0.0,0.0,0.0,0.0,-0.2355,-0.3584,0.0,0.0,0.0,0.0,0.0,0.0,0.0,0.0,0.0,0.0,0.0,0.0,0.0,-0.2158,-0.2393,-0.2185,-0.1633,-0.0762,-0.0245,0.0,0.0,0.0,0.0991,0.2692,0.2605,0.0,0.1516,0.099,0.0,0.0,0.0,0.0,0.0,0.0,0.0,0.0,0.0,0.0,0.0,0.0,0.0,0.0,0.0,0.0,0.0,0.0,0.0,0.0,0.0,0.0,0.0,0.0,0.0,0.0,0.0,-0.0194,-0.0779,-0.2227,-0.2622,-0.2644,0.0,0.0,0.0,0.0,0.0,0.0,-0.1414,-0.0644,0.0,0.0,-0.0143,-0.0175,-0.0025,0.0,0.0676,0.2259,0.0861,0.0334,0.1088,0.0634,0.0,0.0,0.0,0.0,0.0,0.0,0.0,0.0,0.0,0.0,0.0,0.0,0.0,0.0,0.0,0.0,0.0,0.0,0.0,0.0,0.0,0.0,0.0,0.0,0.0,0.0,0.0,0.0,0.0,-0.3012,-0.3362,-0.3935,-0.4192,-0.419,0.0,0.0,0.0,0.0,0.0,0.0,0.0,0.0,0.0,-0.2606,-0.2455,-0.2438,-0.2513,-0.2335,-0.2091,-0.1734,-0.1059,-0.0474,0.0,0.0,0.0429,0.1243,0.2265,0.2559,0.228,0.1786,0.1678,0.182,0.0,0.0,0.0,0.0,0.1969,0.188,0.137,0.0972,0.0649,0.0166,0.0,0.0,0.0,0.0,0.0,0.0,0.0,0.0,0.0,0.0,0.0,0.0,-0.079,-0.1505,-0.1518,-0.0704,-0.0248,-0.1031,-0.1579,-0.2077,-0.2596,-0.204,0.0,0.0,0.0,-0.1193,-0.1743,-0.147,-0.0925,-0.0096,0.0,0.0,0.0,0.0,0.0757,0.2601,0.1964,0.1241,0.0597,0.1179,0.1404,0.0,0.0,0.0,0.0,0.0,0.0,0.0,0.0,0.0,0.0,0.0,0.0,0.0,0.0,0.0,0.0,0.0,0.0,0.0,0.0,0.0,0.0,0.0,0.0,0.0,0.0,0.0,0.0,-0.3746,-0.4202,-0.4302,-0.3973,-0.3756,0.0,0.0,0.0,0.0,0.0,0.0,-0.2536,-0.2579,-0.2654,-0.2735,-0.2739,-0.2735,-0.2658,-0.2562,-0.2523,-0.2471,-0.1921,-0.1319,-0.0675,-0.044,-0.0331,-0.0252,0.1324,0.1972,0.1908,0.2094,0.2193,0.2262,0.2278,0.2272,0.2257,0.2219,0.2196,0.2182,0.2137,0.1821,0.1344,0.0861,0.0379,0.0,0.0,0.0,0.0,0.0,0.0,0.0,0.0,0.0,-0.0122,-0.0595,-0.1718,-0.2708,-0.2704,-0.1651,-0.054,-0.0098,-0.0513,-0.118,-0.1877,-0.2023,0.0,-0.0189,-0.1169,-0.2002,-0.1918,-0.2082,-0.1771,-0.0673,-0.022,0.0,0.0,0.0,0.0578,0.192,0.2431,0.2094,0.0746,0.1846,0.1918,0.0718,0.0,0.0,0.0,0.0,0.0,0.0,0.0,0.0,0.0,0.0,0.0,0.0,0.0,0.0,0.0,0.0,0.0,0.0,0.0,0.0,0.0,0.0,0.0,0.0,0.0,0.0,0.0,0.0,0.0,-0.4037,-0.3489,0.0,0.0,0.0,0.0,-0.2702,-0.2697,-0.2694,-0.2702,-0.2807,-0.289,-0.2896,-0.2896,-0.2959,-0.3085,-0.2952,-0.281,-0.2692,-0.2634,-0.2606,-0.2539,-0.1628,-0.123,-0.1199,-0.0266,-0.0,-0.0092,0.1661,0.2401,0.2395,0.2454,0.257,0.264,0.2525,0.2442,0.2367,0.2249,0.2004,0.1872,0.2377,0.139,0.0,0.0,0.0,0.0,0.0,0.0,0.0,0.0,0.0,-0.0437,-0.2154,-0.2625,-0.269,-0.2712,-0.2615,-0.2045,-0.0344,-0.0032,-0.0067,-0.0134,0.0,-0.01,-0.0,-0.1504,-0.2537,-0.223,-0.2202,-0.2178,-0.2101,-0.0826,0.0,0.0,0.0,0.0033,0.0134,0.1748,0.2657,0.2566,0.2088,0.2079,0.2568,0.291,0.0,0.0,0.0,0.0,0.0,0.0,0.0,0.0,0.0,0.0,0.0,0.0,0.0,0.0,0.0,0.0,0.0,0.0,0.0,0.0,0.0,0.0,0.0,0.0,0.0,0.0,0.0,0.0,-0.4687,-0.4412,0.0,-0.3723,-0.3317,-0.3016,-0.2843,-0.2829,-0.2829,-0.2829,-0.2966,-0.3051,-0.3149,-0.3152,-0.3177,-0.3226,-0.3082,-0.2961,-0.2833,-0.2757,-0.2691,-0.2698,-0.2355,-0.2185,-0.2185,-0.1878,-0.1457,-0.0877,0.0356,0.1429,0.2281,0.2527,0.2654,0.2668,0.242,0.2278,0.2204,0.1771,0.1551,0.1603,0.242,0.1469,0.0,0.0,0.0,0.0,0.0,0.0,0.0,0.0,-0.114,-0.2375,-0.2654,-0.2814,-0.285,-0.272,-0.2698,-0.2513,-0.1867,-0.1251,-0.0834,-0.0832,-0.0844,-0.0823,-0.0823,-0.1779,-0.2467,-0.2335,-0.2352,-0.2381,-0.2332,-0.1445,-0.0594,-0.0034,0.0,0.0,0.0,0.0593,0.1476,0.2653,0.2506,0.2676,0.3249,0.2383,0.2037,0.0,0.0,0.0,0.0,0.0,0.0,0.0,0.0,0.0,0.0,0.0,0.0,0.0,0.0,0.0,0.0,0.0,0.0,0.0,0.0,0.0,0.0,0.0,0.0,0.0,-0.5226,-0.5169,-0.5674,-0.5197,-0.4725,-0.4525,-0.396,-0.3502,-0.3297,-0.3139,-0.3057,-0.302,-0.3197,-0.3322,-0.3381,-0.3385,-0.336,-0.3308,-0.3159,-0.3051,-0.2907,-0.2805,-0.2761,-0.2768,-0.2768,-0.2768,-0.2766,-0.2718,-0.2355,-0.1743,-0.1137,-0.0163,0.1105,0.1902,0.2222,0.2191,0.1965,0.2095,0.2226,0.1198,0.0852,0.0968,0.1593,0.0984,0.0,0.0,0.0,0.0,0.0,0.0,-0.0127,-0.0762,-0.2256,-0.346,-0.2947,-0.2918,-0.2956,-0.279,-0.2729,-0.2693,-0.2693,-0.2182,-0.1763,-0.1765,-0.1786,-0.1773,-0.1773,-0.2191,-0.2508,-0.2499,-0.2535,-0.2584,-0.2611,-0.2094,-0.1303,-0.0111,0.0,0.0,0.0,0.0,0.0708,0.2336,0.2405,0.2695,0.3276,0.2294,0.2126,0.2835,0.0,0.0,0.0,0.0,0.0,0.0,0.0,0.0,0.0,0.0,0.0,0.0,0.0,0.0,0.0,0.0,0.0,0.0,0.0,0.0,0.0,0.0,0.0,-0.6095,-0.5687,-0.5763,-0.69,-0.577,-0.5049,-0.55,-0.4541,-0.3924,-0.4042,-0.3675,-0.3437,-0.3349,-0.3535,-0.3661,-0.3661,-0.3612,-0.354,-0.3351,-0.3191,-0.3083,-0.2949,-0.2941,-0.2943,-0.2951,-0.2907,-0.2905,-0.2901,-0.2759,-0.2698,-0.2698,-0.2698,-0.215,-0.117,0.0568,0.1238,0.117,0.117,0.1784,0.2325,0.0573,-0.0073,-0.0037,-0.0,0.0,0.0,0.0,0.0,0.0,0.0,0.0,-0.0405,-0.2176,-0.309,-0.3503,-0.3108,-0.3032,-0.2996,-0.2917,-0.2795,-0.2721,-0.2721,-0.2693,-0.2698,-0.2698,-0.2698,-0.2698,-0.2698,-0.2698,0.0,-0.2698,-0.2691,-0.2779,-0.2968,-0.2812,-0.2011,-0.0234,-0.0078,-0.0039,-0.0039,-0.0039,0.0509,0.1691,0.1804,0.2111,0.2699,0.2728,0.2878,0.3096,0.0,0.0,0.0,0.0,0.0,0.0,0.0,0.0,0.0,0.0,0.0,0.0,0.0,0.0,0.0,0.0,0.0,0.0,0.0,0.0,0.0,-0.6615,-0.6708,-0.6508,-0.6657,-0.6966,-0.7318,-0.6996,-0.6629,-0.6315,-0.5842,-0.5389,-0.4993,-0.4841,-0.4686,-0.4457,-0.4504,-0.4534,-0.4534,-0.4313,-0.428,-0.445,-0.4067,-0.3976,-0.4136,-0.3853,-0.3695,-0.369,-0.3358,-0.3073,-0.29,-0.2751,-0.2686,-0.2686,-0.2695,-0.256,-0.215,-0.0335,-0.0436,-0.1615,-0.1615,-0.0998,-0.032,-0.1048,-0.1298,-0.1169,-0.0276,0.0,0.0,0.0,0.0,0.0,0.0,0.0,-0.0113,-0.0604,-0.1994,-0.3262,-0.3394,-0.3321,-0.3198,-0.3086,-0.2947,-0.2846,-0.2846,-0.2759,-0.2686,-0.2686,-0.2686,-0.2686,-0.2686,-0.2686,-0.2686,-0.2686,-0.2779,-0.2862,-0.2905,-0.3051,-0.2703,-0.1595,-0.1393,-0.1286,-0.1289,-0.0498,0.0166,0.0476,0.1736,0.2524,0.2681,0.3561,0.371,0.0,0.0,0.0,0.0,0.0,0.0,0.0,0.0,0.0,0.0,0.0,0.0,0.0,0.0,0.0,0.0,0.0,0.0,0.0,0.0,0.0,0.0,-0.8038,-0.8297,-0.8215,-0.8226,-0.8449,-0.8828,-0.8505,-0.8114,-0.7753,-0.7214,-0.6649,-0.6153,-0.5846,-0.5539,-0.5171,-0.5032,-0.4993,-0.5067,-0.4781,-0.4727,-0.4972,-0.4583,-0.4475,-0.4711,-0.4289,-0.4129,-0.425,-0.3855,-0.3606,-0.3426,-0.3317,-0.3239,-0.3239,-0.3047,-0.295,-0.2815,0.0,0.0,0.0,0.0,-0.2525,-0.2099,-0.2288,-0.2449,-0.2427,-0.1747,-0.1147,-0.0749,-0.0771,-0.0755,-0.0743,-0.0743,-0.0743,-0.0861,-0.1293,-0.2355,-0.3346,-0.3468,-0.3421,-0.3283,-0.3194,-0.3063,-0.2979,-0.2922,-0.2837,0.0,-0.2724,-0.2714,-0.2714,-0.2714,-0.2714,-0.2714,-0.2714,-0.2815,-0.2932,-0.2991,-0.3179,-0.3128,-0.2745,-0.2611,0.0,0.0,0.0,-0.1043,-0.0045,0.0988,0.0,0.0,0.0,0.372,0.3687,0.2082,0.0,0.0,0.2597,0.2305,0.0,0.0,0.0,0.0,0.0,0.0,0.0,0.0,0.0,0.0,0.0,0.0,0.0,0.0,0.0,0.0,-0.9649,-1.0178,-1.063,-1.0204,-1.007,-1.0642,-0.993,-0.9335,-0.9298,-0.8393,-0.7679,-0.7388,-0.6842,-0.6275,-0.5823,-0.5524,0.0,0.0,0.0,-0.5225,-0.5364,-0.4976,-0.488,-0.5066,-0.4635,-0.4544,-0.4778,-0.4431,-0.4287,-0.4226,-0.4086,-0.4014,-0.3963,-0.3638,-0.3488,-0.3422,-0.2922,-0.2248,-0.1649,-0.2715,-0.3107,-0.3098,-0.3117,0.0,0.0,-0.3601,-0.2875,-0.2022,-0.2022,-0.2008,-0.2021,-0.2021,-0.2021,-0.2221,-0.3107,-0.3458,-0.3563,-0.3465,-0.3376,-0.3333,-0.3333,-0.3214,-0.3072,-0.2983,-0.2944,-0.289,-0.2754,-0.2703,-0.2714,-0.2714,-0.2714,-0.2721,-0.2737,-0.2839,-0.2988,-0.313,-0.3252,0.0,-0.357,-0.3598,-0.361,-0.361,-0.3592,-0.2497,-0.009,0.0,0.0375,0.1154,0.1976,0.2944,0.3978,0.2073,0.1572,0.2412,0.24,0.1512,0.0,0.0,0.0,0.0,0.0,0.0,0.0,0.0,0.0,0.0,0.0,0.0,0.0,0.0,0.0,-1.0322,-1.0696,-1.1193,-1.2268,-1.2306,-1.1765,-1.0449,-0.9906,-0.9477,-0.915,-0.8407,-0.8082,-0.8383,-0.7968,-0.7686,-0.7682,-0.7624,-0.7609,-0.7625,-0.6965,-0.6697,-0.6944,-0.6245,-0.6002,-0.6265,-0.5941,0.0,-0.5878,-0.5213,-0.4766,-0.452,-0.4383,-0.4189,-0.4019,-0.4411,-0.4595,-0.4467,-0.3379,-0.2944,-0.2941,-0.3166,-0.3189,-0.3102,-0.3224,-0.3288,-0.3375,-0.3543,-0.3448,-0.327,-0.3234,-0.3262,0.0,-0.3242,-0.3242,-0.3287,-0.3509,-0.3567,-0.3583,-0.3579,-0.3536,-0.3536,-0.3536,-0.3414,-0.3256,-0.3229,-0.3125,-0.3069,-0.3041,-0.2839,-0.2714,-0.2714,-0.2714,-0.2725,-0.2849,-0.299,-0.3139,-0.3332,-0.3446,-0.3549,-0.3578,-0.3583,-0.3587,-0.3587,-0.3581,-0.2508,-0.0094,0.0,0.0099,0.0252,0.0415,0.0637,0.086,0.0442,0.0336,0.0504,0.0549,0.0329,0.0,0.0,0.0,0.0,0.0,0.0,0.0,0.0,0.0,0.0,0.0,-0.9189,0.0,0.0,-1.0368,-1.1431,-1.1796,-1.2181,-1.2817,-1.2881,-1.2469,-1.1352,-1.0894,-1.0493,-1.0054,-0.9709,-0.9392,-0.9181,-0.917,-0.8981,-0.8505,-0.8369,-0.8364,-0.843,-0.7893,-0.7612,-0.7645,-0.7088,-0.6817,-0.68,-0.6404,-0.6268,-0.6379,-0.5867,-0.5571,-0.5386,-0.5335,-0.521,-0.5112,-0.5187,-0.5135,-0.4953,-0.4308,-0.3914,-0.3725,-0.3406,-0.3332,-0.3361,-0.3437,-0.3464,-0.3476,-0.3554,-0.358,-0.3581,-0.3587,-0.3588,-0.3588,-0.3588,-0.3588,-0.3588,-0.3588,-0.3585,-0.358,-0.358,-0.358,-0.358,-0.358,-0.3519,-0.3441,-0.3321,-0.3246,-0.317,-0.3095,-0.3,-0.2876,-0.2805,-0.2795,-0.2823,-0.2898,-0.31,-0.3306,-0.3384,-0.3531,-0.358,-0.358,-0.359,-0.3079,-0.189,-0.1792,-0.1263,-0.005,0.0,0.0,0.0,0.0,0.0,0.0,0.0,0.0,0.0,0.0,0.0,0.0,0.0,0.0,0.0,0.0,0.0,0.0,0.0,-1.0993,-1.0578,-1.0857,-1.1067,-1.0781,-1.1377,-1.2004,-1.228,-1.2651,-1.2852,-1.2769,-1.2754,-1.2606,-1.2172,-1.1817,-1.1443,-1.0953,-1.0892,-1.0623,-1.0037,-1.0262,-1.0051,-0.9252,-0.8926,-0.8862,-0.9022,-0.8664,-0.8343,-0.8073,-0.767,-0.7342,-0.7014,-0.655,-0.6488,-0.6663,-0.6411,-0.6277,-0.6273,-0.6219,-0.626,-0.6319,-0.5876,-0.5621,-0.5441,-0.5362,-0.4996,-0.4511,-0.393,-0.3725,-0.3751,-0.3751,-0.3667,-0.358,-0.358,-0.358,-0.358,-0.358,-0.36,-0.3615,-0.3587,-0.36,-0.362,-0.362,-0.3602,-0.3587,-0.3615,-0.36,-0.358,-0.358,-0.3602,-0.3585,-0.3417,-0.3415,-0.3398,-0.3274,-0.3247,-0.3151,-0.2976,-0.2949,-0.2961,-0.299,-0.3202,-0.3403,-0.3434,-0.355,-0.3534,-0.3396,-0.3303,-0.2446,-0.0524,-0.0145,0.0,0.0,0.0,0.0,0.0,0.0,0.0,0.0,0.0,0.0,0.0,0.0,0.0,-1.034,-0.9687,-0.9721,-1.0712,-1.0738,-1.103,0.0,0.0,-1.2634,-1.2934,-1.3029,-1.2921,-1.2352,-1.2649,-1.2893,-1.2826,-1.2852,-1.2744,-1.2358,-1.23,-1.2168,-1.1814,-1.1646,-1.1447,-1.1023,-1.0683,-1.0735,-1.1423,-1.0804,-1.0478,-1.0641,-1.0288,-1.0104,-1.0118,-0.9635,-0.9116,-0.8598,-0.8113,-0.7578,-0.6979,-0.6957,-0.6944,-0.6964,-0.6673,-0.6543,-0.6526,-0.6307,-0.6488,-0.6907,-0.6607,-0.6586,-0.6761,-0.6259,-0.605,-0.5922,-0.5313,-0.4765,-0.4303,-0.4303,-0.4008,-0.358,-0.358,-0.358,-0.358,-0.358,-0.3668,-0.3743,-0.3615,-0.367,-0.3768,-0.3768,-0.3675,-0.3612,-0.3739,-0.3671,-0.358,-0.358,-0.3678,-0.3763,-0.3746,-0.3853,-0.3939,-0.3922,-0.3702,-0.3431,-0.3141,-0.306,-0.3108,-0.3241,-0.3286,-0.336,-0.3539,-0.357,-0.3306,-0.2583,-0.2215,-0.1986,-0.1948,-0.071,0.0,0.0,0.0,0.0,0.0,0.0,0.0,0.0,0.0,0.0,0.0,0.0,0.0,-1.329,-1.3186,-1.3304,-1.3156,-1.3788,-1.4647,-1.5337,-1.5203,-1.5006,-1.522,-1.4964,-1.4517,-1.3911,-1.3937,-1.4009,0.0,-1.3708,-1.3413,-1.3218,-1.2905,-1.242,-1.1729,-1.1632,-1.1556,-1.1474,-1.1841,-1.214,-1.2201,-1.2113,-1.1862,-1.151,-1.0944,-1.0649,-1.0649,-1.0203,-0.9947,-0.9903,-0.9176,-0.849,-0.7882,-0.7616,-0.7321,-0.6975,-0.6897,-0.684,-0.6844,-0.6938,-0.71,-0.7271,-0.7151,-0.7168,-0.7265,-0.6835,-0.6644,-0.6559,-0.565,-0.5132,-0.4911,-0.4911,-0.4863,-0.4739,-0.4381,-0.4361,-0.4394,-0.3976,-0.3877,-0.3912,-0.3853,-0.3878,-0.3924,-0.3924,-0.421,-0.4506,-0.4526,-0.4821,-0.5092,-0.5092,-0.5153,-0.5066,-0.4638,-0.4605,-0.4508,-0.4069,-0.3917,-0.3792,-0.3663,-0.3422,-0.3278,-0.3299,-0.3385,-0.3509,-0.3573,-0.3705,-0.3582,-0.313,-0.3088,-0.2808,-0.2261,-0.2485,-0.1825,-0.0055,0.0,0.0,0.0,0.0,0.0,0.0,0.0,0.0,0.0,0.0,0.0,-1.5839,-1.5912,-1.5817,-1.5584,-1.6527,-1.7424,-1.7036,-1.6975,-1.6982,-1.7001,-1.6513,-1.5873,-1.523,-1.5107,-1.494,-1.4516,-1.4111,-1.3743,-1.3535,-1.3066,-1.2552,-1.2064,-1.1959,-1.2077,-1.2507,-1.2734,-1.2883,-1.2996,-1.298,-1.2731,-1.2084,-1.1459,-1.0981,-1.0742,-1.0557,-1.045,-1.0456,-0.9803,-0.9172,-0.8555,-0.8108,-0.7663,-0.7238,-0.7193,-0.7144,-0.7161,-0.7462,-0.759,-0.7516,-0.7558,-0.7545,-0.75,-0.7321,-0.7228,-0.714,-0.6337,-0.581,-0.5585,-0.5757,-0.5734,-0.5641,-0.5243,-0.5266,-0.5285,-0.4751,-0.4638,-0.4667,-0.4618,-0.464,-0.4677,-0.4677,-0.5035,-0.5398,-0.5455,-0.5814,-0.6207,-0.6207,-0.6211,-0.6108,-0.5566,-0.5462,-0.5299,-0.4545,-0.4408,-0.428,-0.4082,-0.377,-0.3536,-0.349,-0.3632,-0.3702,-0.3702,-0.3847,-0.3871,-0.371,-0.3855,-0.3642,-0.2809,-0.3827,-0.3337,-0.0725,-0.0224,0.0,0.0,0.0,0.0,0.0,0.0,0.0,0.0,0.0,0.0,-1.7305,-1.6731,-1.6029,-1.7822,-1.8185,-1.8026,-1.789,-1.8062,-1.8214,-1.8097,-1.7619,-1.7026,-1.6297,-1.614,-1.5605,-1.4003,-1.372,-1.3391,-1.2553,-1.2204,-1.2307,-1.2958,-1.2891,-1.3207,-1.4306,-1.2798,-1.2372,-1.3856,-1.3026,-1.2436,-1.2483,-1.1923,-1.1199,-1.0327,-1.0684,-1.0455,-0.9559,-0.9532,-0.9244,-0.8696,-0.8164,-0.7874,-0.7882,-0.7587,-0.7496,-0.7513,-0.7779,-0.7746,-0.7537,-0.7792,-0.7739,-0.754,-0.7789,-0.7855,-0.7858,-0.7855,-0.7121,-0.6252,-0.6848,-0.6476,-0.5759,-0.6078,-0.6154,-0.6159,-0.6162,-0.6219,-0.6299,-0.6175,-0.6224,-0.6345,-0.6345,-0.6232,-0.6216,-0.6342,-0.6276,-0.6207,-0.6207,-0.6287,-0.6396,-0.6345,-0.647,-0.6347,-0.5579,-0.5331,-0.5014,-0.4292,-0.4053,-0.3999,-0.3999,-0.4004,-0.4005,-0.4005,-0.4011,-0.4011,-0.4007,-0.395,-0.3985,-0.4136,-0.4354,-0.3761,-0.2175,-0.0783,0.0,0.0,0.0,0.0,0.0,0.0,0.0,0.0,0.0,0.0,-1.8834,-1.9207,-1.9282,-1.9691,-1.99,-2.0143,-2.0511,-2.0084,-1.9538,-1.9462,-1.7937,-1.6383,-1.5503,-1.501,-1.4603,-1.423,-1.4269,-1.4348,-1.4317,-1.3948,-1.3611,-1.3501,-1.3445,0.0,-1.394,-1.4043,-1.4191,-1.4464,-1.4104,-1.3765,-1.3558,-1.2589,-1.1962,-1.1789,-1.1188,-1.1039,-1.1299,-1.0736,-1.0335,-1.0082,-0.8767,-0.8152,-0.8164,-0.7909,-0.7772,-0.7792,-0.8096,-0.8166,-0.8125,-0.8183,-0.8163,-0.8108,-0.7966,-0.7882,-0.7905,-0.8153,-0.7826,-0.7379,-0.7569,-0.7547,-0.7438,-0.7028,-0.7064,-0.7091,-0.6621,-0.6521,-0.6511,-0.649,-0.6523,-0.6529,-0.6529,-0.6841,-0.7217,-0.725,-0.7576,-0.7928,-0.7928,-0.7951,-0.7856,-0.7378,-0.7287,-0.6961,-0.5703,-0.5437,-0.5187,-0.4497,-0.4178,-0.4019,-0.4019,-0.4019,-0.4019,-0.4019,-0.406,-0.408,-0.4029,-0.4197,-0.4244,-0.4202,-0.4401,-0.3976,-0.2785,-0.0948,0.0,0.0,0.0,0.0,0.0,0.0,0.0,0.0,0.0,0.0,-2.0409,-2.0811,-2.0952,-2.1108,-2.1352,-2.1633,-2.1971,-2.1183,-2.0288,-2.0033,-1.8077,-1.6146,-1.5185,-1.4417,-1.3842,-1.3583,-1.3561,-1.3771,-1.4318,-1.3998,-1.3892,-1.4497,-1.4482,-1.4554,0.0,0.0,-1.5565,-1.4774,-1.4847,-1.4623,-1.3853,-1.3031,-1.2409,-1.1962,-1.1251,-1.1186,-1.1708,-1.1196,-1.0865,-1.0789,-0.9424,-0.87,-0.8494,-0.8231,-0.809,-0.8103,-0.84,-0.847,-0.8383,-0.8487,-0.8467,-0.8367,-0.828,-0.8243,-0.8267,-0.846,-0.8407,-0.8243,-0.8243,-0.8303,-0.834,-0.7973,-0.7961,-0.7996,-0.7509,-0.7399,-0.7399,-0.7399,-0.7399,-0.7399,-0.7399,-0.7723,-0.8099,-0.8099,-0.848,-0.8808,-0.8808,-0.8808,-0.8646,-0.8209,-0.8099,-0.761,-0.6143,-0.5492,-0.5003,-0.4572,-0.4299,-0.4177,-0.4177,-0.4177,-0.4177,-0.4177,-0.4265,-0.4284,-0.4185,-0.4353,-0.4423,-0.4329,-0.4423,-0.4193,-0.3569,-0.2288,-0.1117,-0.0,0.0,0.0,0.0,0.0,0.0,0.0,0.0,0.0,-2.1992,-2.1595,-2.1157,-2.2103,-2.2504,-2.2543,-2.2198,-2.1371,-2.0508,-1.9815,-1.8038,-1.634,0.0,0.0,-1.341,-1.2316,-1.1954,-1.2081,-1.294,-1.2716,-1.3379,0.0,0.0,0.0,0.0,0.0,0.0,-1.4807,-1.5216,-1.4927,-1.341,-1.3225,-1.2526,-1.12,-1.106,-1.1013,-1.1013,-1.0977,-1.0922,-1.087,-1.0083,-0.9448,-0.8965,-0.8595,-0.8397,-0.841,-0.8687,-0.8651,-0.8417,-0.8694,-0.8644,-0.8424,-0.8701,-0.8808,-0.8808,-0.8808,-0.8808,-0.8808,-0.8808,-0.8627,-0.8444,-0.8717,-0.8808,-0.8808,-0.8808,-0.8808,-0.8808,-0.8808,-0.8808,-0.8808,-0.8808,-0.8808,-0.8808,-0.8808,-0.8808,-0.8808,-0.8808,-0.8808,-0.8808,-0.8808,-0.8755,-0.8262,-0.6856,-0.5445,-0.4517,-0.4517,-0.4517,-0.4517,-0.4517,-0.4517,-0.4517,-0.4517,-0.4517,-0.4517,-0.4517,-0.4517,-0.4517,-0.4517,-0.4472,-0.4477,-0.4477,-0.449,-0.3134,-0.0279,-0.0056,0.0,0.0,0.0,0.0,0.0,0.0,0.0,-2.2575,-2.277,-2.2967,-2.2966,-2.3012,-2.2883,-2.2306,-2.1527,-2.0577,-1.9364,-1.7382,-1.561,0.0,0.0,0.0,-1.4008,-1.4284,0.0,-1.6191,-1.6156,0.0,-1.7191,0.0,-1.7141,-1.6909,-1.7361,0.0,-1.484,-1.4846,-1.4638,-1.3945,-1.382,-1.3616,-1.3314,-1.2807,-1.2549,-1.2549,-1.2099,-1.1853,-1.1822,-1.0625,-1.0006,-0.9827,-0.9054,-0.8694,-0.8701,-0.8774,-0.8764,-0.8704,-0.8778,-0.8764,-0.8704,-0.8778,-0.8808,-0.8808,-0.8808,-0.8808,-0.8808,-0.8808,-0.8761,-0.8711,-0.8781,-0.8808,-0.8808,-0.8808,-0.8808,-0.8808,-0.8808,-0.8808,-0.8808,-0.8808,-0.8808,-0.8808,-0.8808,-0.8808,-0.8808,-0.8808,-0.8808,-0.8808,-0.8808,-0.794,-0.702,-0.6642,-0.5445,-0.4517,-0.4517,-0.4517,-0.4517,-0.4517,-0.4517,-0.4517,-0.4517,-0.4517,-0.4517,-0.4517,-0.4517,-0.4517,-0.4517,-0.452,-0.4522,-0.4522,-0.4477,-0.4141,-0.3351,-0.1171,0.0,0.0,0.0,0.0,0.0,0.0,0.0,-2.375,-2.3668,-2.3619,-2.3291,-2.2975,-2.2618,-2.2034,-2.1089,-1.9946,-1.8573,-1.6767,-1.5167,-1.4322,-1.3157,-1.2622,0.0,0.0,0.0,-1.6342,-1.6663,-1.7116,0.0,-1.8251,0.0,-1.7805,-1.7895,-1.7209,-1.5296,-1.5376,-1.498,-1.3764,-1.3713,-1.3715,-1.3736,-1.3163,-1.2872,-1.282,-1.2624,-1.2417,-1.2185,-1.1033,-1.0467,-1.043,-0.9283,-0.8808,-0.8808,-0.8808,-0.8808,-0.8808,-0.8808,-0.8808,-0.8808,-0.8808,-0.8808,-0.8808,-0.8808,-0.8808,-0.8808,-0.8808,-0.8808,-0.8808,-0.8808,-0.8808,-0.8808,-0.8808,-0.8808,-0.8808,-0.8808,-0.8808,-0.8808,-0.8808,-0.8808,-0.8808,-0.8808,-0.8808,-0.8808,-0.8808,-0.8808,-0.8699,-0.8371,-0.7399,-0.6477,-0.6147,-0.5224,-0.4517,-0.4517,-0.4517,-0.4517,-0.4517,-0.4517,-0.4517,-0.4517,-0.4517,-0.4517,-0.4517,-0.4517,-0.4517,-0.4517,-0.4517,-0.4517,-0.4517,-0.4472,-0.448,-0.4485,-0.2854,-0.1342,0.0,0.0,0.0,0.0,0.0,0.0,-2.5054,-2.4393,-2.3692,-2.3423,-2.2833,-2.2194,-2.1575,-2.0389,-1.9031,-1.7658,-1.6219,-1.4957,-1.4152,-1.2636,-1.1751,-1.2459,0.0,-1.2626,-1.5352,-1.6036,-1.7036,-1.9139,-1.9048,-1.8824,-1.879,-1.8373,-1.7436,-1.5819,-1.606,-1.5361,-1.321,-1.3361,-1.3451,-1.3291,-1.2918,-1.2642,-1.245,-1.2742,-1.269,-1.2273,-1.1273,-1.0813,-1.0762,-0.9409,-0.8808,-0.8808,-0.8808,-0.8808,-0.8808,-0.8808,-0.8808,-0.8808,-0.8808,-0.8808,-0.8808,-0.8808,-0.8808,-0.8808,-0.8808,-0.8808,-0.8808,-0.8808,-0.8808,-0.8808,-0.8808,-0.8808,-0.8808,-0.8808,-0.8808,-0.8808,-0.8808,-0.8808,-0.8808,-0.8808,-0.8808,-0.8808,-0.8808,-0.8808,-0.859,-0.783,-0.7128,-0.6367,-0.5651,-0.495,-0.4517,-0.4517,-0.4517,-0.4517,-0.4517,-0.4517,-0.4517,-0.4519,-0.4519,-0.4519,-0.4519,-0.4519,-0.4519,-0.4517,-0.4517,-0.4517,-0.4519,-0.4472,-0.4425,-0.4322,-0.4274,-0.2974,-0.028,-0.0112,0.0,0.0,0.0,0.0,-2.5402,-2.4856,-2.4094,-2.4045,-2.3558,-2.2749,-2.1402,-2.0019,0.0,0.0,-1.5969,-1.5022,-1.4159,-1.3555,-1.3478,-1.4371,-1.4011,-1.4542,-1.7183,-1.7884,-1.8408,0.0,-1.9703,-1.9521,-1.8359,-1.8138,0.0,-1.5822,-1.5367,-1.4438,-1.271,-1.3828,-1.4105,-1.314,-1.3432,-1.3144,-1.2246,-1.267,-1.2847,-1.2769,-1.1449,-1.0813,-1.0762,-0.9409,-0.8808,-0.8808,-0.8808,-0.8808,-0.8808,-0.8808,-0.8808,-0.8808,-0.8808,-0.8808,-0.8808,-0.8808,-0.8808,-0.8808,-0.8808,-0.8808,-0.8808,-0.8808,-0.8808,-0.8808,-0.8808,-0.8808,-0.8808,-0.8808,-0.8808,-0.8808,-0.8808,-0.8808,-0.8808,-0.8808,-0.8808,-0.8808,-0.8808,-0.8808,-0.859,-0.783,-0.7128,-0.6367,-0.5651,-0.495,-0.4517,-0.4517,-0.4517,-0.4517,-0.4517,-0.4517,-0.452,-0.4475,-0.4475,-0.4475,-0.4475,-0.4475,-0.4472,-0.4517,-0.4517,-0.452,-0.4475,-0.4524,-0.4128,-0.3291,-0.3235,-0.279,-0.1841,-0.0614,0.0,0.0,0.0,0.0,-2.58,-2.5149,-2.4375,-2.4495,-2.3301,-2.1816,-2.0727,0.0,0.0,0.0,-1.559,-1.5172,-1.4753,-1.4092,0.0,-1.4802,-1.4114,-1.4455,-1.7246,-1.8005,-1.8676,-1.9763,-2.0087,-1.9901,-1.8985,-1.8398,-1.7407,-1.5808,-1.5731,-1.5019,-1.341,-1.4279,-1.4475,-1.3583,-1.4037,-1.3733,-1.2701,-1.2426,-1.2241,-1.1986,-1.0835,-1.0265,-1.0265,-0.926,-0.8808,-0.8808,-0.8808,-0.8808,-0.8808,-0.8808,-0.8808,-0.8808,-0.8808,-0.8808,-0.8808,-0.8808,-0.8808,-0.8808,-0.8808,-0.8808,-0.8808,-0.8808,-0.8808,-0.8808,-0.8808,-0.8808,-0.8808,-0.8808,-0.8808,-0.8808,-0.8808,-0.8808,-0.8808,-0.8808,-0.8808,-0.8808,-0.8808,-0.848,-0.7996,-0.7292,-0.6527,-0.5819,-0.5113,-0.4734,-0.4517,-0.4517,-0.4517,-0.4517,-0.4517,-0.4517,-0.4519,-0.4524,-0.4475,-0.4477,-0.4525,-0.4475,-0.4473,-0.4517,-0.4517,-0.4522,-0.4479,-0.3739,-0.3459,-0.3748,-0.3754,-0.3644,-0.3364,-0.1117,0.0,0.0,0.0,0.0,-2.6072,-2.5354,-2.4552,-2.4746,-2.2903,-2.0844,-2.0153,-1.8251,0.0,-1.5478,-1.53,-1.5229,-1.502,-1.4218,-1.3775,0.0,-1.3441,-1.3631,-1.6234,-1.7303,-1.833,0.0,-2.017,0.0,-1.9346,-1.8576,0.0,-1.5987,-1.5945,-1.5414,-1.4123,-1.4246,-1.4107,-1.3612,-1.4072,-1.3876,-1.2906,-1.2191,-1.1661,-1.1316,-1.0288,-0.9814,-0.9762,-0.911,-0.8808,-0.8808,-0.8808,-0.8808,-0.8808,-0.8808,-0.8808,-0.8808,-0.8808,-0.8808,-0.8808,-0.8808,-0.8808,-0.8808,-0.8808,-0.8808,-0.8808,-0.8808,-0.8808,-0.8808,-0.8808,-0.8808,-0.8808,-0.8808,-0.8808,-0.8808,-0.8808,-0.8808,-0.8808,-0.8808,-0.8808,-0.8808,-0.8808,-0.8371,-0.767,-0.675,-0.6147,-0.5492,-0.4625,-0.4517,-0.4517,-0.4517,-0.4517,-0.4517,-0.4517,-0.4517,-0.4517,-0.4517,-0.4473,-0.4479,-0.4525,-0.4479,-0.448,-0.4525,-0.4522,-0.4525,-0.4482,-0.3349,-0.3239,-0.4492,-0.4502,-0.4507,-0.4507,-0.2124,-0.0615,0.0,0.0,0.0,-2.5965,-2.5461,-2.4552,-2.4746,-2.2928,-2.0898,-2.017,0.0,-1.6429,-1.5494,-1.5296,-1.5024,-1.4114,-1.3752,-1.3388,0.0,0.0,-1.2669,-1.4105,-1.6025,-1.7416,-1.7831,0.0,0.0,-1.8391,-1.8131,-1.7619,-1.6528,-1.5112,-1.4215,-1.3942,-1.3021,-1.2507,-1.2377,-1.2812,-1.2804,-1.2273,-1.1974,-1.1796,-1.1711,-1.0399,-0.9814,-0.9762,-0.911,-0.8808,-0.8808,-0.8808,-0.8808,-0.8808,-0.8808,-0.8808,-0.8808,-0.8808,-0.8808,-0.8808,-0.8808,-0.8808,-0.8808,-0.8808,-0.8808,-0.8808,-0.8808,-0.8808,-0.8808,-0.8808,-0.8808,-0.8808,-0.8808,-0.8808,-0.8808,-0.8808,-0.8808,-0.8808,-0.8808,-0.8808,-0.8808,-0.8808,-0.8752,-0.8265,-0.6858,-0.6532,-0.6095,-0.4736,-0.4517,-0.4517,-0.4517,-0.4517,-0.4517,-0.4517,-0.4517,-0.4517,-0.4517,-0.448,-0.4496,-0.4494,-0.4504,-0.4506,-0.4496,-0.4482,-0.4482,-0.4496,-0.4361,-0.4356,-0.448,-0.4482,-0.4482,-0.4482,-0.4208,-0.2685,0.0,0.0,0.0,-2.462,-2.4944,-2.4731,-2.4448,-2.2026,-1.9675,-1.9502,0.0,-1.5076,-1.5263,-1.5174,-1.4948,-1.4592,-1.4382,-1.412,0.0,0.0,0.0,-1.4419,-1.5224,-1.6317,-1.8012,-1.8792,-1.9035,0.0,0.0,-1.65,-1.5024,-1.3552,-1.28,-1.2926,-1.2335,-1.1993,-1.2001,-1.2381,-1.2329,-1.1941,-1.184,-1.1814,-1.1765,-1.0868,-1.0415,-1.0364,-0.9714,-0.9309,-0.9145,-0.8881,-0.8711,-0.8561,-0.8734,-0.8808,-0.8808,-0.8808,-0.8808,-0.8808,-0.8808,-0.8808,-0.8808,-0.8808,-0.8808,-0.8808,-0.8808,-0.8808,-0.8808,-0.8808,-0.8808,-0.8808,-0.8808,-0.8808,-0.8808,-0.8808,-0.8808,-0.8808,-0.8808,-0.8808,-0.8808,-0.8808,-0.8431,-0.783,-0.6804,-0.6258,-0.5655,-0.468,-0.4517,-0.4517,-0.4517,-0.4517,-0.4517,-0.4517,-0.4517,-0.4517,-0.4517,-0.4482,-0.4494,-0.4485,-0.2853,-0.2181,-0.3074,-0.3128,-0.3526,-0.445,-0.4499,-0.4492,-0.449,-0.449,-0.42,-0.357,-0.4198,-0.3863,-0.2686,-0.0855,0.0,-2.262,-2.3484,-2.3807,-2.3429,-2.0851,-1.847,0.0,0.0,-1.413,-1.5052,-1.5009,-1.4832,-1.4898,-1.47,-1.4401,0.0,0.0,-1.3137,-1.381,-1.4304,-1.5234,-1.6963,0.0,-1.7586,-1.8064,-1.6823,-1.5423,-1.4072,-1.2614,-1.1958,-1.2262,-1.1675,-1.141,-1.1686,-1.1972,-1.1944,-1.1512,-1.1316,-1.1216,-1.1216,-1.0517,-1.0163,-1.0066,-0.9624,-0.9299,-0.9149,-0.8703,-0.8579,-0.8631,-0.8645,-0.8731,-0.8801,-0.8714,-0.8731,-0.8798,-0.8711,-0.8734,-0.8808,-0.8808,-0.8808,-0.8808,-0.8808,-0.8808,-0.8808,-0.8808,-0.8808,-0.8808,-0.8808,-0.8808,-0.8808,-0.8808,-0.8808,-0.8808,-0.8808,-0.8808,-0.8808,-0.8808,-0.8212,-0.7506,-0.675,-0.5982,-0.5271,-0.4625,-0.4517,-0.4517,-0.4517,-0.4517,-0.4517,-0.4517,-0.4517,-0.4517,-0.4517,-0.4482,-0.432,-0.3858,-0.145,-0.0447,-0.1507,-0.1562,-0.2011,-0.3143,-0.3595,-0.3818,-0.3811,-0.4271,-0.4152,-0.3457,-0.4141,-0.4485,-0.4438,-0.2345,-0.1084,-1.9976,-2.0879,-2.1368,-2.1497,-1.9497,-1.7577,0.0,-1.5737,-1.4047,-1.492,-1.484,-1.4613,-1.4688,-1.438,-1.3871,-1.3127,0.0,0.0,-1.146,-1.304,-1.4188,0.0,-1.5067,-1.6092,-1.6478,-1.5627,-1.4778,-1.4146,-1.2669,-1.1936,-1.2277,-1.0903,-1.0465,-1.1163,-1.1607,-1.1462,-1.0813,-1.0163,-0.9814,-0.9814,-0.9162,-0.8706,-0.8427,-0.843,-0.8497,-0.8659,-0.8163,-0.8383,-0.9146,-0.862,-0.8547,-0.8778,-0.849,-0.8554,-0.8771,-0.8487,-0.8561,-0.8808,-0.8808,-0.8808,-0.8808,-0.8808,-0.8808,-0.8808,-0.8808,-0.8808,-0.8808,-0.8808,-0.8808,-0.8808,-0.8808,-0.8808,-0.8808,-0.8808,-0.8808,-0.8808,-0.8808,-0.8212,-0.7506,-0.675,-0.5982,-0.5271,-0.4625,-0.4517,-0.4517,-0.4517,-0.4517,-0.4517,-0.4517,-0.4517,-0.4517,-0.4517,-0.4482,-0.3868,-0.2343,-0.0837,-0.0,-0.0,-0.0,-0.0056,-0.0056,-0.145,-0.2231,-0.2231,-0.3708,-0.4501,-0.4479,-0.449,-0.4492,-0.4479,-0.448,-0.3634,-1.7337,-1.8348,-1.8775,-1.8217,-1.6583,-1.5123,-1.5193,-1.3513,-1.2196,-1.3067,-1.2992,-1.2917,-1.3439,-1.3368,-1.3094,-1.271,-1.2594,0.0,0.0,0.0,0.0,-1.5659,-1.6771,-1.7005,-1.6001,-1.4989,-1.426,-1.3938,-1.2188,-1.1209,-1.1286,-1.0875,-1.0943,-1.1598,-1.1538,-1.1226,-1.0552,-1.0939,-1.0713,-0.985,-0.9901,-0.9745,-0.9404,-0.8948,-0.868,-0.8521,-0.8113,-0.8078,-0.8301,-0.8115,-0.8243,-0.85,-0.841,-0.8307,-0.8247,-0.8557,-0.8601,-0.854,-0.8738,-0.8808,-0.8808,-0.8808,-0.8808,-0.8808,-0.8808,-0.8808,-0.8808,-0.8808,-0.8808,-0.8808,-0.8808,-0.8808,-0.8808,-0.8808,-0.8808,-0.8646,-0.8159,-0.7886,-0.7343,-0.6088,-0.5651,-0.5271,-0.4625,-0.4517,-0.4517,-0.4517,-0.4517,-0.4517,-0.4517,-0.4517,-0.452,-0.4472,-0.448,-0.4315,-0.3811,-0.1454,0.0,0.0,0.0,0.0,0.0,-0.0448,-0.0671,-0.067,-0.252,-0.3474,-0.3457,-0.4297,-0.4634,-0.4483,-0.4517,-0.4252,0.0,-1.5464,-1.5709,-1.5202,-1.4026,0.0,-1.2996,-1.1968,-1.1266,-1.2111,-1.2145,-1.2164,-1.2677,-1.2746,-1.2826,-1.3165,-1.2931,0.0,0.0,0.0,0.0,-1.5103,-1.6042,-1.6111,-1.4829,-1.412,-1.3695,-1.3588,-1.1737,-1.0667,-1.0771,-1.0496,-1.0549,-1.1055,-1.0852,-1.0612,-1.0333,-1.0319,-1.0038,-0.947,-0.9463,-0.9291,-0.895,-0.8317,-0.811,-0.8224,-0.755,-0.7623,0.0,-0.7892,-0.7999,-0.8353,-0.8168,-0.7989,-0.7912,-0.821,-0.8333,-0.84,-0.8581,-0.8717,-0.8788,-0.8681,-0.8644,-0.8664,-0.8774,-0.8808,-0.8808,-0.8808,-0.8808,-0.8755,-0.848,-0.8371,-0.8371,-0.8371,-0.8371,-0.8265,-0.7777,-0.7506,-0.6907,-0.5758,-0.5271,-0.5003,-0.4572,-0.4517,-0.4517,-0.4517,-0.4517,-0.4517,-0.4517,-0.4517,-0.452,-0.4472,-0.4135,-0.3913,-0.3919,-0.2576,-0.1233,-0.0056,0.0,0.0,0.0,-0.1065,-0.168,-0.1678,-0.235,-0.2963,-0.3569,-0.4337,-0.4606,-0.4511,-0.4504,-0.4528,0.0,-1.2405,-1.2435,-1.2507,-1.1911,0.0,-1.1234,-1.1002,0.0,-1.1746,-1.1924,-1.2025,-1.2235,-1.2348,-1.2808,-1.4007,-1.3496,0.0,0.0,-1.3622,0.0,0.0,-1.3652,-1.3993,-1.3339,-1.3217,-1.3142,-1.3142,-1.1281,-1.0308,-1.0681,-0.98,-0.9462,-0.9781,-0.9629,-0.9747,-1.0063,-0.8659,-0.8179,-0.8582,-0.8111,-0.7732,-0.7435,-0.6895,-0.7063,-0.7708,-0.6708,-0.7144,-0.85,-0.7805,-0.7859,-0.8287,-0.7765,-0.7675,-0.7855,-0.7652,-0.7953,-0.8377,-0.84,-0.8571,-0.8731,-0.846,-0.8424,-0.843,-0.8721,-0.8808,-0.8808,-0.8808,-0.8808,-0.8646,-0.7886,-0.7723,-0.7667,-0.7616,-0.7613,-0.7613,-0.7557,-0.7017,-0.6312,-0.5597,-0.4948,-0.4517,-0.4517,-0.4517,-0.4517,-0.4517,-0.4517,-0.4517,-0.4517,-0.4517,-0.4517,-0.4519,-0.3677,-0.3118,-0.3119,-0.3759,-0.2977,-0.0168,0.0,0.0,0.0,-0.2921,-0.4514,-0.4514,-0.3078,-0.3077,-0.4567,-0.4546,-0.4539,-0.4549,-0.4539,-0.4529,-1.0287,0.0,-1.0696,-1.0773,-1.059,-1.0397,0.0,0.0,-0.9886,0.0,0.0,0.0,-1.0783,-1.0758,-1.0961,-1.2002,0.0,-1.263,-1.2703,-1.4599,0.0,-1.4153,-1.4952,-1.5188,-1.4053,-1.3167,-1.2647,-1.2647,-1.1468,-1.0396,-0.9675,-0.9536,-0.9257,-0.8849,-0.8481,-0.8512,-0.8888,-0.8752,-0.8225,-0.7404,-0.7551,-0.7418,-0.7124,-0.6953,-0.6789,-0.6617,-0.7003,-0.717,-0.7104,-0.7402,-0.7692,-0.8019,-0.7879,-0.7866,-0.7928,-0.8353,-0.8444,-0.8407,-0.8627,-0.8604,-0.8464,-0.8397,-0.8424,-0.843,-0.8721,-0.8808,-0.8808,-0.8808,-0.8808,-0.8646,-0.7886,-0.7723,-0.756,-0.702,-0.6858,-0.6694,-0.614,-0.5869,-0.5544,-0.4895,-0.4625,-0.4517,-0.4517,-0.4517,-0.4517,-0.4517,-0.4517,-0.4517,-0.4517,-0.4517,-0.452,-0.4473,-0.4306,-0.4139,-0.4147,-0.2235,-0.0783,-0.0056,0.0,0.0,0.0,-0.2869,-0.4523,-0.4514,-0.4149,-0.4303,-0.4953,-0.4759,-0.4697,-0.4808,-0.4692,-0.4575,-0.9786,-0.961,-0.9377,-0.9453,-0.9434,-0.9387,0.0,0.0,0.0,0.0,0.0,0.0,0.0,0.0,0.0,0.0,-1.2127,0.0,0.0,0.0,-1.356,-1.3409,-1.3559,-1.3612,-1.3451,-1.2636,-1.1939,-1.1372,-1.0368,-0.9282,-0.8202,-0.7772,-0.7391,-0.7058,-0.6835,-0.7404,-0.8862,-0.8323,-0.7816,-0.7409,-0.7317,-0.7178,-0.6985,-0.686,-0.6721,-0.6578,-0.6941,-0.6922,-0.6645,-0.7095,-0.7263,-0.7332,-0.7429,-0.7599,-0.7739,-0.7923,-0.8066,-0.8193,-0.835,-0.83,-0.8193,-0.833,-0.8235,-0.8088,-0.8474,-0.8514,-0.846,-0.8731,-0.8808,-0.8646,-0.7886,-0.7453,-0.7077,-0.6694,-0.6367,-0.598,-0.5594,-0.5485,-0.5326,-0.4625,-0.4517,-0.4517,-0.4517,-0.4517,-0.4517,-0.4517,-0.4517,-0.4517,-0.4517,-0.4517,-0.4519,-0.4525,-0.4525,-0.4473,-0.448,-0.3014,-0.145,-0.0112,0.0,0.0,0.0,-0.2245,-0.3771,-0.4497,-0.448,-0.4646,-0.4888,-0.4723,-0.4663,-0.4809,-0.4657,-0.4541,-0.9838,-0.9295,-0.8696,-0.8781,-0.8777,-0.8711,0.0,0.0,0.0,0.0,0.0,0.0,0.0,-1.0252,0.0,0.0,0.0,0.0,-1.1762,-1.117,-1.1117,-1.2018,-1.1545,-1.1438,-1.22,-1.1741,-1.0914,-0.9876,-0.8853,-0.7842,-0.6748,-0.5877,-0.5338,-0.5252,-0.5252,-0.6358,-0.864,-0.7493,-0.715,-0.7617,-0.7192,-0.6979,-0.6989,-0.6667,-0.6646,-0.6868,-0.6671,-0.6585,-0.658,-0.6829,-0.6799,-0.663,-0.6749,-0.705,-0.7412,-0.7117,-0.7395,-0.7875,-0.7829,-0.7859,-0.7899,-0.8156,-0.7936,-0.7617,-0.8136,-0.813,-0.7985,-0.8534,-0.8704,-0.859,-0.7877,-0.7238,-0.6696,-0.6477,-0.5982,-0.5487,-0.5378,-0.5326,-0.5164,-0.4625,-0.4517,-0.4517,-0.4517,-0.4517,-0.4517,-0.4517,-0.4517,-0.4517,-0.4517,-0.4517,-0.4517,-0.4517,-0.4517,-0.4517,-0.4517,-0.4525,-0.3405,-0.0837,-0.0279,0.0,0.0,-0.14,-0.2909,-0.4482,-0.4524,-0.4594,-0.4691,-0.456,-0.4563,-0.4687,-0.4557,-0.4541,-0.9784,-0.9675,-0.9547,-0.9669,-0.9572,-0.9437,0.0,0.0,0.0,0.0,0.0,0.0,0.0,-0.9194,-0.8912,0.0,0.0,-1.2213,-1.3201,-1.3872,-1.3649,-1.2039,-1.2277,-1.2262,-1.1414,-1.0406,-0.9572,-0.8865,-0.8222,-0.7395,-0.6258,-0.5944,-0.5616,-0.514,-0.5142,-0.5316,-0.5754,-0.6121,-0.6352,-0.648,-0.6813,-0.6979,-0.6982,-0.6477,-0.6303,-0.6322,-0.6541,-0.6484,-0.6298,-0.6561,-0.6615,-0.6557,-0.6098,-0.6418,-0.7172,-0.7082,-0.7415,-0.7892,-0.7629,-0.7584,-0.759,-0.7634,-0.7587,-0.758,-0.7889,-0.7918,-0.7902,-0.7991,-0.8247,-0.8341,-0.7826,-0.7613,-0.7233,-0.5977,-0.5597,-0.5326,-0.4787,-0.4679,-0.4625,-0.4517,-0.4517,-0.4517,-0.4517,-0.4517,-0.4517,-0.4517,-0.4517,-0.4517,-0.4517,-0.4517,-0.4517,-0.4517,-0.4517,-0.4517,-0.4517,-0.4519,-0.4299,-0.3858,-0.1394,0.0,0.0,-0.1396,-0.2906,-0.4494,-0.4472,-0.4594,-0.4691,-0.4668,-0.4668,-0.4691,-0.4667,-0.4587,-0.9679,-0.9773,-0.9761,-0.9787,-0.9666,-0.9471,-0.9179,0.0,0.0,0.0,0.0,0.0,0.0,0.0,-0.8498,-0.9412,0.0,-1.0577,-1.1138,-1.1132,-1.1076,-1.1183,-1.06,-1.0398,-1.0949,-0.9806,-0.8691,-0.7792,-0.7349,-0.6612,-0.5523,-0.5111,-0.4761,-0.4408,-0.4134,-0.4014,-0.4008,-0.4538,-0.5114,-0.5698,-0.595,-0.6076,-0.6081,-0.596,-0.5864,-0.5712,-0.5993,-0.596,-0.575,-0.6218,-0.6176,-0.5905,-0.595,-0.6141,-0.6404,-0.6693,-0.7207,-0.7659,-0.756,-0.7361,-0.7224,-0.7224,-0.7121,-0.7047,-0.7351,-0.7394,-0.7463,-0.7792,-0.8029,-0.8101,-0.8079,-0.778,-0.7338,-0.6819,-0.6086,-0.5433,-0.5111,-0.4732,-0.4517,-0.4517,-0.4517,-0.4517,-0.4517,-0.4517,-0.4517,-0.4517,-0.4517,-0.4517,-0.4517,-0.4517,-0.4517,-0.4517,-0.4517,-0.4517,-0.4517,-0.4517,-0.4524,-0.4489,-0.1675,0.0,0.0,-0.0671,-0.2122,-0.444,-0.4479,-0.4545,-0.4691,-0.4607,-0.4609,-0.4689,-0.4606,-0.4585,-0.9404,-0.9645,-0.9768,-0.9712,0.0,-0.9367,-0.9069,0.0,0.0,0.0,0.0,0.0,0.0,-0.8067,0.0,-0.8975,-0.9036,-0.9037,-0.9234,-0.8742,-0.8873,-1.0225,-0.9177,-0.89,-1.0324,-0.9353,-0.8175,-0.7136,-0.6792,-0.6082,-0.4841,-0.4384,-0.3929,-0.3337,-0.3119,-0.2887,-0.2684,-0.3218,-0.4012,-0.5059,-0.5142,-0.5212,-0.531,-0.5388,-0.5373,-0.5315,-0.5346,-0.537,-0.5305,-0.5653,-0.5569,-0.5348,-0.5655,-0.5719,-0.5638,-0.6083,-0.6546,-0.6985,-0.7028,-0.6881,-0.67,-0.6799,-0.6717,-0.663,-0.6854,-0.6967,-0.7078,-0.754,-0.7669,-0.7806,-0.8176,-0.791,-0.7533,-0.7506,-0.6675,-0.5853,-0.569,-0.5105,-0.4634,-0.4725,-0.4625,-0.4517,-0.4517,-0.4517,-0.4517,-0.4517,-0.4517,-0.4517,-0.4517,-0.4517,-0.4517,-0.4517,-0.4517,-0.4517,-0.4517,-0.4517,-0.4525,-0.4492,-0.201,-0.0335,-0.0,0.0,-0.1228,-0.3925,-0.4312,-0.4533,-0.4636,-0.4577,-0.4579,-0.4635,-0.4572,-0.4517,-0.8857,-0.9184,-0.9706,-0.9698,0.0,0.0,-0.9815,0.0,0.0,0.0,0.0,0.0,0.0,-0.7661,-0.7138,-0.7577,-0.8157,-0.882,-0.9635,-1.006,-1.0102,-0.9563,-0.9551,-0.9473,-0.918,-0.8656,-0.8016,-0.7247,-0.7054,-0.6224,-0.4534,-0.4383,-0.362,-0.2009,-0.2455,-0.2307,-0.1422,-0.2563,-0.3527,-0.427,-0.4589,-0.4934,-0.5262,-0.4753,-0.4794,-0.5262,-0.4707,-0.4794,-0.5262,-0.4737,-0.4824,-0.5262,-0.4739,-0.4879,-0.5303,-0.5217,-0.5316,-0.5484,-0.5611,-0.571,-0.5859,-0.6155,-0.6424,-0.6593,-0.6613,-0.681,-0.6989,-0.7035,-0.7045,-0.7178,-0.7765,-0.8117,-0.8101,-0.7088,-0.7031,-0.7002,-0.6316,-0.5596,-0.5129,-0.5402,-0.4948,-0.4517,-0.4517,-0.4517,-0.4517,-0.4517,-0.4517,-0.4517,-0.4517,-0.4517,-0.4517,-0.4517,-0.4517,-0.4517,-0.4517,-0.4517,-0.4522,-0.4479,-0.2959,-0.145,-0.0056,0.0,-0.0725,-0.2343,-0.3745,-0.448,-0.4534,-0.4522,-0.4522,-0.4534,-0.4522,-0.4517,-0.8477,-0.9053,-0.9466,-0.9006,0.0,0.0,0.0,0.0,0.0,0.0,0.0,0.0,0.0,0.0,-0.677,-0.6753,-0.7627,-0.8365,-0.8521,-0.8884,-0.922,-0.9481,-0.8819,-0.8555,-0.9131,-0.8311,-0.6944,-0.5036,-0.4842,-0.4539,-0.3883,-0.4541,-0.4148,-0.2366,-0.1461,-0.1107,-0.1312,-0.2482,-0.2868,-0.2412,-0.3356,-0.3922,-0.403,-0.3737,-0.379,-0.4105,-0.3895,-0.4101,-0.4614,-0.4472,-0.4498,-0.4563,-0.3933,-0.403,-0.4484,-0.4445,-0.4705,-0.5074,-0.5091,-0.5027,-0.4964,-0.5377,-0.5594,-0.5747,-0.6228,-0.6523,-0.679,-0.6971,-0.6979,-0.7118,-0.7535,-0.7725,-0.7779,-0.756,-0.7212,-0.6979,-0.6887,-0.6299,-0.5736,-0.5558,-0.5271,-0.5003,-0.4572,-0.4517,-0.4517,-0.4517,-0.4517,-0.4517,-0.4517,-0.4517,-0.4517,-0.4517,-0.4517,-0.4517,-0.4517,-0.4517,-0.4519,-0.4524,-0.3965,-0.2959,-0.145,-0.1394,-0.2064,-0.3576,-0.4195,-0.4473,-0.4517,-0.4517,-0.4517,-0.4517,-0.4517,-0.4517,-0.7974,-0.8792,-0.9382,0.0,0.0,0.0,0.0,0.0,0.0,0.0,0.0,0.0,0.0,0.0,0.0,-0.5897,-0.6871,-0.7605,-0.7418,-0.7804,-0.8336,-0.8932,-0.8153,-0.7586,-0.7577,-0.7518,-0.6176,-0.3055,-0.2563,-0.222,-0.1831,-0.2983,-0.3073,-0.1805,-0.0606,-0.0297,-0.087,-0.1719,-0.1839,-0.1314,-0.1934,-0.2587,-0.322,-0.313,-0.3185,-0.3325,-0.341,-0.3652,-0.4022,-0.3969,-0.4026,-0.4079,-0.3679,-0.3725,-0.3955,-0.3746,-0.3952,-0.4323,-0.4377,-0.4278,-0.4202,-0.4617,-0.4817,-0.4998,-0.5542,-0.6006,-0.6447,-0.669,-0.6855,-0.7025,-0.7056,-0.7309,-0.7543,-0.7615,-0.7322,-0.7124,-0.7413,-0.6751,-0.6018,-0.5873,-0.549,-0.5058,-0.4572,-0.4517,-0.4517,-0.4517,-0.4517,-0.4517,-0.4517,-0.4517,-0.4517,-0.4517,-0.4517,-0.4517,-0.4517,-0.4517,-0.4517,-0.4517,-0.4524,-0.4022,-0.2959,-0.2904,-0.3411,-0.4479,-0.4479,-0.4473,-0.4517,-0.4517,-0.4517,-0.4517,-0.4517,-0.4517,-0.7324,-0.8379,-0.9491,0.0,0.0,0.0,0.0,0.0,0.0,0.0,0.0,-0.6474,-0.6406,-0.5642,0.0,-0.4906,-0.579,-0.6493,-0.6458,-0.7139,-0.7656,-0.7656,-0.7679,-0.6702,-0.4136,-0.6121,-0.5833,-0.1567,-0.0455,0.0556,0.1742,0.0694,0.0058,0.003,0.0031,0.0032,0.0034,0.0034,-0.0424,-0.1265,-0.0392,-0.1062,-0.3053,-0.3093,-0.3095,-0.3097,-0.3418,-0.3579,-0.354,-0.3176,-0.3394,-0.3997,-0.3997,-0.3997,-0.3898,-0.3177,-0.2995,-0.3111,-0.325,-0.3416,-0.3651,-0.3896,-0.4174,-0.4426,-0.4567,-0.5217,-0.5913,-0.6147,-0.6559,-0.6852,-0.6349,-0.6852,-0.7385,-0.7048,-0.7245,-0.7545,-0.7812,-0.6798,-0.595,-0.65,-0.5443,-0.4519,-0.4517,-0.4517,-0.4517,-0.4517,-0.4517,-0.4517,-0.4517,-0.4517,-0.4517,-0.4517,-0.4517,-0.4517,-0.4517,-0.4517,-0.4517,-0.4517,-0.4517,-0.4522,-0.4479,-0.449,-0.4492,-0.4479,-0.4479,-0.4473,-0.4517,-0.4517,-0.4517,-0.4517,-0.4517,-0.4517,-0.8044,-0.8844,0.0,0.0,0.0,0.0,0.0,0.0,0.0,0.0,-0.7332,-0.6636,-0.6129,-0.5862,0.0,-0.5125,-0.5316,-0.4966,-0.3414,-0.4241,-0.5029,-0.5029,-0.6596,-0.6234,-0.2441,-0.0029,0.1349,0.1433,0.2788,0.324,0.2418,0.3354,0.3576,0.2767,0.178,0.1268,0.1261,0.1254,0.1134,0.0884,0.1135,0.0491,-0.0931,-0.1554,-0.183,-0.1857,-0.1932,-0.212,-0.2346,-0.2649,-0.2978,-0.3303,-0.3303,-0.3192,-0.3047,-0.2832,-0.2776,-0.2833,-0.2876,-0.2907,-0.3039,-0.3381,-0.3563,-0.3739,-0.4409,-0.4795,-0.505,-0.5455,-0.5696,-0.5779,-0.561,-0.5745,-0.5911,-0.5838,-0.5874,-0.6044,-0.6471,-0.6218,-0.5902,-0.5849,-0.549,-0.5056,-0.4572,-0.4517,-0.4517,-0.4517,-0.4517,-0.4517,-0.4517,-0.4517,-0.4517,-0.4517,-0.4517,-0.4517,-0.4517,-0.4517,-0.4517,-0.4517,-0.4517,-0.4519,-0.4522,-0.4525,-0.4525,-0.4522,-0.4522,-0.452,-0.4517,-0.4517,-0.4517,-0.4517,-0.4517,-0.4517,-0.8491,-0.9065,0.0,0.0,0.0,-0.8554,-0.6162,0.0,0.0,0.0,0.0,-0.3607,-0.3117,-0.2882,-0.2636,-0.2327,-0.2524,-0.2263,-0.0907,-0.0768,-0.0798,-0.0798,-0.2161,-0.2072,0.0515,0.3744,0.5286,0.4409,0.5156,0.5093,0.3778,0.4778,0.5144,0.4556,0.3938,0.3354,0.279,0.258,0.2485,0.2472,0.2469,0.2103,0.1339,-0.0121,-0.0773,-0.0783,-0.0767,-0.0915,-0.1127,-0.1482,-0.1903,-0.2358,-0.2752,-0.2803,-0.2688,-0.2688,-0.2684,-0.2714,-0.2714,-0.2714,-0.2747,-0.2972,-0.3068,-0.3186,-0.3757,-0.4122,-0.4442,-0.4785,-0.5066,-0.526,-0.5,-0.4957,-0.5,-0.526,-0.5305,-0.5401,-0.581,-0.5719,-0.5537,-0.5432,-0.5227,-0.4948,-0.4572,-0.4517,-0.4517,-0.4517,-0.4517,-0.4517,-0.4517,-0.4517,-0.4517,-0.4517,-0.4517,-0.4517,-0.4517,-0.4517,-0.4517,-0.4517,-0.4517,-0.4517,-0.4517,-0.4517,-0.4517,-0.4517,-0.4517,-0.4517,-0.4517,-0.4517,-0.4517,-0.4517,-0.4517,-0.4517,-0.8808,0.0,0.0,0.0,-0.9409,0.0,-0.3873,-0.3437,-0.3862,-0.3664,0.0,0.1441,0.1916,0.2144,0.2315,0.2504,0.1985,0.1533,0.1533,0.3104,0.4276,0.4276,0.4268,0.4233,0.4194,0.5612,0.6662,0.6955,0.6707,0.624,0.5588,0.5406,0.5419,0.5657,0.6134,0.5775,0.4541,0.3888,0.358,0.3596,0.3595,0.3554,0.3421,0.1284,0.0201,0.0,0.0,0.0,0.0,0.0,-0.0469,-0.1272,-0.2118,-0.2494,-0.2595,-0.2663,-0.2691,-0.2716,-0.2716,-0.2716,-0.2714,-0.2714,-0.2714,-0.2708,-0.2864,-0.3378,-0.3964,-0.4075,-0.4635,-0.5002,-0.448,-0.4347,-0.4478,-0.5,-0.5147,-0.5215,-0.5452,-0.515,-0.4911,-0.5141,-0.4831,-0.4501,-0.4515,-0.4517,-0.4517,-0.4517,-0.4517,-0.4517,-0.4517,-0.4517,-0.4517,-0.4517,-0.4517,-0.4517,-0.4517,-0.4517,-0.4517,-0.4517,-0.4517,-0.4517,-0.4517,-0.4517,-0.4517,-0.4517,-0.4517,-0.4517,-0.4517,-0.4517,-0.4517,-0.4517,-0.4517,-0.4517,0.0,-0.9798,0.0,0.0,-0.7637,-0.5475,-0.351,-0.0802,0.1632,0.2858,0.3374,0.4375,0.6949,0.4776,0.3474,0.6192,0.6498,0.6403,0.6403,0.6774,0.7039,0.7039,0.7037,0.6859,0.6372,0.6683,0.689,0.6838,0.6767,0.6707,0.6658,0.6806,0.6936,0.6998,0.6449,0.618,0.6191,0.4825,0.4198,0.4371,0.421,0.3897,0.3478,0.2977,0.1728,0.0,0.0,0.0,0.0,0.0,-0.0101,-0.0302,-0.0504,-0.1006,-0.1676,-0.2423,-0.2696,-0.2695,-0.2695,-0.2688,-0.2714,-0.2714,-0.2714,-0.2708,-0.2864,-0.3081,-0.3307,-0.3467,-0.3712,-0.3926,-0.3796,-0.3751,-0.3796,-0.3926,-0.4064,-0.4118,-0.42,-0.4199,-0.4264,-0.4424,-0.4325,-0.4329,-0.4498,-0.4517,-0.4517,-0.4517,-0.4517,-0.4517,-0.4517,-0.4517,-0.4517,-0.4517,-0.4517,-0.4517,-0.4517,-0.4517,-0.4517,-0.4517,-0.4517,-0.4517,-0.4517,-0.4517,-0.4517,-0.4517,-0.4517,-0.4517,-0.4517,-0.4517,-0.4517,-0.4517,-0.4517,-0.4517,0.0,0.0,0.0,-0.7108,0.0,-0.2885,-0.0834,0.2418,0.5363,0.6621,0.6497,0.6672,0.8364,0.708,0.636,0.8183,0.847,0.8631,0.9039,0.8746,0.8631,0.9039,0.8723,0.8347,0.8038,0.8007,0.7971,0.7912,0.7903,0.7835,0.7684,0.7619,0.754,0.7404,0.6767,0.6423,0.6404,0.5667,0.5198,0.4977,0.4982,0.4704,0.4198,0.3617,0.2599,0.1255,0.0816,0.0369,0.0,0.0,0.0,0.0,0.0,-0.0268,-0.0737,-0.1242,-0.178,-0.232,-0.2595,-0.2691,-0.2714,-0.2714,-0.2714,-0.2728,-0.2776,-0.2901,-0.3051,-0.3159,-0.3309,-0.3487,-0.3561,-0.358,-0.358,-0.358,-0.3636,-0.3692,-0.3692,-0.3807,-0.3956,-0.4058,-0.4145,-0.4241,-0.4493,-0.4517,-0.4517,-0.4517,-0.4517,-0.4517,-0.4517,-0.4517,-0.4517,-0.4517,-0.4517,-0.4517,-0.4517,-0.4517,-0.4517,-0.4517,-0.4522,-0.4522,-0.4517,-0.4522,-0.4522,-0.4517,-0.4522,-0.4525,-0.4525,-0.4475,-0.4479,-0.4479,-0.4479,-0.4479,0.0,0.0,0.0,-0.439,-0.2577,0.0,0.2122,0.5002,0.7317,0.8049,0.8272,0.8362,0.8425,0.8794,0.9143,0.9329,0.9173,0.9381,1.0382,0.9665,0.9338,1.0147,0.9495,0.8981,0.8981,0.8981,0.9006,0.9082,0.9082,0.8943,0.8621,0.8261,0.7933,0.7688,0.7249,0.685,0.6497,0.6502,0.6223,0.567,0.5702,0.5513,0.5119,0.4,0.3213,0.2706,0.1893,0.1139,0.047,0.0302,0.0134,0.0,0.0,0.0,0.0,0.0,-0.0637,-0.161,-0.2426,-0.2693,-0.2684,-0.2684,-0.2684,-0.2684,-0.2684,-0.279,-0.2896,-0.3013,-0.3172,-0.3338,-0.3507,-0.3561,-0.358,-0.358,-0.3581,-0.3588,-0.3612,-0.3729,-0.3875,-0.4031,-0.413,-0.4323,-0.4498,-0.4519,-0.4519,-0.4517,-0.452,-0.4522,-0.4517,-0.4519,-0.4519,-0.4517,-0.4519,-0.452,-0.452,-0.4522,-0.4522,-0.4522,-0.4477,-0.4363,-0.4127,-0.4363,-0.4477,-0.4524,-0.4473,-0.4477,-0.4479,-0.449,-0.4379,-0.4096,-0.4096,-0.4096,0.0,0.0,0.0,0.0,-0.0906,0.0961,0.0,0.0,0.6327,0.0,0.7636,0.8999,0.9344,0.9189,0.9316,1.0251,0.9471,0.9277,1.0793,0.9708,0.8969,0.9547,0.8955,0.8491,0.8491,0.8491,0.8635,0.8987,0.9017,0.914,0.9422,0.9231,0.9007,0.8792,0.8227,0.7978,0.8086,0.7307,0.6879,0.6778,0.605,0.5723,0.5746,0.4944,0.3999,0.2932,0.2651,0.2459,0.2288,0.1474,0.067,0.0,0.0,0.0,0.0,0.0,-0.0101,-0.047,-0.2129,-0.2705,-0.2696,-0.2696,-0.2696,-0.2696,-0.2696,-0.2724,-0.2764,-0.2894,-0.3097,-0.3313,-0.3331,-0.3478,-0.358,-0.358,-0.3587,-0.3626,-0.3739,-0.3883,-0.4034,-0.4137,-0.4334,-0.4494,-0.4513,-0.4525,-0.4473,-0.4519,-0.4479,-0.4484,-0.4519,-0.4525,-0.4472,-0.4519,-0.4525,-0.4477,-0.4477,-0.4485,-0.4492,-0.4492,-0.4494,-0.3922,-0.2564,-0.3808,-0.4494,-0.4492,-0.4473,-0.4524,-0.4479,-0.448,-0.3802,-0.2512,-0.2512,-0.2512,-0.709,0.0,-0.4284,0.0,0.0557,0.2404,0.4,0.0,0.5872,0.6135,0.7033,0.7974,0.8636,0.9078,0.9627,1.0507,1.019,1.0159,1.1128,1.0244,0.952,0.9601,0.8933,0.8457,0.8457,0.8628,0.8813,0.8983,0.9207,0.9415,0.9594,0.9406,0.9317,0.9333,0.8968,0.8633,0.835,0.82,0.7951,0.7613,0.6995,0.6876,0.713,0.5698,0.4481,0.3555,0.3202,0.292,0.2663,0.2253,0.1847,0.1477,0.0938,0.0436,0.0,0.0,0.0,-0.0101,-0.0908,-0.1512,-0.1913,-0.1913,-0.1913,-0.1913,-0.1913,-0.2289,-0.2702,-0.2784,-0.2856,-0.3022,-0.3399,-0.3449,-0.3473,-0.3568,-0.3588,-0.3443,-0.2821,-0.3372,-0.4031,-0.416,-0.4375,-0.4524,-0.4519,-0.452,-0.4525,-0.4525,-0.448,-0.42,-0.3345,-0.3973,-0.4485,-0.4482,-0.4485,-0.4147,-0.3296,-0.3186,-0.3188,-0.3188,-0.4045,-0.3816,-0.2286,-0.3702,-0.4103,-0.3244,-0.4086,-0.4489,-0.4497,-0.2794,-0.1619,-0.095,-0.095,-0.095,0.0,0.0,-0.2417,-0.03,0.1199,0.265,0.0,0.0,0.5518,0.5935,0.64,0.6924,0.7568,0.8488,0.9418,1.024,1.0177,1.03,1.1067,1.0258,0.9571,0.9512,0.8807,0.8322,0.8322,0.8547,0.8762,0.8911,0.9198,0.9432,0.9591,0.9458,0.9417,0.9525,0.9425,0.9114,0.8558,0.8851,0.8729,0.8171,0.7823,0.7751,0.789,0.6274,0.5045,0.4169,0.3568,0.308,0.2737,0.2711,0.2695,0.263,0.1913,0.1274,0.0671,0.0402,0.0201,0.0,0.0,-0.0436,-0.0971,-0.0971,-0.0971,-0.0971,-0.0971,-0.1443,-0.2069,-0.2297,-0.2339,-0.2513,-0.3193,-0.3387,-0.3428,-0.3554,-0.3382,-0.2903,-0.2002,-0.2724,-0.3556,-0.3676,-0.413,-0.448,-0.4472,-0.4472,-0.4477,-0.4482,-0.386,-0.3072,-0.2287,-0.2851,-0.3474,-0.3868,-0.4271,-0.4044,-0.2909,-0.2066,-0.1619,-0.1619,-0.2747,-0.286,-0.1675,-0.2747,-0.2973,-0.2235,-0.3304,-0.4104,-0.4514,-0.2239,-0.0727,0.0,0.0,0.0,0.0,-0.4462,0.0,0.0073,0.0,0.0,0.0,0.0,0.503,0.4759,0.5665,0.6522,0.657,0.7305,0.8238,0.9293,0.8776,0.8784,1.0335,0.9197,0.8388,0.888,0.8293,0.7833,0.7833,0.7847,0.8105,0.867,0.8728,0.8999,0.9565,0.9591,0.9505,0.9321,0.9486,0.9474,0.925,0.9083,0.8797,0.8382,0.8171,0.7785,0.7231,0.6681,0.582,0.4708,0.3725,0.313,0.2871,0.2751,0.2688,0.2698,0.263,0.2595,0.2459,0.1575,0.0704,0.0,0.0,-0.0034,-0.0067,-0.0067,-0.0067,-0.0067,-0.0067,-0.0101,-0.0302,-0.1142,-0.1361,-0.1599,-0.2522,-0.3149,-0.3585,-0.3594,-0.2744,-0.1878,-0.1827,-0.2059,-0.229,-0.2321,-0.3467,-0.4496,-0.4496,-0.4504,-0.4507,-0.4497,-0.2071,-0.0727,-0.2009,-0.106,-0.0781,-0.2176,-0.3649,-0.4455,-0.4397,-0.1738,-0.0112,-0.0112,-0.0168,-0.0224,-0.0112,-0.0168,-0.0841,-0.2191,-0.2299,-0.303,-0.4514,-0.4342,-0.2807,0.0,0.0,0.0,0.0,0.0,0.0,-0.0211,0.1002,0.1651,0.1558,0.2556,0.377,0.4721,0.5289,0.5747,0.6212,0.6985,0.7768,0.8454,0.8452,0.8424,0.8611,0.8141,0.762,0.7213,0.6934,0.6839,0.7009,0.7503,0.7713,0.7493,0.831,0.8753,0.8576,0.9099,0.9369,0.9301,0.9616,0.9755,0.9689,0.9351,0.9053,0.8784,0.8586,0.8464,0.839,0.7525,0.6819,0.62,0.4859,0.374,0.2878,0.2665,0.2627,0.2688,0.2688,0.263,0.2454,0.2131,0.1768,0.1323,0.078,0.0569,0.0604,0.0783,0.0463,0.0,0.0,0.0,-0.0064,-0.0365,-0.0476,-0.08,-0.231,-0.2879,-0.3112,-0.3514,-0.2085,-0.0638,-0.0624,-0.0713,-0.0799,-0.0808,-0.121,-0.1899,-0.2851,-0.3021,-0.3363,-0.4335,-0.3599,-0.2355,-0.0951,-0.0336,-0.0224,-0.0727,-0.1288,-0.1626,-0.1626,-0.0617,0.0,0.0,0.0,0.0,0.0,0.0,-0.0224,-0.0785,-0.0785,-0.1064,-0.1626,-0.3544,-0.2977,0.0,0.0,0.0,0.121,0.0,0.0,0.0,0.0,0.1417,0.0264,0.1352,0.2754,0.3282,0.431,0.529,0.5895,0.6531,0.71,0.7523,0.775,0.772,0.732,0.7255,0.7026,0.6408,0.6336,0.6395,0.6582,0.7082,0.7329,0.7154,0.7875,0.8257,0.8101,0.8653,0.9079,0.9327,0.9675,0.9864,0.9864,0.9557,0.9262,0.8992,0.8796,0.8721,0.8734,0.7886,0.7314,0.6926,0.5483,0.4183,0.3069,0.2756,0.2666,0.2709,0.2658,0.2547,0.2425,0.2347,0.2272,0.208,0.1512,0.1259,0.1241,0.1411,0.1129,0.0713,0.0506,0.0444,0.0373,0.0066,0.0,-0.0271,-0.1476,-0.2017,-0.2454,-0.3396,-0.2381,-0.0995,-0.0186,0.0,0.0,0.0,0.0,-0.0326,-0.1315,-0.1482,-0.1821,-0.2857,-0.2977,-0.2244,-0.028,0.0,0.0,0.0,0.0,0.0,0.0,0.0,0.0,0.0,0.0,0.0,0.0,0.0,0.0,0.0,0.0,0.0,-0.0,-0.202,-0.1963,0.0,0.0,0.0,0.0,0.0,0.0,0.0,0.0,0.0,0.0025,0.0,0.2104,0.0444,0.275,0.517,0.546,0.5831,0.6195,0.6541,0.6582,0.6582,0.6582,0.6582,0.6582,0.6582,0.6582,0.6599,0.6599,0.6616,0.694,0.7701,0.7413,0.7518,0.8224,0.8283,0.8642,0.9379,0.9655,0.9793,0.9808,0.9675,0.9418,0.902,0.882,0.851,0.8121,0.7708,0.7272,0.675,0.5572,0.4472,0.3529,0.3093,0.2841,0.2723,0.2567,0.2502,0.2452,0.2254,0.2145,0.2084,0.2111,0.1977,0.1816,0.182,0.1989,0.2069,0.1501,0.1344,0.1177,0.033,0.0067,0.0034,0.0,-0.0618,-0.1644,-0.3131,-0.3564,-0.2975,-0.0629,-0.0046,0.0,0.0,0.0,0.0,0.0,0.0,0.0,0.0,0.0,0.0,0.0,0.0,0.0,0.0,0.0,0.0,0.0,0.0,0.0,0.0,0.0,0.0,0.0,0.0,0.0,0.0,0.0,0.0,0.0,0.0,0.0,0.0,0.0,0.0,0.6681,0.0,0.0,0.0,0.0,0.0,0.0616,0.1369,0.2115,0.2465,0.3589,0.4291,0.356,0.4821,0.6021,0.6213,0.6283,0.6266,0.6123,0.6087,0.6153,0.6295,0.6312,0.6395,0.6582,0.6865,0.693,0.6667,0.7254,0.7511,0.7234,0.7901,0.8642,0.9379,0.9474,0.9672,1.0014,0.9831,0.9716,0.9644,0.9302,0.9002,0.8733,0.833,0.7851,0.7272,0.6587,0.5712,0.4661,0.3821,0.3451,0.3398,0.306,0.2605,0.2127,0.2088,0.1978,0.1906,0.2116,0.2,0.1855,0.2137,0.2079,0.1897,0.1887,0.2073,0.2257,0.2021,0.1462,0.0811,0.0176,-0.0187,-0.0476,-0.0885,-0.2332,-0.3395,-0.2748,-0.1225,0.0,0.0,0.0,0.0,0.0,0.0,0.0,0.0,0.0,0.0,0.0,0.0,0.0,0.0,0.0,0.0,0.0,0.0,0.0,0.0,0.0,0.0,0.0,0.0,0.0,0.0,0.0,0.0,0.0,0.0,0.0,0.0,0.0,0.0,0.0,0.0,0.0,0.0,0.0,0.0,0.1414,0.1354,0.1827,0.3203,0.2974,0.2524,0.2586,0.4413,0.5702,0.5067,0.5398,0.5769,0.5881,0.5905,0.5936,0.6064,0.6082,0.6177,0.6418,0.6638,0.6736,0.6625,0.6939,0.7044,0.6809,0.7417,0.8165,0.9082,0.916,0.9446,0.9966,0.9807,0.9764,0.9857,0.9476,0.9197,0.8992,0.8674,0.8238,0.773,0.7287,0.6786,0.619,0.5056,0.4255,0.3744,0.3454,0.3079,0.2694,0.2653,0.2501,0.2361,0.2512,0.2409,0.2214,0.2438,0.236,0.2172,0.222,0.2438,0.2713,0.2706,0.2317,0.1767,0.1256,0.0854,0.0537,0.0523,-0.0422,-0.1751,-0.3253,-0.1684,0.0,0.0,0.0,0.0,0.0,0.0,0.0,0.0,0.0,0.0,0.0,0.0,0.0,0.0,0.0,0.0,0.0,0.0,0.0,0.0,0.0,0.0,0.0,0.0,0.0,0.0,0.0,0.0,0.0,0.0,0.0,0.0,0.0,0.0,0.0,0.0,0.0,0.0,0.5682,0.0,0.2562,0.1735,0.1702,0.3084,0.171,0.0718,0.2231,0.4117,0.5018,0.3697,0.4333,0.5208,0.5784,0.5826,0.5826,0.5887,0.5869,0.5931,0.6142,0.6195,0.6444,0.7021,0.6507,0.6352,0.6737,0.6877,0.7465,0.8611,0.8739,0.9103,0.9776,0.9669,0.9696,0.9856,0.9549,0.9295,0.9055,0.8829,0.853,0.8169,0.773,0.7657,0.775,0.651,0.524,0.4076,0.3849,0.3742,0.3663,0.3539,0.3345,0.3144,0.3147,0.2965,0.274,0.2743,0.2721,0.2672,0.2489,0.2593,0.2777,0.2779,0.2721,0.2693,0.2684,0.2065,0.1471,0.1509,0.1747,0.1091,-0.2115,-0.122,0.0179,0.0045,0.0,0.0,0.0,0.0,0.0,0.0,0.0,0.0,0.0,0.0,0.0,0.0,0.0,0.0,0.0,0.0,0.0,0.0,0.0,0.0,0.0,0.0,0.0,0.0,0.0,0.0,0.0,0.0,0.0,0.0,0.0,0.0,0.0,0.0,0.0,0.0,0.6823,0.0,0.4765,0.4189,0.3614,0.2712,0.2168,0.1869,0.1949,0.2311,0.2897,0.3815,0.4241,0.4712,0.547,0.5384,0.5422,0.5845,0.5704,0.568,0.5931,0.6094,0.6177,0.6153,0.6039,0.6136,0.6535,0.6582,0.7128,0.8262,0.8161,0.8599,0.9635,0.9666,0.9857,1.0205,1.0142,0.9884,0.9469,0.9047,0.8824,0.8706,0.8084,0.7936,0.8068,0.7435,0.6427,0.5196,0.4473,0.391,0.354,0.3505,0.3464,0.3429,0.3424,0.3238,0.3026,0.3019,0.2872,0.2686,0.2663,0.2905,0.3185,0.3183,0.2951,0.2693,0.2698,0.2574,0.2466,0.2682,0.2816,0.2724,0.2282,0.1821,0.116,0.0179,0.0,0.0,0.0,0.0,0.0,0.0,0.0,0.0,0.0,0.0,0.0,0.0,0.0,0.0,0.0,0.0,0.0,0.0,0.0,0.0,0.0,0.0,0.0,0.0,0.0,0.0,0.0,0.0,0.0,0.0,0.0,0.0,0.0,0.0,0.0,0.8209,0.765,0.0,0.0,0.5999,0.5271,0.4295,0.4091,0.3967,0.3522,0.3232,0.3394,0.4427,0.4422,0.4402,0.4655,0.4938,0.5107,0.5107,0.5228,0.5347,0.5491,0.5432,0.5427,0.5502,0.5502,0.564,0.5993,0.6005,0.6491,0.7572,0.7636,0.8141,0.9135,0.9419,0.8877,0.7574,0.9189,0.9042,0.7346,0.6905,0.6707,0.669,0.6348,0.7019,0.8339,0.8132,0.7532,0.6643,0.5602,0.4963,0.4621,0.438,0.4212,0.4094,0.4106,0.3844,0.3497,0.3507,0.3323,0.3091,0.3104,0.331,0.3527,0.3342,0.3165,0.294,0.2753,0.2706,0.2763,0.2958,0.3064,0.3169,0.3405,0.3045,0.2502,0.1923,0.1297,0.0716,0.009,0.0,0.0,0.0,0.0,0.0,0.0,0.0,0.0,0.0,0.0,0.0,0.0,0.0,0.0,0.0,0.0,0.0,0.0,0.1459,0.2247,0.2244,0.1511,0.1118,0.1118,0.1118,0.0727,0.0056,0.157,0.1458,0.9168,0.9138,0.903,0.8569,0.8297,0.8101,0.0,0.0,0.0,0.6165,0.5979,0.5749,0.5312,0.4801,0.4552,0.4881,0.4604,0.4155,0.3578,0.4059,0.4383,0.4164,0.4333,0.4573,0.4853,0.4661,0.4671,0.5069,0.5035,0.5127,0.5411,0.543,0.5881,0.6868,0.7062,0.7667,0.8728,0.7976,0.6967,0.5758,0.7108,0.6479,0.4111,0.378,0.3637,0.3637,0.3637,0.5482,0.8506,0.8599,0.8428,0.7973,0.6742,0.6152,0.5941,0.5467,0.5141,0.4889,0.4745,0.439,0.3969,0.3907,0.3769,0.3608,0.3728,0.3803,0.3821,0.3628,0.3423,0.3227,0.2907,0.2746,0.2727,0.2907,0.3037,0.3134,0.3323,0.3498,0.3583,0.3592,0.2819,0.1697,0.0269,0.0,0.0,0.0,0.0,0.0,0.0,0.0,0.0,0.0,0.0,0.0,0.0,0.0,0.0,0.0,0.0,0.028,0.0841,0.3211,0.4523,0.4511,0.3304,0.2624,0.2624,0.2624,0.1899,0.0504,0.2917,0.2917,0.9217,0.9275,0.9228,0.9059,0.8865,0.8593,0.8167,0.0,0.7269,0.6875,0.0,0.5796,0.5736,0.0,0.0,0.4374,0.4454,0.3966,0.2274,0.2111,0.2525,0.3479,0.2754,0.2684,0.3992,0.4143,0.4422,0.5049,0.482,0.4799,0.5132,0.5151,0.5569,0.6533,0.6362,0.7092,0.8855,0.3686,0.3781,0.9074,0.367,0.0907,0.0576,0.0528,0.0507,0.0507,0.0507,0.3549,0.851,0.8699,0.8785,0.8656,0.7388,0.6809,0.6626,0.6158,0.5864,0.5576,0.4928,0.4511,0.4207,0.3969,0.3918,0.4021,0.4514,0.4405,0.4183,0.44,0.3911,0.329,0.3229,0.2972,0.2751,0.303,0.3108,0.32,0.3493,0.357,0.358,0.3581,0.349,0.2679,0.0402,0.0,0.0,0.0,0.0,0.0,0.0,0.0,0.0,0.0,0.0,0.0,0.0,0.0,0.0,0.0,0.0,0.1179,0.3897,0.4292,0.4511,0.4499,0.4325,0.4266,0.4266,0.4266,0.3471,0.1953,0.2288,0.302,0.9035,0.9384,0.9594,0.9103,0.9239,0.9328,0.8706,0.8279,0.7936,0.765,0.0,0.0,0.0,0.0,0.0,0.0,0.5065,0.4522,0.3617,0.3085,0.2718,0.2542,0.2369,0.2641,0.3607,0.2641,0.2573,0.4063,0.3932,0.3755,0.3654,0.475,0.5569,0.5957,0.6322,0.6851,0.7548,0.5777,0.6498,0.9661,0.6934,0.3655,0.0,0.0,0.0,0.0,0.0,0.242,0.6363,0.6444,0.7574,0.9181,0.8494,0.7851,0.7252,0.6711,0.6459,0.6279,0.5584,0.5164,0.4854,0.4354,0.4212,0.4299,0.4681,0.4808,0.4809,0.4633,0.4336,0.3943,0.3423,0.3163,0.303,0.2982,0.2996,0.308,0.3381,0.3446,0.3473,0.3563,0.358,0.3265,0.2276,0.0937,0.0,0.0,0.0,0.0,0.0,0.0,0.0,0.0,0.0,0.0,0.0,0.1628,0.2586,0.2638,0.1791,0.1845,0.3141,0.4042,0.4492,0.4485,0.4479,0.4475,0.4475,0.4475,0.419,0.3511,0.3516,0.3862,0.8979,0.9386,0.9735,0.9066,0.9306,0.9545,0.8981,0.8612,0.8348,0.8137,0.7832,0.0,0.0,0.0,0.0,0.0,0.0,0.528,0.4821,0.4265,0.3502,0.2395,0.2515,0.2716,0.2779,0.1759,0.1553,0.2698,0.2812,0.2539,0.1924,0.3273,0.4587,0.5696,0.6442,0.6822,0.6828,0.7287,0.7769,0.8287,0.9244,0.6291,0.0,0.0,0.0,0.0,0.0,0.24,0.6374,0.7279,0.8566,0.9947,0.9714,0.9131,0.8304,0.7377,0.7028,0.6876,0.6071,0.5633,0.5347,0.4983,0.4778,0.4737,0.5009,0.5195,0.5214,0.4893,0.4695,0.4468,0.3814,0.3588,0.3409,0.3151,0.3086,0.3123,0.3232,0.3278,0.3341,0.3495,0.3551,0.358,0.358,0.2144,0.076,0.0089,0.0,0.0,0.0,0.0,0.0,0.0,0.0729,0.1234,0.1233,0.3265,0.4521,0.4511,0.3474,0.2847,0.2845,0.3914,0.4477,0.4473,0.452,0.4517,0.4517,0.4517,0.4517,0.4517,0.4525,0.4479,0.9162,0.9251,0.9508,0.9023,0.8917,0.8891,0.8741,0.8542,0.8348,0.8137,0.7832,0.7597,0.0,0.0,0.0,0.0,0.0,0.0,0.0,0.4922,0.4575,0.3561,0.3115,0.2386,0.1108,0.209,0.2302,0.1074,0.1514,0.1329,0.0149,0.0146,0.1992,0.5954,0.6618,0.7055,0.7373,0.5995,0.5087,0.4703,0.8082,0.6291,0.0,0.0,0.0,0.0,0.0,0.3848,1.0369,1.3564,1.3398,1.1133,1.0986,1.0646,1.0008,0.831,0.7584,0.7309,0.6187,0.5632,0.5479,0.5899,0.5728,0.5434,0.577,0.5606,0.5312,0.5281,0.4957,0.4599,0.4567,0.428,0.3915,0.3638,0.3579,0.3485,0.317,0.3204,0.3309,0.3314,0.3476,0.358,0.358,0.3544,0.269,0.0358,0.0,0.0,0.0,0.0,0.0,0.0,0.2588,0.4353,0.4343,0.4457,0.4509,0.4499,0.444,0.4433,0.4423,0.4479,0.4473,0.4517,0.4517,0.4517,0.4517,0.4517,0.4517,0.4517,0.4517,0.4517,0.927,0.9837,0.9625,0.8883,0.933,0.9699,0.8728,0.8353,0.8219,0.828,0.8098,0.7882,0.7768,0.0,0.0,0.0,0.0,0.0,0.0,0.5968,0.5614,0.515,0.4465,0.3656,0.2707,0.2829,0.2564,0.1574,0.1309,0.0848,0.0043,0.0,0.1303,0.4153,0.601,0.7259,0.785,0.7362,0.7289,0.7623,0.8938,0.7741,0.4346,0.3679,0.3377,0.3379,0.3379,0.6389,1.1375,1.2494,1.2603,1.205,1.1911,1.1634,1.1048,0.9085,0.8248,0.7914,0.6691,0.6229,0.6158,0.597,0.6215,0.6584,0.663,0.6537,0.6416,0.6416,0.6159,0.5712,0.5149,0.49,0.457,0.3637,0.3388,0.3338,0.3018,0.3056,0.3187,0.3288,0.3473,0.358,0.358,0.3583,0.3043,0.1428,0.0492,0.0,0.0,0.1722,0.2975,0.2957,0.3888,0.4113,0.3079,0.3923,0.449,0.4485,0.4477,0.4472,0.4522,0.4522,0.452,0.4517,0.4517,0.4517,0.4517,0.4517,0.4517,0.4517,0.4517,0.4517,0.6004,0.7921,0.9225,0.9383,0.9951,1.0183,0.9078,0.8684,0.8629,0.885,0.8528,0.8328,0.8725,0.0,0.0,0.0,0.0,0.0,0.0,0.6786,0.6507,0.6381,0.5515,0.463,0.3928,0.3617,0.3003,0.1891,0.1236,0.0636,0.0032,0.0,0.1143,0.3643,0.6036,0.7562,0.8162,0.8354,0.8691,0.9174,0.934,0.883,0.7688,0.7126,0.6879,0.6877,0.6931,0.8826,1.1899,1.2279,1.2659,1.2983,1.2852,1.2644,1.2184,1.0311,0.9137,0.8368,0.7699,0.7319,0.708,0.6778,0.7154,0.7685,0.7496,0.7231,0.7023,0.721,0.6894,0.6417,0.5998,0.5663,0.5209,0.4218,0.3871,0.3709,0.3471,0.3534,0.3627,0.3602,0.3768,0.3838,0.3624,0.358,0.3371,0.2642,0.1552,0.08,0.0764,0.2476,0.3704,0.3685,0.4163,0.4103,0.3126,0.391,0.4472,0.4472,0.452,0.4517,0.4517,0.4517,0.4517,0.4517,0.4517,0.4517,0.4517,0.4517,0.4517,0.4517,0.4517,0.4625]}]]